Time,TemperatureF,DewpointF,PressureIn,WindDirection,WindDirectionDegrees,WindSpeedMPH,WindSpeedGustMPH,Humidity,HourlyPrecipIn,Conditions,Clouds,dailyrainin,SoftwareType,DateUTC
2013-06-30 00:00:00,75.2,72.7,29.76,SE,144,1.0,2.0,92,0.00,,---,0.00,VWS V14.01,2013-06-30 04:00:00,
2013-06-30 00:01:00,75.1,72.6,29.76,SSW,211,3.0,7.0,92,0.00,,---,0.00,VWS V14.01,2013-06-30 04:01:00,
2013-06-30 00:02:00,75.1,72.6,29.76,ESE,102,1.0,5.0,92,0.00,,---,0.00,VWS V14.01,2013-06-30 04:02:00,
2013-06-30 00:03:00,75.1,72.6,29.76,SE,142,1.0,1.0,92,0.00,,---,0.00,VWS V14.01,2013-06-30 04:03:00,
2013-06-30 00:04:00,75.1,72.6,29.76,SSW,206,1.0,1.0,92,0.00,,---,0.00,VWS V14.01,2013-06-30 04:04:00,
2013-06-30 00:05:00,75.1,72.6,29.76,SW,221,3.0,3.0,92,0.00,,---,0.00,VWS V14.01,2013-06-30 04:05:00,
2013-06-30 00:06:00,75.1,72.6,29.76,South,171,2.0,4.0,92,0.00,,---,0.00,VWS V14.01,2013-06-30 04:06:00,
2013-06-30 00:07:00,75.1,72.6,29.76,SSE,161,0.0,4.0,92,0.00,,---,0.00,VWS V14.01,2013-06-30 04:07:00,
2013-06-30 00:08:00,75.1,72.6,29.76,SSE,161,0.0,0.0,92,0.00,,---,0.00,VWS V14.01,2013-06-30 04:08:00,
2013-06-30 00:09:00,75.1,72.6,29.76,SE,146,2.0,3.0,92,0.00,,---,0.00,VWS V14.01,2013-06-30 04:09:00,
2013-06-30 00:10:00,75.1,72.6,29.76,SE,145,3.0,6.0,92,0.00,,---,0.00,VWS V14.01,2013-06-30 04:10:00,
2013-06-30 00:11:00,75.1,72.6,29.76,SSW,203,2.0,2.0,92,0.00,,---,0.00,VWS V14.01,2013-06-30 04:11:00,
2013-06-30 00:12:00,75.1,72.6,29.76,SSE,159,1.0,8.0,92,0.00,,---,0.00,VWS V14.01,2013-06-30 04:12:00,
2013-06-30 00:13:00,75.1,72.6,29.76,SE,142,5.0,6.0,92,0.00,,---,0.00,VWS V14.01,2013-06-30 04:13:00,
2013-06-30 00:14:00,75.1,72.6,29.76,SSE,154,2.0,6.0,92,0.00,,---,0.00,VWS V14.01,2013-06-30 04:14:00,
2013-06-30 00:15:00,75.1,72.6,29.77,SE,137,2.0,3.0,92,0.00,,---,0.00,VWS V14.01,2013-06-30 04:15:00,
2013-06-30 00:16:00,75.1,72.6,29.77,SW,224,1.0,1.0,92,0.00,,---,0.00,VWS V14.01,2013-06-30 04:16:00,
2013-06-30 00:17:00,75.1,72.6,29.77,South,172,3.0,5.0,92,0.00,,---,0.00,VWS V14.01,2013-06-30 04:17:00,
2013-06-30 00:18:00,75.1,72.6,29.77,South,187,1.0,3.0,92,0.00,,---,0.00,VWS V14.01,2013-06-30 04:18:00,
2013-06-30 00:19:00,75.1,72.6,29.76,South,189,4.0,5.0,92,0.00,,---,0.00,VWS V14.01,2013-06-30 04:19:00,
2013-06-30 00:20:00,75.1,72.6,29.77,SSW,205,2.0,4.0,92,0.00,,---,0.00,VWS V14.01,2013-06-30 04:20:00,
2013-06-30 00:21:00,75.1,72.6,29.77,SE,141,2.0,2.0,92,0.00,,---,0.00,VWS V14.01,2013-06-30 04:21:00,
2013-06-30 00:22:00,75.1,72.9,29.77,ENE,66,0.0,2.0,93,0.00,,---,0.00,VWS V14.01,2013-06-30 04:22:00,
2013-06-30 00:23:00,75.1,72.9,29.76,ENE,71,0.0,1.0,93,0.00,,---,0.00,VWS V14.01,2013-06-30 04:23:00,
2013-06-30 00:24:00,75.1,72.9,29.76,SE,136,4.0,6.0,93,0.00,,---,0.00,VWS V14.01,2013-06-30 04:24:00,
2013-06-30 00:25:00,75.1,72.9,29.76,SE,136,3.0,5.0,93,0.00,,---,0.00,VWS V14.01,2013-06-30 04:25:00,
2013-06-30 00:26:00,75.1,72.9,29.77,SE,146,2.0,2.0,93,0.00,,---,0.00,VWS V14.01,2013-06-30 04:26:00,
2013-06-30 00:27:00,75.1,72.9,29.77,WSW,256,2.0,6.0,93,0.00,,---,0.00,VWS V14.01,2013-06-30 04:27:00,
2013-06-30 00:28:00,75.1,72.9,29.76,South,169,1.0,2.0,93,0.00,,---,0.00,VWS V14.01,2013-06-30 04:28:00,
2013-06-30 00:29:00,75.1,72.9,29.77,SSE,163,2.0,5.0,93,0.00,,---,0.00,VWS V14.01,2013-06-30 04:29:00,
2013-06-30 00:30:00,75.1,72.9,29.77,SW,226,0.0,4.0,93,0.00,,---,0.00,VWS V14.01,2013-06-30 04:30:00,
2013-06-30 00:31:00,75.1,72.9,29.77,ESE,123,1.0,1.0,93,0.00,,---,0.00,VWS V14.01,2013-06-30 04:31:00,
2013-06-30 00:32:00,75.1,72.9,29.77,SW,227,1.0,3.0,93,0.00,,---,0.00,VWS V14.01,2013-06-30 04:32:00,
2013-06-30 00:33:00,75.1,72.9,29.77,SSE,163,3.0,8.0,93,0.00,,---,0.00,VWS V14.01,2013-06-30 04:33:00,
2013-06-30 00:34:00,75.1,72.9,29.77,SE,136,2.0,4.0,93,0.00,,---,0.00,VWS V14.01,2013-06-30 04:34:00,
2013-06-30 00:35:00,75.1,72.9,29.77,SE,137,5.0,5.0,93,0.00,,---,0.00,VWS V14.01,2013-06-30 04:35:00,
2013-06-30 00:36:00,75.1,72.9,29.77,SSE,155,2.0,2.0,93,0.00,,---,0.00,VWS V14.01,2013-06-30 04:36:00,
2013-06-30 00:37:00,75.1,72.9,29.77,SSE,162,2.0,4.0,93,0.00,,---,0.00,VWS V14.01,2013-06-30 04:37:00,
2013-06-30 00:38:00,75.1,72.9,29.77,SSE,159,1.0,2.0,93,0.00,,---,0.00,VWS V14.01,2013-06-30 04:38:00,
2013-06-30 00:39:00,75.0,72.8,29.77,SSE,156,0.0,1.0,93,0.00,,---,0.00,VWS V14.01,2013-06-30 04:39:00,
2013-06-30 00:40:00,75.0,72.8,29.77,SSE,166,3.0,3.0,93,0.00,,---,0.00,VWS V14.01,2013-06-30 04:40:00,
2013-06-30 00:41:00,75.1,72.9,29.77,South,169,4.0,5.0,93,0.00,,---,0.00,VWS V14.01,2013-06-30 04:41:00,
2013-06-30 00:42:00,75.0,72.8,29.76,South,178,0.0,4.0,93,0.00,,---,0.00,VWS V14.01,2013-06-30 04:42:00,
2013-06-30 00:43:00,75.0,72.8,29.76,South,178,0.0,0.0,93,0.00,,---,0.00,VWS V14.01,2013-06-30 04:43:00,
2013-06-30 00:44:00,75.0,72.8,29.76,SE,129,2.0,3.0,93,0.00,,---,0.00,VWS V14.01,2013-06-30 04:44:00,
2013-06-30 00:45:00,75.1,72.9,29.77,West,261,1.0,3.0,93,0.00,,---,0.00,VWS V14.01,2013-06-30 04:45:00,
2013-06-30 00:46:00,75.0,72.8,29.77,SSW,205,1.0,1.0,93,0.00,,---,0.00,VWS V14.01,2013-06-30 04:46:00,
2013-06-30 00:47:00,75.0,72.8,29.77,SSE,159,2.0,5.0,93,0.00,,---,0.00,VWS V14.01,2013-06-30 04:47:00,
2013-06-30 00:48:00,75.0,72.8,29.76,SSE,150,0.0,2.0,93,0.00,,---,0.00,VWS V14.01,2013-06-30 04:48:00,
2013-06-30 00:49:00,75.0,72.8,29.77,South,172,3.0,3.0,93,0.00,,---,0.00,VWS V14.01,2013-06-30 04:49:00,
2013-06-30 00:50:00,75.0,72.8,29.76,West,275,0.0,3.0,93,0.00,,---,0.00,VWS V14.01,2013-06-30 04:50:00,
2013-06-30 00:51:00,75.0,72.8,29.77,South,172,2.0,2.0,93,0.00,,---,0.00,VWS V14.01,2013-06-30 04:51:00,
2013-06-30 00:52:00,75.0,72.8,29.76,South,169,1.0,3.0,93,0.00,,---,0.00,VWS V14.01,2013-06-30 04:52:00,
2013-06-30 00:53:00,75.0,72.8,29.76,SE,126,1.0,2.0,93,0.00,,---,0.00,VWS V14.01,2013-06-30 04:53:00,
2013-06-30 00:54:00,75.0,72.8,29.76,SW,229,0.0,2.0,93,0.00,,---,0.00,VWS V14.01,2013-06-30 04:54:00,
2013-06-30 00:56:00,75.0,72.8,29.77,SSE,157,2.0,2.0,93,0.00,,---,0.00,VWS V14.01,2013-06-30 04:56:00,
2013-06-30 00:57:00,75.0,72.8,29.77,East,92,0.0,2.0,93,0.00,,---,0.00,VWS V14.01,2013-06-30 04:57:00,
2013-06-30 00:58:00,75.0,72.8,29.77,NNE,12,0.0,0.0,93,0.00,,---,0.00,VWS V14.01,2013-06-30 04:58:00,
2013-06-30 00:59:00,75.0,72.8,29.77,ESE,111,2.0,3.0,93,0.00,,---,0.00,VWS V14.01,2013-06-30 04:59:00,
2013-06-30 01:00:00,75.0,72.8,29.77,SSE,150,0.0,1.0,93,0.00,,---,0.00,VWS V14.01,2013-06-30 05:00:00,
2013-06-30 01:01:00,75.0,72.8,29.77,East,98,1.0,1.0,93,0.00,,---,0.00,VWS V14.01,2013-06-30 05:01:00,
2013-06-30 01:02:00,75.0,72.8,29.77,SW,223,5.0,7.0,93,0.00,,---,0.00,VWS V14.01,2013-06-30 05:02:00,
2013-06-30 01:03:00,75.0,72.8,29.76,SW,218,1.0,5.0,93,0.00,,---,0.00,VWS V14.01,2013-06-30 05:03:00,
2013-06-30 01:04:00,75.0,72.8,29.76,East,96,1.0,2.0,93,0.00,,---,0.00,VWS V14.01,2013-06-30 05:04:00,
2013-06-30 01:05:00,75.0,72.8,29.77,South,190,1.0,7.0,93,0.00,,---,0.00,VWS V14.01,2013-06-30 05:05:00,
2013-06-30 01:06:00,75.0,72.8,29.77,SSW,205,1.0,3.0,93,0.00,,---,0.00,VWS V14.01,2013-06-30 05:06:00,
2013-06-30 01:07:00,75.0,72.8,29.77,ENE,61,2.0,3.0,93,0.00,,---,0.00,VWS V14.01,2013-06-30 05:07:00,
2013-06-30 01:08:00,75.0,72.8,29.77,SW,215,1.0,2.0,93,0.00,,---,0.00,VWS V14.01,2013-06-30 05:08:00,
2013-06-30 01:09:00,75.0,72.8,29.77,South,172,0.0,1.0,93,0.00,,---,0.00,VWS V14.01,2013-06-30 05:09:00,
2013-06-30 01:10:00,75.0,72.8,29.77,South,182,3.0,7.0,93,0.00,,---,0.00,VWS V14.01,2013-06-30 05:10:00,
2013-06-30 01:11:00,75.0,72.8,29.77,West,265,1.0,3.0,93,0.00,,---,0.00,VWS V14.01,2013-06-30 05:11:00,
2013-06-30 01:12:00,75.0,72.8,29.77,WSW,240,4.0,4.0,93,0.00,,---,0.00,VWS V14.01,2013-06-30 05:12:00,
2013-06-30 01:13:00,75.0,72.8,29.77,West,261,2.0,5.0,93,0.00,,---,0.00,VWS V14.01,2013-06-30 05:13:00,
2013-06-30 01:14:00,75.0,72.8,29.77,SW,223,2.0,5.0,93,0.00,,---,0.00,VWS V14.01,2013-06-30 05:14:00,
2013-06-30 01:15:00,75.0,72.8,29.77,SW,233,3.0,3.0,93,0.00,,---,0.00,VWS V14.01,2013-06-30 05:15:00,
2013-06-30 01:16:00,75.0,72.8,29.77,SE,132,3.0,4.0,93,0.00,,---,0.00,VWS V14.01,2013-06-30 05:16:00,
2013-06-30 01:17:00,75.0,72.8,29.77,SW,223,1.0,3.0,93,0.00,,---,0.00,VWS V14.01,2013-06-30 05:17:00,
2013-06-30 01:18:00,75.0,72.8,29.77,WSW,256,0.0,3.0,93,0.00,,---,0.00,VWS V14.01,2013-06-30 05:18:00,
2013-06-30 01:19:00,75.0,72.8,29.77,WSW,253,1.0,3.0,93,0.00,,---,0.00,VWS V14.01,2013-06-30 05:19:00,
2013-06-30 01:20:00,75.0,72.8,29.77,SW,223,2.0,2.0,93,0.00,,---,0.00,VWS V14.01,2013-06-30 05:20:00,
2013-06-30 01:21:00,75.0,72.8,29.77,SSE,147,3.0,7.0,93,0.00,,---,0.00,VWS V14.01,2013-06-30 05:21:00,
2013-06-30 01:22:00,75.0,72.8,29.77,WSW,248,2.0,5.0,93,0.00,,---,0.00,VWS V14.01,2013-06-30 05:22:00,
2013-06-30 01:23:00,75.0,72.8,29.77,South,177,6.0,6.0,93,0.00,,---,0.00,VWS V14.01,2013-06-30 05:23:00,
2013-06-30 01:24:00,75.0,72.8,29.77,SSE,166,0.0,6.0,93,0.00,,---,0.00,VWS V14.01,2013-06-30 05:24:00,
2013-06-30 01:25:00,75.0,72.8,29.77,West,281,2.0,2.0,93,0.00,,---,0.00,VWS V14.01,2013-06-30 05:25:00,
2013-06-30 01:26:00,75.0,72.8,29.77,SW,232,1.0,2.0,93,0.00,,---,0.00,VWS V14.01,2013-06-30 05:26:00,
2013-06-30 01:27:00,75.0,72.8,29.77,West,280,0.0,2.0,93,0.00,,---,0.00,VWS V14.01,2013-06-30 05:27:00,
2013-06-30 01:28:00,75.0,72.8,29.77,WNW,290,4.0,4.0,93,0.00,,---,0.00,VWS V14.01,2013-06-30 05:28:00,
2013-06-30 01:29:00,75.0,72.8,29.77,WSW,245,1.0,4.0,93,0.00,,---,0.00,VWS V14.01,2013-06-30 05:29:00,
2013-06-30 01:30:00,75.1,72.9,29.77,WSW,241,4.0,6.0,93,0.00,,---,0.00,VWS V14.01,2013-06-30 05:30:00,
2013-06-30 01:31:00,75.1,72.9,29.77,WNW,288,3.0,4.0,93,0.00,,---,0.00,VWS V14.01,2013-06-30 05:31:00,
2013-06-30 01:32:00,75.1,72.6,29.77,West,280,1.0,3.0,92,0.00,,---,0.00,VWS V14.01,2013-06-30 05:32:00,
2013-06-30 01:33:00,75.1,72.6,29.77,SW,230,4.0,7.0,92,0.00,,---,0.00,VWS V14.01,2013-06-30 05:33:00,
2013-06-30 01:34:00,75.1,72.6,29.77,SSW,212,3.0,5.0,92,0.00,,---,0.00,VWS V14.01,2013-06-30 05:34:00,
2013-06-30 01:35:00,75.1,72.6,29.77,West,279,3.0,4.0,92,0.00,,---,0.00,VWS V14.01,2013-06-30 05:35:00,
2013-06-30 01:36:00,75.1,72.6,29.77,South,187,3.0,7.0,92,0.00,,---,0.00,VWS V14.01,2013-06-30 05:36:00,
2013-06-30 01:37:00,75.1,72.6,29.77,West,278,0.0,3.0,92,0.00,,---,0.00,VWS V14.01,2013-06-30 05:37:00,
2013-06-30 01:38:00,75.1,72.6,29.77,NNE,14,1.0,1.0,92,0.00,,---,0.00,VWS V14.01,2013-06-30 05:38:00,
2013-06-30 01:39:00,75.1,72.6,29.77,SW,236,3.0,3.0,92,0.00,,---,0.00,VWS V14.01,2013-06-30 05:39:00,
2013-06-30 01:40:00,75.1,72.6,29.77,WSW,257,0.0,3.0,92,0.00,,---,0.00,VWS V14.01,2013-06-30 05:40:00,
2013-06-30 01:41:00,75.1,72.6,29.77,SSW,203,2.0,2.0,92,0.00,,---,0.00,VWS V14.01,2013-06-30 05:41:00,
2013-06-30 01:42:00,75.1,72.6,29.77,WSW,251,3.0,3.0,92,0.00,,---,0.00,VWS V14.01,2013-06-30 05:42:00,
2013-06-30 01:43:00,75.1,72.6,29.77,South,174,5.0,6.0,92,0.00,,---,0.00,VWS V14.01,2013-06-30 05:43:00,
2013-06-30 01:44:00,75.1,72.6,29.77,West,281,1.0,6.0,92,0.00,,---,0.00,VWS V14.01,2013-06-30 05:44:00,
2013-06-30 01:45:00,75.1,72.6,29.77,WNW,298,4.0,5.0,92,0.00,,---,0.00,VWS V14.01,2013-06-30 05:45:00,
2013-06-30 01:46:00,75.1,72.6,29.77,WSW,257,1.0,4.0,92,0.00,,---,0.00,VWS V14.01,2013-06-30 05:46:00,
2013-06-30 01:47:00,75.1,72.6,29.77,West,271,1.0,2.0,92,0.00,,---,0.00,VWS V14.01,2013-06-30 05:47:00,
2013-06-30 01:48:00,75.1,72.6,29.77,West,267,2.0,2.0,92,0.00,,---,0.00,VWS V14.01,2013-06-30 05:48:00,
2013-06-30 01:49:00,75.1,72.6,29.77,SSW,207,3.0,6.0,92,0.00,,---,0.00,VWS V14.01,2013-06-30 05:49:00,
2013-06-30 01:50:00,75.2,72.7,29.77,SW,236,3.0,3.0,92,0.00,,---,0.00,VWS V14.01,2013-06-30 05:50:00,
2013-06-30 01:51:00,75.1,72.6,29.77,SW,236,0.0,3.0,92,0.00,,---,0.00,VWS V14.01,2013-06-30 05:51:00,
2013-06-30 01:52:00,75.1,72.6,29.77,SW,236,0.0,1.0,92,0.00,,---,0.00,VWS V14.01,2013-06-30 05:52:00,
2013-06-30 01:53:00,75.1,72.6,29.77,SSW,198,1.0,2.0,92,0.00,,---,0.00,VWS V14.01,2013-06-30 05:53:00,
2013-06-30 01:54:00,75.1,72.6,29.77,South,180,2.0,2.0,92,0.00,,---,0.00,VWS V14.01,2013-06-30 05:54:00,
2013-06-30 01:55:00,75.1,72.6,29.77,WSW,249,1.0,3.0,92,0.00,,---,0.00,VWS V14.01,2013-06-30 05:55:00,
2013-06-30 01:56:00,75.1,72.6,29.77,WSW,252,2.0,4.0,92,0.00,,---,0.00,VWS V14.01,2013-06-30 05:56:00,
2013-06-30 01:57:00,75.1,72.6,29.77,WSW,254,0.0,4.0,92,0.00,,---,0.00,VWS V14.01,2013-06-30 05:57:00,
2013-06-30 01:58:00,75.1,72.6,29.77,West,264,0.0,1.0,92,0.00,,---,0.00,VWS V14.01,2013-06-30 05:58:00,
2013-06-30 01:59:00,75.1,72.6,29.77,WSW,249,1.0,1.0,92,0.00,,---,0.00,VWS V14.01,2013-06-30 05:59:00,
2013-06-30 02:00:00,75.1,72.6,29.77,WSW,247,2.0,3.0,92,0.00,,---,0.00,VWS V14.01,2013-06-30 06:00:00,
2013-06-30 02:01:00,75.1,72.6,29.77,WSW,241,3.0,4.0,92,0.00,,---,0.00,VWS V14.01,2013-06-30 06:01:00,
2013-06-30 02:02:00,75.1,72.6,29.77,West,273,1.0,2.0,92,0.00,,---,0.00,VWS V14.01,2013-06-30 06:02:00,
2013-06-30 02:03:00,75.0,72.5,29.77,West,273,0.0,1.0,92,0.00,,---,0.00,VWS V14.01,2013-06-30 06:03:00,
2013-06-30 02:04:00,75.0,72.5,29.77,East,91,0.0,2.0,92,0.00,,---,0.00,VWS V14.01,2013-06-30 06:04:00,
2013-06-30 02:05:00,75.0,72.5,29.77,ENE,72,1.0,1.0,92,0.00,,---,0.00,VWS V14.01,2013-06-30 06:05:00,
2013-06-30 02:06:00,75.0,72.5,29.77,SW,218,0.0,2.0,92,0.00,,---,0.00,VWS V14.01,2013-06-30 06:06:00,
2013-06-30 02:07:00,75.0,72.5,29.77,SSW,195,2.0,2.0,92,0.00,,---,0.00,VWS V14.01,2013-06-30 06:07:00,
2013-06-30 02:08:00,75.0,72.5,29.77,SSW,211,1.0,3.0,92,0.00,,---,0.00,VWS V14.01,2013-06-30 06:08:00,
2013-06-30 02:09:00,75.0,72.5,29.77,SSW,211,0.0,1.0,92,0.00,,---,0.00,VWS V14.01,2013-06-30 06:09:00,
2013-06-30 02:10:00,75.0,72.5,29.77,SW,223,2.0,5.0,92,0.00,,---,0.00,VWS V14.01,2013-06-30 06:10:00,
2013-06-30 02:11:00,75.0,72.5,29.77,South,188,2.0,3.0,92,0.00,,---,0.00,VWS V14.01,2013-06-30 06:11:00,
2013-06-30 02:12:00,75.0,72.5,29.77,West,268,2.0,3.0,92,0.00,,---,0.00,VWS V14.01,2013-06-30 06:12:00,
2013-06-30 02:13:00,75.0,72.5,29.77,WNW,292,1.0,2.0,92,0.00,,---,0.00,VWS V14.01,2013-06-30 06:13:00,
2013-06-30 02:14:00,74.9,72.4,29.77,WSW,249,3.0,3.0,92,0.00,,---,0.00,VWS V14.01,2013-06-30 06:14:00,
2013-06-30 02:15:00,74.9,72.4,29.77,SW,236,3.0,3.0,92,0.00,,---,0.00,VWS V14.01,2013-06-30 06:15:00,
2013-06-30 02:16:00,74.9,72.4,29.77,WSW,245,0.0,3.0,92,0.00,,---,0.00,VWS V14.01,2013-06-30 06:16:00,
2013-06-30 02:17:00,74.9,72.4,29.77,SE,128,1.0,2.0,92,0.00,,---,0.00,VWS V14.01,2013-06-30 06:17:00,
2013-06-30 02:18:00,74.9,72.4,29.77,SSW,192,1.0,2.0,92,0.00,,---,0.00,VWS V14.01,2013-06-30 06:18:00,
2013-06-30 02:19:00,74.9,72.4,29.77,SE,136,1.0,2.0,92,0.00,,---,0.00,VWS V14.01,2013-06-30 06:19:00,
2013-06-30 02:20:00,74.9,72.4,29.77,South,190,0.0,1.0,92,0.00,,---,0.00,VWS V14.01,2013-06-30 06:20:00,
2013-06-30 02:21:00,74.9,72.7,29.77,South,189,0.0,0.0,93,0.00,,---,0.00,VWS V14.01,2013-06-30 06:21:00,
2013-06-30 02:22:00,74.9,72.7,29.77,SE,136,1.0,2.0,93,0.00,,---,0.00,VWS V14.01,2013-06-30 06:22:00,
2013-06-30 02:23:00,74.9,72.7,29.76,SSW,207,1.0,4.0,93,0.00,,---,0.00,VWS V14.01,2013-06-30 06:23:00,
2013-06-30 02:24:00,74.8,72.3,29.76,SSE,148,2.0,2.0,92,0.00,,---,0.00,VWS V14.01,2013-06-30 06:24:00,
2013-06-30 02:25:00,74.8,72.6,29.76,SE,136,1.0,2.0,93,0.00,,---,0.00,VWS V14.01,2013-06-30 06:25:00,
2013-06-30 02:26:00,74.8,72.3,29.76,South,179,1.0,3.0,92,0.00,,---,0.00,VWS V14.01,2013-06-30 06:26:00,
2013-06-30 02:27:00,74.8,72.3,29.76,SE,135,0.0,2.0,92,0.00,,---,0.00,VWS V14.01,2013-06-30 06:27:00,
2013-06-30 02:28:00,74.8,72.3,29.76,ESE,121,2.0,2.0,92,0.00,,---,0.00,VWS V14.01,2013-06-30 06:28:00,
2013-06-30 02:29:00,74.8,72.3,29.76,South,171,0.0,2.0,92,0.00,,---,0.00,VWS V14.01,2013-06-30 06:29:00,
2013-06-30 02:30:00,74.8,72.3,29.76,South,178,2.0,2.0,92,0.00,,---,0.00,VWS V14.01,2013-06-30 06:30:00,
2013-06-30 02:31:00,74.8,72.3,29.76,SE,128,2.0,4.0,92,0.00,,---,0.00,VWS V14.01,2013-06-30 06:31:00,
2013-06-30 02:32:00,74.8,72.3,29.76,South,178,1.0,2.0,92,0.00,,---,0.00,VWS V14.01,2013-06-30 06:32:00,
2013-06-30 02:33:00,74.8,72.3,29.76,SE,144,1.0,2.0,92,0.00,,---,0.00,VWS V14.01,2013-06-30 06:33:00,
2013-06-30 02:34:00,74.8,72.3,29.76,SE,144,0.0,1.0,92,0.00,,---,0.00,VWS V14.01,2013-06-30 06:34:00,
2013-06-30 02:35:00,74.8,72.6,29.76,ESE,119,0.0,0.0,93,0.00,,---,0.00,VWS V14.01,2013-06-30 06:35:00,
2013-06-30 02:36:00,74.8,72.6,29.76,ESE,118,0.0,0.0,93,0.00,,---,0.00,VWS V14.01,2013-06-30 06:36:00,
2013-06-30 02:37:00,74.8,72.3,29.76,ESE,109,1.0,1.0,92,0.00,,---,0.00,VWS V14.01,2013-06-30 06:37:00,
2013-06-30 02:38:00,74.8,72.3,29.76,West,271,1.0,2.0,92,0.00,,---,0.00,VWS V14.01,2013-06-30 06:38:00,
2013-06-30 02:39:00,74.8,72.6,29.76,West,271,0.0,1.0,93,0.00,,---,0.00,VWS V14.01,2013-06-30 06:39:00,
2013-06-30 02:40:00,74.8,72.6,29.76,SSW,199,1.0,1.0,93,0.00,,---,0.00,VWS V14.01,2013-06-30 06:40:00,
2013-06-30 02:41:00,74.8,72.6,29.76,SSW,198,0.0,1.0,93,0.00,,---,0.00,VWS V14.01,2013-06-30 06:41:00,
2013-06-30 02:42:00,74.8,72.6,29.76,SSW,199,0.0,0.0,93,0.00,,---,0.00,VWS V14.01,2013-06-30 06:42:00,
2013-06-30 02:43:00,74.8,72.3,29.76,SSW,199,0.0,1.0,92,0.00,,---,0.00,VWS V14.01,2013-06-30 06:43:00,
2013-06-30 02:44:00,74.8,72.6,29.76,SSW,199,0.0,1.0,93,0.00,,---,0.00,VWS V14.01,2013-06-30 06:44:00,
2013-06-30 02:45:00,74.8,72.6,29.76,South,187,0.0,1.0,93,0.00,,---,0.00,VWS V14.01,2013-06-30 06:45:00,
2013-06-30 02:46:00,74.8,72.6,29.76,South,187,0.0,1.0,93,0.00,,---,0.00,VWS V14.01,2013-06-30 06:46:00,
2013-06-30 02:47:00,74.8,72.6,29.76,South,187,0.0,0.0,93,0.00,,---,0.00,VWS V14.01,2013-06-30 06:47:00,
2013-06-30 02:48:00,74.8,72.6,29.76,SE,139,1.0,2.0,93,0.00,,---,0.00,VWS V14.01,2013-06-30 06:48:00,
2013-06-30 02:49:00,74.8,72.6,29.76,South,190,3.0,3.0,93,0.00,,---,0.00,VWS V14.01,2013-06-30 06:49:00,
2013-06-30 02:50:00,74.7,72.6,29.76,South,173,1.0,3.0,93,0.00,,---,0.00,VWS V14.01,2013-06-30 06:50:00,
2013-06-30 02:51:00,74.8,72.6,29.76,South,179,2.0,3.0,93,0.00,,---,0.00,VWS V14.01,2013-06-30 06:51:00,
2013-06-30 02:52:00,74.7,72.6,29.76,SSE,154,1.0,3.0,93,0.00,,---,0.00,VWS V14.01,2013-06-30 06:52:00,
2013-06-30 02:53:00,74.7,72.6,29.76,SSE,153,4.0,4.0,93,0.00,,---,0.00,VWS V14.01,2013-06-30 06:53:00,
2013-06-30 02:54:00,74.7,72.6,29.76,SSE,150,1.0,4.0,93,0.00,,---,0.00,VWS V14.01,2013-06-30 06:54:00,
2013-06-30 02:55:00,74.7,72.6,29.76,SSE,152,1.0,1.0,93,0.00,,---,0.00,VWS V14.01,2013-06-30 06:55:00,
2013-06-30 02:56:00,74.7,72.6,29.76,SSE,152,0.0,1.0,93,0.00,,---,0.00,VWS V14.01,2013-06-30 06:56:00,
2013-06-30 02:57:00,74.7,72.6,29.76,SSE,150,1.0,3.0,93,0.00,,---,0.00,VWS V14.01,2013-06-30 06:57:00,
2013-06-30 02:58:00,74.6,72.4,29.76,SE,142,0.0,1.0,93,0.00,,---,0.00,VWS V14.01,2013-06-30 06:58:00,
2013-06-30 02:59:00,74.6,72.4,29.76,SE,143,0.0,0.0,93,0.00,,---,0.00,VWS V14.01,2013-06-30 06:59:00,
2013-06-30 03:00:00,74.6,72.4,29.76,SSE,157,1.0,1.0,93,0.00,,---,0.00,VWS V14.01,2013-06-30 07:00:00,
2013-06-30 03:01:00,74.7,72.6,29.76,SSE,159,1.0,1.0,93,0.00,,---,0.00,VWS V14.01,2013-06-30 07:01:00,
2013-06-30 03:02:00,74.6,72.4,29.76,SE,145,1.0,2.0,93,0.00,,---,0.00,VWS V14.01,2013-06-30 07:02:00,
2013-06-30 03:03:00,74.6,72.4,29.75,ESE,111,2.0,3.0,93,0.00,,---,0.00,VWS V14.01,2013-06-30 07:03:00,
2013-06-30 03:04:00,74.6,72.4,29.75,SSE,152,0.0,2.0,93,0.00,,---,0.00,VWS V14.01,2013-06-30 07:04:00,
2013-06-30 03:05:00,74.6,72.4,29.75,South,175,3.0,4.0,93,0.00,,---,0.00,VWS V14.01,2013-06-30 07:05:00,
2013-06-30 03:06:00,74.6,72.4,29.75,SSE,164,3.0,4.0,93,0.00,,---,0.00,VWS V14.01,2013-06-30 07:06:00,
2013-06-30 03:07:00,74.6,72.4,29.75,SE,140,1.0,4.0,93,0.00,,---,0.00,VWS V14.01,2013-06-30 07:07:00,
2013-06-30 03:08:00,74.6,72.4,29.75,ESE,114,1.0,2.0,93,0.00,,---,0.00,VWS V14.01,2013-06-30 07:08:00,
2013-06-30 03:09:00,74.6,72.4,29.75,ESE,118,2.0,2.0,93,0.00,,---,0.00,VWS V14.01,2013-06-30 07:09:00,
2013-06-30 03:10:00,74.5,72.3,29.75,South,169,4.0,4.0,93,0.00,,---,0.00,VWS V14.01,2013-06-30 07:10:00,
2013-06-30 03:11:00,74.5,72.3,29.75,SSE,168,3.0,4.0,93,0.00,,---,0.00,VWS V14.01,2013-06-30 07:11:00,
2013-06-30 03:12:00,74.5,72.3,29.75,SSE,150,3.0,3.0,93,0.00,,---,0.00,VWS V14.01,2013-06-30 07:12:00,
2013-06-30 03:13:00,74.5,72.3,29.75,ESE,113,2.0,3.0,93,0.00,,---,0.00,VWS V14.01,2013-06-30 07:13:00,
2013-06-30 03:14:00,74.5,72.3,29.75,SE,145,3.0,3.0,93,0.00,,---,0.00,VWS V14.01,2013-06-30 07:14:00,
2013-06-30 03:15:00,74.5,72.3,29.75,SSE,156,2.0,3.0,93,0.00,,---,0.00,VWS V14.01,2013-06-30 07:15:00,
2013-06-30 03:16:00,74.5,72.3,29.75,SSE,149,2.0,3.0,93,0.00,,---,0.00,VWS V14.01,2013-06-30 07:16:00,
2013-06-30 03:17:00,74.5,72.3,29.75,South,176,2.0,2.0,93,0.00,,---,0.00,VWS V14.01,2013-06-30 07:17:00,
2013-06-30 03:18:00,74.4,72.2,29.75,SSE,147,4.0,5.0,93,0.00,,---,0.00,VWS V14.01,2013-06-30 07:18:00,
2013-06-30 03:19:00,74.4,72.2,29.75,SSW,206,2.0,5.0,93,0.00,,---,0.00,VWS V14.01,2013-06-30 07:19:00,
2013-06-30 03:20:00,74.4,72.2,29.75,South,188,1.0,2.0,93,0.00,,---,0.00,VWS V14.01,2013-06-30 07:20:00,
2013-06-30 03:21:00,74.4,72.2,29.75,South,173,2.0,3.0,93,0.00,,---,0.00,VWS V14.01,2013-06-30 07:21:00,
2013-06-30 03:22:00,74.4,72.2,29.75,ESE,117,1.0,2.0,93,0.00,,---,0.00,VWS V14.01,2013-06-30 07:22:00,
2013-06-30 03:23:00,74.4,72.2,29.75,South,189,1.0,2.0,93,0.00,,---,0.00,VWS V14.01,2013-06-30 07:23:00,
2013-06-30 03:24:00,74.4,72.2,29.75,SSE,150,1.0,1.0,93,0.00,,---,0.00,VWS V14.01,2013-06-30 07:24:00,
2013-06-30 03:25:00,74.4,72.2,29.75,SE,125,2.0,2.0,93,0.00,,---,0.00,VWS V14.01,2013-06-30 07:25:00,
2013-06-30 03:26:00,74.4,72.2,29.75,ESE,118,1.0,2.0,93,0.00,,---,0.00,VWS V14.01,2013-06-30 07:26:00,
2013-06-30 03:27:00,74.4,72.2,29.75,SE,128,1.0,3.0,93,0.00,,---,0.00,VWS V14.01,2013-06-30 07:27:00,
2013-06-30 03:28:00,74.4,72.2,29.75,SE,128,0.0,1.0,93,0.00,,---,0.00,VWS V14.01,2013-06-30 07:28:00,
2013-06-30 03:29:00,74.4,72.2,29.75,SE,128,0.0,0.0,93,0.00,,---,0.00,VWS V14.01,2013-06-30 07:29:00,
2013-06-30 03:30:00,74.4,72.2,29.75,SSE,154,1.0,2.0,93,0.00,,---,0.00,VWS V14.01,2013-06-30 07:30:00,
2013-06-30 03:31:00,74.4,72.2,29.75,SE,142,1.0,2.0,93,0.00,,---,0.00,VWS V14.01,2013-06-30 07:31:00,
2013-06-30 03:32:00,74.4,72.2,29.75,SSW,199,2.0,2.0,93,0.00,,---,0.00,VWS V14.01,2013-06-30 07:32:00,
2013-06-30 03:33:00,74.4,72.2,29.75,SW,226,3.0,3.0,93,0.00,,---,0.00,VWS V14.01,2013-06-30 07:33:00,
2013-06-30 03:34:00,74.4,72.2,29.75,SE,126,1.0,3.0,93,0.00,,---,0.00,VWS V14.01,2013-06-30 07:34:00,
2013-06-30 03:35:00,74.4,72.2,29.75,East,86,0.0,1.0,93,0.00,,---,0.00,VWS V14.01,2013-06-30 07:35:00,
2013-06-30 03:36:00,74.4,72.2,29.75,SSW,209,3.0,3.0,93,0.00,,---,0.00,VWS V14.01,2013-06-30 07:36:00,
2013-06-30 03:37:00,74.4,72.2,29.75,East,96,1.0,3.0,93,0.00,,---,0.00,VWS V14.01,2013-06-30 07:37:00,
2013-06-30 03:38:00,74.4,72.2,29.75,SSE,159,0.0,1.0,93,0.00,,---,0.00,VWS V14.01,2013-06-30 07:38:00,
2013-06-30 03:39:00,74.4,72.2,29.75,South,186,0.0,2.0,93,0.00,,---,0.00,VWS V14.01,2013-06-30 07:39:00,
2013-06-30 03:40:00,74.4,72.2,29.75,SSE,155,1.0,2.0,93,0.00,,---,0.00,VWS V14.01,2013-06-30 07:40:00,
2013-06-30 03:41:00,74.4,72.2,29.75,SE,128,2.0,3.0,93,0.00,,---,0.00,VWS V14.01,2013-06-30 07:41:00,
2013-06-30 03:42:00,74.4,72.2,29.75,SSE,159,3.0,4.0,93,0.00,,---,0.00,VWS V14.01,2013-06-30 07:42:00,
2013-06-30 03:43:00,74.4,72.2,29.75,SSE,160,0.0,3.0,93,0.00,,---,0.00,VWS V14.01,2013-06-30 07:43:00,
2013-06-30 03:44:00,74.4,72.2,29.75,SE,140,1.0,2.0,93,0.00,,---,0.00,VWS V14.01,2013-06-30 07:44:00,
2013-06-30 03:45:00,74.4,72.2,29.75,ESE,109,0.0,2.0,93,0.00,,---,0.00,VWS V14.01,2013-06-30 07:45:00,
2013-06-30 03:46:00,74.4,72.2,29.75,ESE,109,1.0,2.0,93,0.00,,---,0.00,VWS V14.01,2013-06-30 07:46:00,
2013-06-30 03:47:00,74.4,72.2,29.75,ESE,115,3.0,3.0,93,0.00,,---,0.00,VWS V14.01,2013-06-30 07:47:00,
2013-06-30 03:48:00,74.4,72.2,29.75,SSW,194,0.0,3.0,93,0.00,,---,0.00,VWS V14.01,2013-06-30 07:48:00,
2013-06-30 03:49:00,74.4,72.2,29.75,SSE,167,1.0,3.0,93,0.00,,---,0.00,VWS V14.01,2013-06-30 07:49:00,
2013-06-30 03:50:00,74.4,72.2,29.75,South,184,2.0,2.0,93,0.00,,---,0.00,VWS V14.01,2013-06-30 07:50:00,
2013-06-30 03:51:00,74.4,72.2,29.75,SSW,195,4.0,4.0,93,0.00,,---,0.00,VWS V14.01,2013-06-30 07:51:00,
2013-06-30 03:52:00,74.4,72.2,29.75,South,179,2.0,4.0,93,0.00,,---,0.00,VWS V14.01,2013-06-30 07:52:00,
2013-06-30 03:53:00,74.4,72.2,29.75,SSW,208,0.0,3.0,93,0.00,,---,0.00,VWS V14.01,2013-06-30 07:53:00,
2013-06-30 03:54:00,74.4,72.2,29.75,SE,144,3.0,6.0,93,0.00,,---,0.00,VWS V14.01,2013-06-30 07:54:00,
2013-06-30 03:55:00,74.4,72.2,29.75,SSE,150,1.0,1.0,93,0.00,,---,0.00,VWS V14.01,2013-06-30 07:55:00,
2013-06-30 03:56:00,74.4,72.2,29.75,SE,145,1.0,1.0,93,0.00,,---,0.00,VWS V14.01,2013-06-30 07:56:00,
2013-06-30 03:57:00,74.4,72.2,29.75,SSE,150,0.0,1.0,93,0.00,,---,0.00,VWS V14.01,2013-06-30 07:57:00,
2013-06-30 03:58:00,74.4,72.2,29.75,South,184,2.0,2.0,93,0.00,,---,0.00,VWS V14.01,2013-06-30 07:58:00,
2013-06-30 03:59:00,74.4,72.2,29.75,ESE,115,0.0,2.0,93,0.00,,---,0.00,VWS V14.01,2013-06-30 07:59:00,
2013-06-30 04:00:00,74.4,72.2,29.75,ESE,107,1.0,2.0,93,0.00,,---,0.00,VWS V14.01,2013-06-30 08:00:00,
2013-06-30 04:01:00,74.4,72.2,29.75,ESE,122,2.0,2.0,93,0.00,,---,0.00,VWS V14.01,2013-06-30 08:01:00,
2013-06-30 04:02:00,74.4,72.2,29.75,SSE,165,3.0,4.0,93,0.00,,---,0.00,VWS V14.01,2013-06-30 08:02:00,
2013-06-30 04:03:00,74.4,72.2,29.75,West,261,0.0,3.0,93,0.00,,---,0.00,VWS V14.01,2013-06-30 08:03:00,
2013-06-30 04:04:00,74.4,72.2,29.75,SSW,192,4.0,5.0,93,0.00,,---,0.00,VWS V14.01,2013-06-30 08:04:00,
2013-06-30 04:05:00,74.3,72.2,29.75,East,97,1.0,2.0,93,0.00,,---,0.00,VWS V14.01,2013-06-30 08:05:00,
2013-06-30 04:06:00,74.4,72.2,29.75,South,188,1.0,2.0,93,0.00,,---,0.00,VWS V14.01,2013-06-30 08:06:00,
2013-06-30 04:07:00,74.3,72.2,29.75,ESE,122,2.0,3.0,93,0.00,,---,0.00,VWS V14.01,2013-06-30 08:07:00,
2013-06-30 04:08:00,74.4,72.2,29.75,SE,145,0.0,3.0,93,0.00,,---,0.00,VWS V14.01,2013-06-30 08:08:00,
2013-06-30 04:09:00,74.3,72.2,29.75,SE,145,0.0,1.0,93,0.00,,---,0.00,VWS V14.01,2013-06-30 08:09:00,
2013-06-30 04:10:00,74.4,72.2,29.75,SE,135,1.0,1.0,93,0.00,,---,0.00,VWS V14.01,2013-06-30 08:10:00,
2013-06-30 04:11:00,74.3,72.2,29.75,SW,219,1.0,2.0,93,0.00,,---,0.00,VWS V14.01,2013-06-30 08:11:00,
2013-06-30 04:12:00,74.3,72.2,29.75,SSE,154,1.0,1.0,93,0.00,,---,0.00,VWS V14.01,2013-06-30 08:12:00,
2013-06-30 04:13:00,74.3,72.2,29.75,South,180,4.0,5.0,93,0.00,,---,0.00,VWS V14.01,2013-06-30 08:13:00,
2013-06-30 04:14:00,74.3,72.2,29.75,SW,229,3.0,5.0,93,0.00,,---,0.00,VWS V14.01,2013-06-30 08:14:00,
2013-06-30 04:15:00,74.3,72.2,29.75,SSE,157,0.0,2.0,93,0.00,,---,0.00,VWS V14.01,2013-06-30 08:15:00,
2013-06-30 04:16:00,74.3,72.2,29.75,SE,138,1.0,2.0,93,0.00,,---,0.00,VWS V14.01,2013-06-30 08:16:00,
2013-06-30 04:17:00,74.3,72.2,29.75,East,96,1.0,5.0,93,0.00,,---,0.00,VWS V14.01,2013-06-30 08:17:00,
2013-06-30 04:18:00,74.3,72.2,29.75,SSE,152,2.0,5.0,93,0.00,,---,0.00,VWS V14.01,2013-06-30 08:18:00,
2013-06-30 04:19:00,74.3,72.2,29.75,SW,219,0.0,2.0,93,0.00,,---,0.00,VWS V14.01,2013-06-30 08:19:00,
2013-06-30 04:20:00,74.4,72.2,29.75,South,179,5.0,8.0,93,0.00,,---,0.00,VWS V14.01,2013-06-30 08:20:00,
2013-06-30 04:21:00,74.4,72.2,29.75,SSE,165,3.0,8.0,93,0.00,,---,0.00,VWS V14.01,2013-06-30 08:21:00,
2013-06-30 04:22:00,74.4,72.2,29.75,SSE,159,2.0,3.0,93,0.00,,---,0.00,VWS V14.01,2013-06-30 08:22:00,
2013-06-30 04:23:00,74.4,72.2,29.75,SE,135,2.0,2.0,93,0.00,,---,0.00,VWS V14.01,2013-06-30 08:23:00,
2013-06-30 04:24:00,74.4,72.2,29.75,ESE,118,2.0,2.0,93,0.00,,---,0.00,VWS V14.01,2013-06-30 08:24:00,
2013-06-30 04:25:00,74.4,72.2,29.75,ESE,110,1.0,3.0,93,0.00,,---,0.00,VWS V14.01,2013-06-30 08:25:00,
2013-06-30 04:26:00,74.4,72.2,29.75,ESE,111,1.0,3.0,93,0.00,,---,0.00,VWS V14.01,2013-06-30 08:26:00,
2013-06-30 04:27:00,74.4,72.2,29.75,SSE,168,2.0,2.0,93,0.00,,---,0.00,VWS V14.01,2013-06-30 08:27:00,
2013-06-30 04:28:00,74.4,72.2,29.75,SSE,160,0.0,2.0,93,0.00,,---,0.00,VWS V14.01,2013-06-30 08:28:00,
2013-06-30 04:29:00,74.4,72.2,29.75,West,259,1.0,1.0,93,0.00,,---,0.00,VWS V14.01,2013-06-30 08:29:00,
2013-06-30 04:30:00,74.4,72.2,29.75,SW,236,1.0,1.0,93,0.00,,---,0.00,VWS V14.01,2013-06-30 08:30:00,
2013-06-30 04:31:00,74.4,72.2,29.75,SSE,161,2.0,2.0,93,0.00,,---,0.00,VWS V14.01,2013-06-30 08:31:00,
2013-06-30 04:32:00,74.4,72.2,29.75,SSE,159,2.0,3.0,93,0.00,,---,0.00,VWS V14.01,2013-06-30 08:32:00,
2013-06-30 04:33:00,74.4,72.2,29.75,WNW,288,1.0,7.0,93,0.00,,---,0.00,VWS V14.01,2013-06-30 08:33:00,
2013-06-30 04:34:00,74.4,72.2,29.75,WNW,286,0.0,1.0,93,0.00,,---,0.00,VWS V14.01,2013-06-30 08:34:00,
2013-06-30 04:35:00,74.4,72.2,29.75,SE,135,3.0,6.0,93,0.00,,---,0.00,VWS V14.01,2013-06-30 08:35:00,
2013-06-30 04:36:00,74.3,72.2,29.75,SSE,148,0.0,6.0,93,0.00,,---,0.00,VWS V14.01,2013-06-30 08:36:00,
2013-06-30 04:37:00,74.3,72.2,29.75,WSW,254,0.0,1.0,93,0.00,,---,0.00,VWS V14.01,2013-06-30 08:37:00,
2013-06-30 04:38:00,74.3,72.2,29.75,WSW,254,0.0,0.0,93,0.00,,---,0.00,VWS V14.01,2013-06-30 08:38:00,
2013-06-30 04:39:00,74.3,72.2,29.75,South,180,3.0,7.0,93,0.00,,---,0.00,VWS V14.01,2013-06-30 08:39:00,
2013-06-30 04:40:00,74.3,72.5,29.75,WSW,237,2.0,3.0,94,0.00,,---,0.00,VWS V14.01,2013-06-30 08:40:00,
2013-06-30 04:41:00,74.3,72.5,29.75,WSW,252,1.0,3.0,94,0.00,,---,0.00,VWS V14.01,2013-06-30 08:41:00,
2013-06-30 04:42:00,74.3,72.5,29.75,SSW,192,1.0,2.0,94,0.00,,---,0.00,VWS V14.01,2013-06-30 08:42:00,
2013-06-30 04:43:00,74.3,72.5,29.75,SW,227,1.0,3.0,94,0.00,,---,0.00,VWS V14.01,2013-06-30 08:43:00,
2013-06-30 04:44:00,74.3,72.5,29.75,SW,229,2.0,2.0,94,0.00,,---,0.00,VWS V14.01,2013-06-30 08:44:00,
2013-06-30 04:45:00,74.3,72.5,29.75,West,264,0.0,0.0,94,0.00,,---,0.00,VWS V14.01,2013-06-30 08:45:00,
2013-06-30 04:46:00,74.3,72.5,29.75,South,187,2.0,2.0,94,0.00,,---,0.00,VWS V14.01,2013-06-30 08:46:00,
2013-06-30 04:47:00,74.3,72.5,29.75,SSW,211,0.0,2.0,94,0.00,,---,0.00,VWS V14.01,2013-06-30 08:47:00,
2013-06-30 04:48:00,74.3,72.5,29.75,SSE,159,0.0,0.0,94,0.00,,---,0.00,VWS V14.01,2013-06-30 08:48:00,
2013-06-30 04:49:00,74.3,72.5,29.75,SSE,150,3.0,3.0,94,0.00,,---,0.00,VWS V14.01,2013-06-30 08:49:00,
2013-06-30 04:50:00,74.3,72.5,29.75,SSW,202,6.0,6.0,94,0.00,,---,0.00,VWS V14.01,2013-06-30 08:50:00,
2013-06-30 04:51:00,74.3,72.5,29.75,NNE,29,1.0,6.0,94,0.00,,---,0.00,VWS V14.01,2013-06-30 08:51:00,
2013-06-30 04:52:00,74.3,72.5,29.76,NNE,17,0.0,1.0,94,0.00,,---,0.00,VWS V14.01,2013-06-30 08:52:00,
2013-06-30 04:53:00,74.4,72.6,29.76,SE,135,3.0,4.0,94,0.00,,---,0.00,VWS V14.01,2013-06-30 08:53:00,
2013-06-30 04:54:00,74.3,72.5,29.75,South,179,3.0,5.0,94,0.00,,---,0.00,VWS V14.01,2013-06-30 08:54:00,
2013-06-30 04:55:00,74.4,72.6,29.75,SSE,161,2.0,3.0,94,0.00,,---,0.00,VWS V14.01,2013-06-30 08:55:00,
2013-06-30 04:56:00,74.3,72.5,29.75,South,179,2.0,3.0,94,0.00,,---,0.00,VWS V14.01,2013-06-30 08:56:00,
2013-06-30 04:57:00,74.3,72.5,29.75,West,260,2.0,3.0,94,0.00,,---,0.00,VWS V14.01,2013-06-30 08:57:00,
2013-06-30 04:58:00,74.4,72.6,29.76,WSW,257,2.0,2.0,94,0.00,,---,0.00,VWS V14.01,2013-06-30 08:58:00,
2013-06-30 04:59:00,74.4,72.6,29.76,West,260,0.0,2.0,94,0.00,,---,0.00,VWS V14.01,2013-06-30 08:59:00,
2013-06-30 05:00:00,74.4,72.6,29.76,WSW,254,0.0,0.0,94,0.00,,---,0.00,VWS V14.01,2013-06-30 09:00:00,
2013-06-30 05:01:00,74.3,72.5,29.76,WNW,283,0.0,1.0,94,0.00,,---,0.00,VWS V14.01,2013-06-30 09:01:00,
2013-06-30 05:02:00,74.4,72.6,29.76,NW,304,1.0,2.0,94,0.00,,---,0.00,VWS V14.01,2013-06-30 09:02:00,
2013-06-30 05:03:00,74.3,72.5,29.76,SW,236,2.0,3.0,94,0.00,,---,0.00,VWS V14.01,2013-06-30 09:03:00,
2013-06-30 05:04:00,74.3,72.5,29.76,SW,233,1.0,2.0,94,0.00,,---,0.00,VWS V14.01,2013-06-30 09:04:00,
2013-06-30 05:05:00,74.3,72.5,29.76,SW,229,0.0,1.0,94,0.00,,---,0.00,VWS V14.01,2013-06-30 09:05:00,
2013-06-30 05:06:00,74.3,72.5,29.76,SW,233,3.0,3.0,94,0.00,,---,0.00,VWS V14.01,2013-06-30 09:06:00,
2013-06-30 05:07:00,74.3,72.5,29.76,SSE,153,0.0,4.0,94,0.00,,---,0.00,VWS V14.01,2013-06-30 09:07:00,
2013-06-30 05:08:00,74.3,72.5,29.76,South,188,1.0,2.0,94,0.00,,---,0.00,VWS V14.01,2013-06-30 09:08:00,
2013-06-30 05:09:00,74.3,72.5,29.76,SSE,165,2.0,2.0,94,0.00,,---,0.00,VWS V14.01,2013-06-30 09:09:00,
2013-06-30 05:10:00,74.3,72.5,29.76,SW,233,2.0,2.0,94,0.00,,---,0.00,VWS V14.01,2013-06-30 09:10:00,
2013-06-30 05:11:00,74.3,72.5,29.76,South,183,1.0,4.0,94,0.00,,---,0.00,VWS V14.01,2013-06-30 09:11:00,
2013-06-30 05:12:00,74.2,72.4,29.76,South,171,0.0,1.0,94,0.00,,---,0.00,VWS V14.01,2013-06-30 09:12:00,
2013-06-30 05:13:00,74.2,72.4,29.76,SE,126,2.0,2.0,94,0.00,,---,0.00,VWS V14.01,2013-06-30 09:13:00,
2013-06-30 05:14:00,74.2,72.4,29.76,ESE,119,4.0,4.0,94,0.00,,---,0.00,VWS V14.01,2013-06-30 09:14:00,
2013-06-30 05:15:00,74.2,72.4,29.76,SSE,155,0.0,1.0,94,0.00,,---,0.00,VWS V14.01,2013-06-30 09:15:00,
2013-06-30 05:16:00,74.2,72.4,29.76,SSW,209,2.0,4.0,94,0.00,,---,0.00,VWS V14.01,2013-06-30 09:16:00,
2013-06-30 05:17:00,74.2,72.4,29.76,South,174,0.0,2.0,94,0.00,,---,0.00,VWS V14.01,2013-06-30 09:17:00,
2013-06-30 05:18:00,74.2,72.4,29.76,SSW,210,1.0,5.0,94,0.00,,---,0.00,VWS V14.01,2013-06-30 09:18:00,
2013-06-30 05:19:00,74.2,72.4,29.76,SSE,161,2.0,3.0,94,0.00,,---,0.00,VWS V14.01,2013-06-30 09:19:00,
2013-06-30 05:20:00,74.2,72.4,29.76,South,172,2.0,4.0,94,0.00,,---,0.00,VWS V14.01,2013-06-30 09:20:00,
2013-06-30 05:21:00,74.2,72.4,29.76,SSW,207,1.0,4.0,94,0.00,,---,0.00,VWS V14.01,2013-06-30 09:21:00,
2013-06-30 05:22:00,74.2,72.4,29.76,SSW,206,1.0,1.0,94,0.00,,---,0.00,VWS V14.01,2013-06-30 09:22:00,
2013-06-30 05:23:00,74.2,72.4,29.76,SE,136,2.0,2.0,94,0.00,,---,0.00,VWS V14.01,2013-06-30 09:23:00,
2013-06-30 05:24:00,74.2,72.4,29.76,SSE,150,0.0,2.0,94,0.00,,---,0.00,VWS V14.01,2013-06-30 09:24:00,
2013-06-30 05:25:00,74.2,72.4,29.76,South,188,1.0,3.0,94,0.00,,---,0.00,VWS V14.01,2013-06-30 09:25:00,
2013-06-30 05:26:00,74.2,72.4,29.76,South,188,0.0,3.0,94,0.00,,---,0.00,VWS V14.01,2013-06-30 09:26:00,
2013-06-30 05:27:00,74.2,72.4,29.76,South,188,0.0,1.0,94,0.00,,---,0.00,VWS V14.01,2013-06-30 09:27:00,
2013-06-30 05:28:00,74.2,72.4,29.76,SE,139,2.0,2.0,94,0.00,,---,0.00,VWS V14.01,2013-06-30 09:28:00,
2013-06-30 05:29:00,74.2,72.4,29.77,SSW,203,1.0,2.0,94,0.00,,---,0.00,VWS V14.01,2013-06-30 09:29:00,
2013-06-30 05:30:00,74.2,72.4,29.77,WSW,242,0.0,1.0,94,0.00,,---,0.00,VWS V14.01,2013-06-30 09:30:00,
2013-06-30 05:31:00,74.2,72.4,29.77,SE,140,1.0,1.0,94,0.00,,---,0.00,VWS V14.01,2013-06-30 09:31:00,
2013-06-30 05:32:00,74.2,72.4,29.77,SSW,199,0.0,1.0,94,0.00,,---,0.00,VWS V14.01,2013-06-30 09:32:00,
2013-06-30 05:33:00,74.2,72.4,29.77,West,259,1.0,1.0,94,0.00,,---,0.00,VWS V14.01,2013-06-30 09:33:00,
2013-06-30 05:34:00,74.1,72.3,29.77,South,172,1.0,1.0,94,0.00,,---,0.00,VWS V14.01,2013-06-30 09:34:00,
2013-06-30 05:35:00,74.1,72.3,29.77,South,175,0.0,2.0,94,0.00,,---,0.00,VWS V14.01,2013-06-30 09:35:00,
2013-06-30 05:36:00,74.1,72.3,29.77,SW,236,2.0,2.0,94,0.00,,---,0.00,VWS V14.01,2013-06-30 09:36:00,
2013-06-30 05:37:00,74.1,72.3,29.77,WSW,250,1.0,2.0,94,0.00,,---,0.00,VWS V14.01,2013-06-30 09:37:00,
2013-06-30 05:38:00,74.1,72.3,29.77,SW,233,3.0,3.0,94,0.00,,---,0.00,VWS V14.01,2013-06-30 09:38:00,
2013-06-30 05:39:00,74.1,72.3,29.77,SW,225,1.0,4.0,94,0.00,,---,0.00,VWS V14.01,2013-06-30 09:39:00,
2013-06-30 05:40:00,74.1,72.3,29.77,SSW,196,0.0,0.0,94,0.00,,---,0.00,VWS V14.01,2013-06-30 09:40:00,
2013-06-30 05:41:00,74.1,72.3,29.77,SE,137,2.0,3.0,94,0.00,,---,0.00,VWS V14.01,2013-06-30 09:41:00,
2013-06-30 05:42:00,74.1,72.3,29.77,SE,138,0.0,2.0,94,0.00,,---,0.00,VWS V14.01,2013-06-30 09:42:00,
2013-06-30 05:43:00,74.1,72.3,29.77,West,264,0.0,2.0,94,0.00,,---,0.00,VWS V14.01,2013-06-30 09:43:00,
2013-06-30 05:44:00,74.1,72.3,29.77,SSW,201,0.0,2.0,94,0.00,,---,0.00,VWS V14.01,2013-06-30 09:44:00,
2013-06-30 05:45:00,74.1,72.3,29.77,SSW,200,0.0,0.0,94,0.00,,---,0.00,VWS V14.01,2013-06-30 09:45:00,
2013-06-30 05:46:00,74.1,72.3,29.77,SSW,203,0.0,0.0,94,0.00,,---,0.00,VWS V14.01,2013-06-30 09:46:00,
2013-06-30 05:47:00,74.1,72.3,29.77,West,264,3.0,3.0,94,0.00,,---,0.00,VWS V14.01,2013-06-30 09:47:00,
2013-06-30 05:48:00,74.1,72.3,29.77,West,275,1.0,3.0,94,0.00,,---,0.00,VWS V14.01,2013-06-30 09:48:00,
2013-06-30 05:49:00,74.1,72.3,29.77,SW,226,2.0,2.0,94,0.00,,---,0.00,VWS V14.01,2013-06-30 09:49:00,
2013-06-30 05:50:00,74.1,72.3,29.78,West,265,2.0,2.0,94,0.00,,---,0.00,VWS V14.01,2013-06-30 09:50:00,
2013-06-30 05:51:00,74.1,72.3,29.78,South,190,2.0,2.0,94,0.00,,---,0.00,VWS V14.01,2013-06-30 09:51:00,
2013-06-30 05:52:00,74.1,72.3,29.77,West,261,2.0,2.0,94,0.00,,---,0.00,VWS V14.01,2013-06-30 09:52:00,
2013-06-30 05:53:00,74.1,72.3,29.78,WNW,282,3.0,3.0,94,0.00,,---,0.00,VWS V14.01,2013-06-30 09:53:00,
2013-06-30 05:54:00,74.1,72.3,29.78,South,187,0.0,3.0,94,0.00,,---,0.00,VWS V14.01,2013-06-30 09:54:00,
2013-06-30 05:55:00,74.0,72.2,29.78,SSE,155,2.0,2.0,94,0.00,,---,0.00,VWS V14.01,2013-06-30 09:55:00,
2013-06-30 05:56:00,74.0,72.2,29.78,WSW,243,2.0,2.0,94,0.00,,---,0.00,VWS V14.01,2013-06-30 09:56:00,
2013-06-30 05:57:00,74.0,72.2,29.78,West,265,1.0,2.0,94,0.00,,---,0.00,VWS V14.01,2013-06-30 09:57:00,
2013-06-30 05:58:00,74.0,72.2,29.78,West,265,0.0,1.0,94,0.00,,---,0.00,VWS V14.01,2013-06-30 09:58:00,
2013-06-30 05:59:00,74.0,72.2,29.77,SSW,199,0.0,2.0,94,0.00,,---,0.00,VWS V14.01,2013-06-30 09:59:00,
2013-06-30 06:00:00,74.0,72.2,29.77,WSW,238,0.0,1.0,94,0.00,,---,0.00,VWS V14.01,2013-06-30 10:00:00,
2013-06-30 06:01:00,74.0,72.2,29.77,SSW,204,0.0,1.0,94,0.00,,---,0.00,VWS V14.01,2013-06-30 10:01:00,
2013-06-30 06:02:00,74.0,72.5,29.78,SSW,204,0.0,0.0,95,0.00,,---,0.00,VWS V14.01,2013-06-30 10:02:00,
2013-06-30 06:03:00,73.9,72.4,29.78,WSW,254,3.0,3.0,95,0.00,,---,0.00,VWS V14.01,2013-06-30 10:03:00,
2013-06-30 06:04:00,73.9,72.4,29.78,WSW,242,0.0,3.0,95,0.00,,---,0.00,VWS V14.01,2013-06-30 10:04:00,
2013-06-30 06:05:00,73.9,72.4,29.77,ESE,111,2.0,2.0,95,0.00,,---,0.00,VWS V14.01,2013-06-30 10:05:00,
2013-06-30 06:06:00,73.9,72.4,29.77,SSE,160,0.0,2.0,95,0.00,,---,0.00,VWS V14.01,2013-06-30 10:06:00,
2013-06-30 06:07:00,73.9,72.4,29.77,SSW,198,0.0,1.0,95,0.00,,---,0.00,VWS V14.01,2013-06-30 10:07:00,
2013-06-30 06:08:00,73.9,72.4,29.77,SSE,168,0.0,1.0,95,0.00,,---,0.00,VWS V14.01,2013-06-30 10:08:00,
2013-06-30 06:09:00,73.9,72.4,29.77,South,184,1.0,2.0,95,0.00,,---,0.00,VWS V14.01,2013-06-30 10:09:00,
2013-06-30 06:10:00,73.9,72.4,29.78,South,184,0.0,0.0,95,0.00,,---,0.00,VWS V14.01,2013-06-30 10:10:00,
2013-06-30 06:11:00,73.9,72.4,29.78,South,184,0.0,0.0,95,0.00,,---,0.00,VWS V14.01,2013-06-30 10:11:00,
2013-06-30 06:12:00,73.9,72.4,29.78,South,184,1.0,1.0,95,0.00,,---,0.00,VWS V14.01,2013-06-30 10:12:00,
2013-06-30 06:13:00,73.9,72.4,29.77,South,169,0.0,1.0,95,0.00,,---,0.00,VWS V14.01,2013-06-30 10:13:00,
2013-06-30 06:14:00,73.9,72.4,29.77,SSE,149,1.0,3.0,95,0.00,,---,0.00,VWS V14.01,2013-06-30 10:14:00,
2013-06-30 06:15:00,73.9,72.4,29.77,SSW,208,0.0,1.0,95,0.00,,---,0.00,VWS V14.01,2013-06-30 10:15:00,
2013-06-30 06:16:00,73.9,72.4,29.77,SSW,209,0.0,1.0,95,0.00,,---,0.00,VWS V14.01,2013-06-30 10:16:00,
2013-06-30 06:17:00,73.9,72.4,29.77,SSW,195,1.0,1.0,95,0.00,,---,0.00,VWS V14.01,2013-06-30 10:17:00,
2013-06-30 06:18:00,73.9,72.4,29.77,WNW,300,2.0,2.0,95,0.00,,---,0.00,VWS V14.01,2013-06-30 10:18:00,
2013-06-30 06:19:00,73.9,72.4,29.77,West,273,1.0,2.0,95,0.00,,---,0.00,VWS V14.01,2013-06-30 10:19:00,
2013-06-30 06:20:00,73.9,72.4,29.78,WSW,250,0.0,0.0,95,0.00,,---,0.00,VWS V14.01,2013-06-30 10:20:00,
2013-06-30 06:21:00,73.9,72.4,29.78,SW,232,1.0,1.0,95,0.00,,---,0.00,VWS V14.01,2013-06-30 10:21:00,
2013-06-30 06:22:00,73.9,72.4,29.78,SW,232,0.0,1.0,95,0.00,,---,0.00,VWS V14.01,2013-06-30 10:22:00,
2013-06-30 06:23:00,73.9,72.4,29.78,SW,232,0.0,0.0,95,0.00,,---,0.00,VWS V14.01,2013-06-30 10:23:00,
2013-06-30 06:24:00,73.9,72.4,29.77,SW,232,0.0,0.0,95,0.00,,---,0.00,VWS V14.01,2013-06-30 10:24:00,
2013-06-30 06:25:00,73.9,72.4,29.77,SE,128,1.0,1.0,95,0.00,,---,0.00,VWS V14.01,2013-06-30 10:25:00,
2013-06-30 06:26:00,73.9,72.4,29.77,SE,128,0.0,1.0,95,0.00,,---,0.00,VWS V14.01,2013-06-30 10:26:00,
2013-06-30 06:27:00,73.9,72.4,29.77,South,173,1.0,1.0,95,0.00,,---,0.00,VWS V14.01,2013-06-30 10:27:00,
2013-06-30 06:28:00,73.9,72.4,29.77,South,184,0.0,1.0,95,0.00,,---,0.00,VWS V14.01,2013-06-30 10:28:00,
2013-06-30 06:29:00,73.9,72.4,29.78,South,190,0.0,0.0,95,0.00,,---,0.00,VWS V14.01,2013-06-30 10:29:00,
2013-06-30 06:30:00,73.9,72.4,29.78,West,281,0.0,0.0,95,0.00,,---,0.00,VWS V14.01,2013-06-30 10:30:00,
2013-06-30 06:31:00,73.9,72.4,29.78,SW,227,1.0,2.0,95,0.00,,---,0.00,VWS V14.01,2013-06-30 10:31:00,
2013-06-30 06:32:00,73.9,72.4,29.78,WNW,295,1.0,2.0,95,0.00,,---,0.00,VWS V14.01,2013-06-30 10:32:00,
2013-06-30 06:33:00,73.9,72.4,29.78,SSW,210,1.0,3.0,95,0.00,,---,0.00,VWS V14.01,2013-06-30 10:33:00,
2013-06-30 06:34:00,73.9,72.4,29.78,West,267,1.0,2.0,95,0.00,,---,0.00,VWS V14.01,2013-06-30 10:34:00,
2013-06-30 06:35:00,73.9,72.4,29.78,SW,218,1.0,3.0,95,0.00,,---,0.00,VWS V14.01,2013-06-30 10:35:00,
2013-06-30 06:36:00,73.9,72.4,29.78,West,276,1.0,3.0,95,0.00,,---,0.00,VWS V14.01,2013-06-30 10:36:00,
2013-06-30 06:37:00,73.9,72.4,29.78,NNW,327,1.0,2.0,95,0.00,,---,0.00,VWS V14.01,2013-06-30 10:37:00,
2013-06-30 06:38:00,73.9,72.4,29.78,West,267,1.0,1.0,95,0.00,,---,0.00,VWS V14.01,2013-06-30 10:38:00,
2013-06-30 06:39:00,73.9,72.4,29.78,West,267,0.0,1.0,95,0.00,,---,0.00,VWS V14.01,2013-06-30 10:39:00,
2013-06-30 06:40:00,74.0,72.5,29.78,South,171,1.0,2.0,95,0.00,,---,0.00,VWS V14.01,2013-06-30 10:40:00,
2013-06-30 06:41:00,73.9,72.4,29.78,SW,225,2.0,2.0,95,0.00,,---,0.00,VWS V14.01,2013-06-30 10:41:00,
2013-06-30 06:42:00,74.0,72.5,29.78,SW,225,0.0,2.0,95,0.00,,---,0.00,VWS V14.01,2013-06-30 10:42:00,
2013-06-30 06:43:00,74.0,72.5,29.78,WNW,291,0.0,0.0,95,0.00,,---,0.00,VWS V14.01,2013-06-30 10:43:00,
2013-06-30 06:44:00,74.0,72.5,29.78,West,281,1.0,1.0,95,0.00,,---,0.00,VWS V14.01,2013-06-30 10:44:00,
2013-06-30 06:45:00,74.0,72.5,29.78,East,81,0.0,1.0,95,0.00,,---,0.00,VWS V14.01,2013-06-30 10:45:00,
2013-06-30 06:46:00,74.1,72.6,29.78,East,82,0.0,1.0,95,0.00,,---,0.00,VWS V14.01,2013-06-30 10:46:00,
2013-06-30 06:47:00,74.1,72.6,29.78,WNW,288,1.0,2.0,95,0.00,,---,0.00,VWS V14.01,2013-06-30 10:47:00,
2013-06-30 06:48:00,74.1,72.6,29.78,WSW,252,3.0,3.0,95,0.00,,---,0.00,VWS V14.01,2013-06-30 10:48:00,
2013-06-30 06:49:00,74.1,72.6,29.78,SW,229,1.0,3.0,95,0.00,,---,0.00,VWS V14.01,2013-06-30 10:49:00,
2013-06-30 06:50:00,74.1,72.6,29.79,SW,221,1.0,2.0,95,0.00,,---,0.00,VWS V14.01,2013-06-30 10:50:00,
2013-06-30 06:51:00,74.2,72.7,29.79,WSW,248,3.0,3.0,95,0.00,,---,0.00,VWS V14.01,2013-06-30 10:51:00,
2013-06-30 06:52:00,74.2,72.7,29.79,WNW,282,0.0,3.0,95,0.00,,---,0.00,VWS V14.01,2013-06-30 10:52:00,
2013-06-30 06:53:00,74.2,72.7,29.79,WSW,242,1.0,2.0,95,0.00,,---,0.00,VWS V14.01,2013-06-30 10:53:00,
2013-06-30 06:54:00,74.2,72.7,29.79,South,169,0.0,3.0,95,0.00,,---,0.00,VWS V14.01,2013-06-30 10:54:00,
2013-06-30 06:55:00,74.2,72.7,29.79,West,273,0.0,0.0,95,0.00,,---,0.00,VWS V14.01,2013-06-30 10:55:00,
2013-06-30 06:56:00,74.2,72.7,29.79,West,273,0.0,1.0,95,0.00,,---,0.00,VWS V14.01,2013-06-30 10:56:00,
2013-06-30 06:57:00,74.2,72.7,29.79,West,273,2.0,2.0,95,0.00,,---,0.00,VWS V14.01,2013-06-30 10:57:00,
2013-06-30 06:58:00,74.3,72.8,29.79,WSW,248,2.0,4.0,95,0.00,,---,0.00,VWS V14.01,2013-06-30 10:58:00,
2013-06-30 06:59:00,74.2,72.7,29.79,WSW,253,2.0,2.0,95,0.00,,---,0.00,VWS V14.01,2013-06-30 10:59:00,
2013-06-30 07:00:00,74.3,72.8,29.80,SW,217,3.0,3.0,95,0.00,,---,0.00,VWS V14.01,2013-06-30 11:00:00,
2013-06-30 07:01:00,74.3,72.8,29.80,WSW,237,3.0,3.0,95,0.00,,---,0.00,VWS V14.01,2013-06-30 11:01:00,
2013-06-30 07:02:00,74.3,72.8,29.80,WSW,249,2.0,3.0,95,0.00,,---,0.00,VWS V14.01,2013-06-30 11:02:00,
2013-06-30 07:03:00,74.3,72.8,29.80,SSE,160,2.0,4.0,95,0.00,,---,0.00,VWS V14.01,2013-06-30 11:03:00,
2013-06-30 07:04:00,74.3,72.8,29.80,West,264,2.0,3.0,95,0.00,,---,0.00,VWS V14.01,2013-06-30 11:04:00,
2013-06-30 07:05:00,74.3,72.8,29.80,WSW,242,2.0,3.0,95,0.00,,---,0.00,VWS V14.01,2013-06-30 11:05:00,
2013-06-30 07:06:00,74.4,72.9,29.80,West,273,2.0,3.0,95,0.00,,---,0.00,VWS V14.01,2013-06-30 11:06:00,
2013-06-30 07:07:00,74.3,72.8,29.80,WSW,256,1.0,2.0,95,0.00,,---,0.00,VWS V14.01,2013-06-30 11:07:00,
2013-06-30 07:08:00,74.4,72.9,29.80,West,269,2.0,3.0,95,0.00,,---,0.00,VWS V14.01,2013-06-30 11:08:00,
2013-06-30 07:09:00,74.4,72.9,29.80,WSW,241,2.0,3.0,95,0.00,,---,0.00,VWS V14.01,2013-06-30 11:09:00,
2013-06-30 07:10:00,74.4,72.9,29.80,SW,223,1.0,3.0,95,0.00,,---,0.00,VWS V14.01,2013-06-30 11:10:00,
2013-06-30 07:11:00,74.4,72.9,29.80,WSW,256,2.0,3.0,95,0.00,,---,0.00,VWS V14.01,2013-06-30 11:11:00,
2013-06-30 07:12:00,74.4,72.9,29.80,West,275,2.0,2.0,95,0.00,,---,0.00,VWS V14.01,2013-06-30 11:12:00,
2013-06-30 07:13:00,74.4,72.9,29.80,WSW,240,4.0,4.0,95,0.00,,---,0.00,VWS V14.01,2013-06-30 11:13:00,
2013-06-30 07:14:00,74.4,72.9,29.80,WSW,240,1.0,4.0,95,0.00,,---,0.00,VWS V14.01,2013-06-30 11:14:00,
2013-06-30 07:15:00,74.4,72.9,29.81,SW,225,3.0,3.0,95,0.00,,---,0.00,VWS V14.01,2013-06-30 11:15:00,
2013-06-30 07:16:00,74.4,72.9,29.81,SSW,206,1.0,3.0,95,0.00,,---,0.00,VWS V14.01,2013-06-30 11:16:00,
2013-06-30 07:17:00,74.4,72.9,29.81,South,191,3.0,6.0,95,0.00,,---,0.00,VWS V14.01,2013-06-30 11:17:00,
2013-06-30 07:18:00,74.4,72.6,29.81,South,169,2.0,5.0,94,0.00,,---,0.00,VWS V14.01,2013-06-30 11:18:00,
2013-06-30 07:19:00,74.4,72.6,29.81,SSW,205,4.0,4.0,94,0.00,,---,0.00,VWS V14.01,2013-06-30 11:19:00,
2013-06-30 07:20:00,74.5,72.7,29.81,SW,222,2.0,3.0,94,0.00,,---,0.00,VWS V14.01,2013-06-30 11:20:00,
2013-06-30 07:21:00,74.5,72.7,29.81,WSW,242,3.0,4.0,94,0.00,,---,0.00,VWS V14.01,2013-06-30 11:21:00,
2013-06-30 07:22:00,74.5,72.7,29.81,West,261,3.0,3.0,94,0.00,,---,0.00,VWS V14.01,2013-06-30 11:22:00,
2013-06-30 07:23:00,74.5,72.7,29.81,South,171,3.0,4.0,94,0.00,,---,0.00,VWS V14.01,2013-06-30 11:23:00,
2013-06-30 07:24:00,74.5,72.7,29.81,South,176,0.0,3.0,94,0.00,,---,0.00,VWS V14.01,2013-06-30 11:24:00,
2013-06-30 07:25:00,74.5,72.7,29.81,WSW,240,4.0,4.0,94,0.00,,---,0.00,VWS V14.01,2013-06-30 11:25:00,
2013-06-30 07:27:00,74.5,72.7,29.81,South,190,2.0,2.0,94,0.00,,---,0.00,VWS V14.01,2013-06-30 11:27:00,
2013-06-30 07:28:00,74.5,72.7,29.81,SSE,165,0.0,2.0,94,0.00,,---,0.00,VWS V14.01,2013-06-30 11:28:00,
2013-06-30 07:29:00,74.5,72.7,29.81,SSW,202,1.0,1.0,94,0.00,,---,0.00,VWS V14.01,2013-06-30 11:29:00,
2013-06-30 07:30:00,74.6,72.8,29.81,SW,228,2.0,3.0,94,0.00,,---,0.00,VWS V14.01,2013-06-30 11:30:00,
2013-06-30 07:31:00,74.6,72.8,29.81,SSE,150,4.0,4.0,94,0.00,,---,0.00,VWS V14.01,2013-06-30 11:31:00,
2013-06-30 07:32:00,74.6,72.8,29.81,SSW,195,1.0,5.0,94,0.00,,---,0.00,VWS V14.01,2013-06-30 11:32:00,
2013-06-30 07:33:00,74.6,72.8,29.81,WSW,240,3.0,3.0,94,0.00,,---,0.00,VWS V14.01,2013-06-30 11:33:00,
2013-06-30 07:35:00,74.6,72.8,29.81,WSW,240,1.0,1.0,94,0.00,,---,0.00,VWS V14.01,2013-06-30 11:35:00,
2013-06-30 07:36:00,74.6,72.8,29.81,West,268,0.0,1.0,94,0.00,,---,0.00,VWS V14.01,2013-06-30 11:36:00,
2013-06-30 07:37:00,74.6,72.8,29.81,West,268,0.0,0.0,94,0.00,,---,0.00,VWS V14.01,2013-06-30 11:37:00,
2013-06-30 07:38:00,74.7,72.9,29.81,West,268,1.0,1.0,94,0.00,,---,0.00,VWS V14.01,2013-06-30 11:38:00,
2013-06-30 07:40:00,74.7,72.9,29.81,WSW,240,3.0,3.0,94,0.00,,---,0.00,VWS V14.01,2013-06-30 11:40:00,
2013-06-30 07:41:00,74.7,72.9,29.81,SW,221,1.0,3.0,94,0.00,,---,0.00,VWS V14.01,2013-06-30 11:41:00,
2013-06-30 07:42:00,74.8,73.0,29.81,SW,236,1.0,3.0,94,0.00,,---,0.00,VWS V14.01,2013-06-30 11:42:00,
2013-06-30 07:43:00,74.7,72.9,29.81,WSW,250,1.0,2.0,94,0.00,,---,0.00,VWS V14.01,2013-06-30 11:43:00,
2013-06-30 07:44:00,74.8,73.0,29.81,WSW,252,0.0,1.0,94,0.00,,---,0.00,VWS V14.01,2013-06-30 11:44:00,
2013-06-30 07:45:00,74.8,73.0,29.81,SW,229,3.0,3.0,94,0.00,,---,0.00,VWS V14.01,2013-06-30 11:45:00,
2013-06-30 07:46:00,74.8,73.0,29.81,SW,215,3.0,4.0,94,0.00,,---,0.00,VWS V14.01,2013-06-30 11:46:00,
2013-06-30 07:47:00,74.8,73.0,29.81,SSW,202,1.0,3.0,94,0.00,,---,0.00,VWS V14.01,2013-06-30 11:47:00,
2013-06-30 07:48:00,74.8,73.0,29.81,WSW,241,3.0,3.0,94,0.00,,---,0.00,VWS V14.01,2013-06-30 11:48:00,
2013-06-30 07:49:00,74.8,73.0,29.81,SW,232,2.0,4.0,94,0.00,,---,0.00,VWS V14.01,2013-06-30 11:49:00,
2013-06-30 07:50:00,74.8,73.0,29.81,SW,227,1.0,1.0,94,0.00,,---,0.00,VWS V14.01,2013-06-30 11:50:00,
2013-06-30 07:51:00,74.8,73.0,29.81,SW,227,0.0,1.0,94,0.00,,---,0.00,VWS V14.01,2013-06-30 11:51:00,
2013-06-30 07:52:00,74.8,73.0,29.81,WSW,254,3.0,3.0,94,0.00,,---,0.00,VWS V14.01,2013-06-30 11:52:00,
2013-06-30 07:53:00,74.8,73.0,29.81,South,182,0.0,4.0,94,0.00,,---,0.00,VWS V14.01,2013-06-30 11:53:00,
2013-06-30 07:54:00,74.9,73.1,29.81,SW,232,1.0,1.0,94,0.00,,---,0.00,VWS V14.01,2013-06-30 11:54:00,
2013-06-30 07:55:00,74.9,73.1,29.81,WSW,241,4.0,4.0,94,0.00,,---,0.00,VWS V14.01,2013-06-30 11:55:00,
2013-06-30 07:56:00,75.0,73.2,29.81,WSW,253,0.0,4.0,94,0.00,,---,0.00,VWS V14.01,2013-06-30 11:56:00,
2013-06-30 07:57:00,75.0,73.2,29.81,SW,229,2.0,3.0,94,0.00,,---,0.00,VWS V14.01,2013-06-30 11:57:00,
2013-06-30 07:58:00,75.0,73.2,29.81,WSW,238,2.0,4.0,94,0.00,,---,0.00,VWS V14.01,2013-06-30 11:58:00,
2013-06-30 07:59:00,75.1,73.3,29.81,West,261,1.0,2.0,94,0.00,,---,0.00,VWS V14.01,2013-06-30 11:59:00,
2013-06-30 08:00:00,75.1,73.3,29.81,WNW,288,2.0,2.0,94,0.00,,---,0.00,VWS V14.01,2013-06-30 12:00:00,
2013-06-30 08:01:00,75.2,73.4,29.81,WNW,282,1.0,2.0,94,0.00,,---,0.00,VWS V14.01,2013-06-30 12:01:00,
2013-06-30 08:02:00,75.3,73.5,29.81,SW,226,4.0,5.0,94,0.00,,---,0.00,VWS V14.01,2013-06-30 12:02:00,
2013-06-30 08:03:00,75.3,73.5,29.81,WSW,240,2.0,5.0,94,0.00,,---,0.00,VWS V14.01,2013-06-30 12:03:00,
2013-06-30 08:04:00,75.4,73.6,29.81,West,271,1.0,2.0,94,0.00,,---,0.00,VWS V14.01,2013-06-30 12:04:00,
2013-06-30 08:05:00,75.4,73.6,29.81,South,184,5.0,5.0,94,0.00,,---,0.00,VWS V14.01,2013-06-30 12:05:00,
2013-06-30 08:06:00,75.5,73.3,29.81,SSE,153,3.0,5.0,93,0.00,,---,0.00,VWS V14.01,2013-06-30 12:06:00,
2013-06-30 08:07:00,75.5,73.3,29.81,WNW,291,0.0,5.0,93,0.00,,---,0.00,VWS V14.01,2013-06-30 12:07:00,
2013-06-30 08:08:00,75.5,73.3,29.81,SW,219,0.0,0.0,93,0.00,,---,0.00,VWS V14.01,2013-06-30 12:08:00,
2013-06-30 08:09:00,75.6,73.4,29.81,West,275,2.0,2.0,93,0.00,,---,0.00,VWS V14.01,2013-06-30 12:09:00,
2013-06-30 08:10:00,75.7,73.5,29.81,WNW,283,2.0,2.0,93,0.00,,---,0.00,VWS V14.01,2013-06-30 12:10:00,
2013-06-30 08:11:00,75.8,73.6,29.81,West,264,1.0,2.0,93,0.00,,---,0.00,VWS V14.01,2013-06-30 12:11:00,
2013-06-30 08:12:00,75.9,73.7,29.81,West,268,2.0,4.0,93,0.00,,---,0.00,VWS V14.01,2013-06-30 12:12:00,
2013-06-30 08:13:00,75.9,73.7,29.81,SSW,206,4.0,5.0,93,0.00,,---,0.00,VWS V14.01,2013-06-30 12:13:00,
2013-06-30 08:14:00,75.9,73.7,29.81,WSW,258,2.0,4.0,93,0.00,,---,0.00,VWS V14.01,2013-06-30 12:14:00,
2013-06-30 08:15:00,75.9,73.4,29.81,SSE,165,4.0,6.0,92,0.00,,---,0.00,VWS V14.01,2013-06-30 12:15:00,
2013-06-30 08:16:00,75.9,73.4,29.81,SSW,211,2.0,6.0,92,0.00,,---,0.00,VWS V14.01,2013-06-30 12:16:00,
2013-06-30 08:17:00,76.0,73.5,29.81,NE,46,1.0,2.0,92,0.00,,---,0.00,VWS V14.01,2013-06-30 12:17:00,
2013-06-30 08:18:00,76.0,73.5,29.81,SSW,200,5.0,5.0,92,0.00,,---,0.00,VWS V14.01,2013-06-30 12:18:00,
2013-06-30 08:19:00,76.0,73.5,29.81,SW,225,3.0,5.0,92,0.00,,---,0.00,VWS V14.01,2013-06-30 12:19:00,
2013-06-30 08:20:00,76.0,73.5,29.81,South,188,1.0,1.0,92,0.00,,---,0.00,VWS V14.01,2013-06-30 12:20:00,
2013-06-30 08:21:00,76.1,73.6,29.81,South,184,0.0,1.0,92,0.00,,---,0.00,VWS V14.01,2013-06-30 12:21:00,
2013-06-30 08:22:00,76.1,73.6,29.82,SW,229,4.0,4.0,92,0.00,,---,0.00,VWS V14.01,2013-06-30 12:22:00,
2013-06-30 08:23:00,76.2,73.7,29.82,West,279,5.0,7.0,92,0.00,,---,0.00,VWS V14.01,2013-06-30 12:23:00,
2013-06-30 08:24:00,76.1,73.6,29.82,SW,219,4.0,6.0,92,0.00,,---,0.00,VWS V14.01,2013-06-30 12:24:00,
2013-06-30 08:25:00,76.1,73.6,29.82,WSW,249,3.0,3.0,92,0.00,,---,0.00,VWS V14.01,2013-06-30 12:25:00,
2013-06-30 08:26:00,76.1,73.6,29.82,West,281,2.0,4.0,92,0.00,,---,0.00,VWS V14.01,2013-06-30 12:26:00,
2013-06-30 08:27:00,76.1,73.6,29.82,West,269,1.0,3.0,92,0.00,,---,0.00,VWS V14.01,2013-06-30 12:27:00,
2013-06-30 08:28:00,76.1,73.6,29.82,SSW,208,2.0,3.0,92,0.00,,---,0.00,VWS V14.01,2013-06-30 12:28:00,
2013-06-30 08:29:00,76.1,73.6,29.82,SSW,195,2.0,3.0,92,0.00,,---,0.00,VWS V14.01,2013-06-30 12:29:00,
2013-06-30 08:30:00,76.1,73.6,29.82,West,267,2.0,2.0,92,0.00,,---,0.00,VWS V14.01,2013-06-30 12:30:00,
2013-06-30 08:31:00,76.2,73.7,29.82,SW,225,1.0,3.0,92,0.00,,---,0.00,VWS V14.01,2013-06-30 12:31:00,
2013-06-30 08:32:00,76.2,73.7,29.82,SW,216,1.0,3.0,92,0.00,,---,0.00,VWS V14.01,2013-06-30 12:32:00,
2013-06-30 08:33:00,76.2,73.7,29.82,WNW,282,5.0,7.0,92,0.00,,---,0.00,VWS V14.01,2013-06-30 12:33:00,
2013-06-30 08:34:00,76.2,73.4,29.82,WSW,238,4.0,5.0,91,0.00,,---,0.00,VWS V14.01,2013-06-30 12:34:00,
2013-06-30 08:35:00,76.2,73.4,29.82,ESE,121,1.0,2.0,91,0.00,,---,0.00,VWS V14.01,2013-06-30 12:35:00,
2013-06-30 08:36:00,76.2,73.4,29.82,SSW,210,3.0,6.0,91,0.00,,---,0.00,VWS V14.01,2013-06-30 12:36:00,
2013-06-30 08:37:00,76.2,73.4,29.82,SSW,206,5.0,5.0,91,0.00,,---,0.00,VWS V14.01,2013-06-30 12:37:00,
2013-06-30 08:38:00,76.2,73.4,29.82,SW,218,4.0,7.0,91,0.00,,---,0.00,VWS V14.01,2013-06-30 12:38:00,
2013-06-30 08:39:00,76.2,73.4,29.82,SW,232,3.0,7.0,91,0.00,,---,0.00,VWS V14.01,2013-06-30 12:39:00,
2013-06-30 08:40:00,76.3,73.8,29.82,WSW,244,3.0,4.0,92,0.00,,---,0.00,VWS V14.01,2013-06-30 12:40:00,
2013-06-30 08:41:00,76.3,73.5,29.82,SW,232,2.0,4.0,91,0.00,,---,0.00,VWS V14.01,2013-06-30 12:41:00,
2013-06-30 08:42:00,76.4,73.9,29.82,SSW,196,5.0,10.0,92,0.00,,---,0.00,VWS V14.01,2013-06-30 12:42:00,
2013-06-30 08:43:00,76.4,73.6,29.82,WSW,245,8.0,8.0,91,0.00,,---,0.00,VWS V14.01,2013-06-30 12:43:00,
2013-06-30 08:44:00,76.4,73.6,29.82,SW,215,2.0,8.0,91,0.00,,---,0.00,VWS V14.01,2013-06-30 12:44:00,
2013-06-30 08:45:00,76.5,73.7,29.82,SSW,206,1.0,3.0,91,0.00,,---,0.00,VWS V14.01,2013-06-30 12:45:00,
2013-06-30 08:46:00,76.6,73.8,29.82,SW,229,6.0,6.0,91,0.00,,---,0.00,VWS V14.01,2013-06-30 12:46:00,
2013-06-30 08:47:00,76.7,73.6,29.82,SSW,213,5.0,6.0,90,0.00,,---,0.00,VWS V14.01,2013-06-30 12:47:00,
2013-06-30 08:48:00,76.8,73.7,29.82,SSW,206,6.0,6.0,90,0.00,,---,0.00,VWS V14.01,2013-06-30 12:48:00,
2013-06-30 08:49:00,76.9,74.1,29.82,ESE,117,5.0,6.0,91,0.00,,---,0.00,VWS V14.01,2013-06-30 12:49:00,
2013-06-30 08:50:00,77.0,73.8,29.82,SW,218,2.0,4.0,90,0.00,,---,0.00,VWS V14.01,2013-06-30 12:50:00,
2013-06-30 08:51:00,77.0,73.8,29.82,SSE,148,2.0,5.0,90,0.00,,---,0.00,VWS V14.01,2013-06-30 12:51:00,
2013-06-30 08:52:00,77.1,73.9,29.81,SSW,205,1.0,3.0,90,0.00,,---,0.00,VWS V14.01,2013-06-30 12:52:00,
2013-06-30 08:53:00,77.1,73.6,29.82,SSW,205,5.0,5.0,89,0.00,,---,0.00,VWS V14.01,2013-06-30 12:53:00,
2013-06-30 08:54:00,77.2,73.7,29.82,WSW,252,2.0,5.0,89,0.00,,---,0.00,VWS V14.01,2013-06-30 12:54:00,
2013-06-30 08:55:00,77.1,73.6,29.81,SSW,204,2.0,3.0,89,0.00,,---,0.00,VWS V14.01,2013-06-30 12:55:00,
2013-06-30 08:56:00,77.2,73.7,29.81,East,94,2.0,3.0,89,0.00,,---,0.00,VWS V14.01,2013-06-30 12:56:00,
2013-06-30 08:57:00,77.2,73.7,29.81,SSE,162,1.0,4.0,89,0.00,,---,0.00,VWS V14.01,2013-06-30 12:57:00,
2013-06-30 08:58:00,77.2,73.7,29.81,WSW,244,1.0,5.0,89,0.00,,---,0.00,VWS V14.01,2013-06-30 12:58:00,
2013-06-30 08:59:00,77.2,73.7,29.81,SSW,212,1.0,2.0,89,0.00,,---,0.00,VWS V14.01,2013-06-30 12:59:00,
2013-06-30 09:00:00,77.2,73.7,29.81,SW,226,2.0,2.0,89,0.00,,---,0.00,VWS V14.01,2013-06-30 13:00:00,
2013-06-30 09:01:00,77.2,73.7,29.81,SSE,150,4.0,4.0,89,0.00,,---,0.00,VWS V14.01,2013-06-30 13:01:00,
2013-06-30 09:02:00,77.2,73.4,29.81,South,191,3.0,4.0,88,0.00,,---,0.00,VWS V14.01,2013-06-30 13:02:00,
2013-06-30 09:03:00,77.3,73.8,29.81,SSW,195,2.0,5.0,89,0.00,,---,0.00,VWS V14.01,2013-06-30 13:03:00,
2013-06-30 09:04:00,77.3,73.8,29.81,SW,219,3.0,5.0,89,0.00,,---,0.00,VWS V14.01,2013-06-30 13:04:00,
2013-06-30 09:05:00,77.3,73.8,29.81,WSW,238,1.0,5.0,89,0.00,,---,0.00,VWS V14.01,2013-06-30 13:05:00,
2013-06-30 09:06:00,77.3,73.8,29.81,West,271,3.0,3.0,89,0.00,,---,0.00,VWS V14.01,2013-06-30 13:06:00,
2013-06-30 09:07:00,77.3,73.8,29.81,West,268,4.0,5.0,89,0.00,,---,0.00,VWS V14.01,2013-06-30 13:07:00,
2013-06-30 09:08:00,77.3,73.8,29.81,NNW,340,2.0,6.0,89,0.00,,---,0.00,VWS V14.01,2013-06-30 13:08:00,
2013-06-30 09:09:00,77.4,73.9,29.81,West,263,4.0,5.0,89,0.00,,---,0.00,VWS V14.01,2013-06-30 13:09:00,
2013-06-30 09:10:00,77.3,73.5,29.81,SW,227,1.0,5.0,88,0.00,,---,0.00,VWS V14.01,2013-06-30 13:10:00,
2013-06-30 09:11:00,77.3,73.5,29.82,WSW,257,3.0,6.0,88,0.00,,---,0.00,VWS V14.01,2013-06-30 13:11:00,
2013-06-30 09:12:00,77.3,73.8,29.82,SSW,205,4.0,9.0,89,0.00,,---,0.00,VWS V14.01,2013-06-30 13:12:00,
2013-06-30 09:13:00,77.3,73.5,29.82,SSW,207,2.0,4.0,88,0.00,,---,0.00,VWS V14.01,2013-06-30 13:13:00,
2013-06-30 09:14:00,77.3,73.5,29.82,WNW,284,2.0,4.0,88,0.00,,---,0.00,VWS V14.01,2013-06-30 13:14:00,
2013-06-30 09:15:00,77.3,73.5,29.82,WNW,300,3.0,6.0,88,0.00,,---,0.00,VWS V14.01,2013-06-30 13:15:00,
2013-06-30 09:16:00,77.3,73.5,29.82,SW,223,1.0,3.0,88,0.00,,---,0.00,VWS V14.01,2013-06-30 13:16:00,
2013-06-30 09:17:00,77.4,73.6,29.82,South,172,1.0,1.0,88,0.00,,---,0.00,VWS V14.01,2013-06-30 13:17:00,
2013-06-30 09:18:00,77.4,73.9,29.82,NW,318,2.0,2.0,89,0.00,,---,0.00,VWS V14.01,2013-06-30 13:18:00,
2013-06-30 09:19:00,77.4,73.6,29.82,WSW,244,2.0,3.0,88,0.00,,---,0.00,VWS V14.01,2013-06-30 13:19:00,
2013-06-30 09:20:00,77.5,73.7,29.82,SSW,209,4.0,4.0,88,0.00,,---,0.00,VWS V14.01,2013-06-30 13:20:00,
2013-06-30 09:21:00,77.5,73.7,29.82,WSW,244,0.0,4.0,88,0.00,,---,0.00,VWS V14.01,2013-06-30 13:21:00,
2013-06-30 09:22:00,77.5,73.7,29.82,SSE,159,1.0,2.0,88,0.00,,---,0.00,VWS V14.01,2013-06-30 13:22:00,
2013-06-30 09:23:00,77.5,73.7,29.82,WSW,242,4.0,4.0,88,0.00,,---,0.00,VWS V14.01,2013-06-30 13:23:00,
2013-06-30 09:24:00,77.6,73.8,29.82,SE,125,0.0,4.0,88,0.00,,---,0.00,VWS V14.01,2013-06-30 13:24:00,
2013-06-30 09:25:00,77.6,73.8,29.82,SE,126,0.0,0.0,88,0.00,,---,0.00,VWS V14.01,2013-06-30 13:25:00,
2013-06-30 09:26:00,77.7,73.9,29.82,WNW,286,0.0,2.0,88,0.00,,---,0.00,VWS V14.01,2013-06-30 13:26:00,
2013-06-30 09:27:00,77.7,73.9,29.82,SSW,210,2.0,3.0,88,0.00,,---,0.00,VWS V14.01,2013-06-30 13:27:00,
2013-06-30 09:28:00,77.8,74.0,29.82,SW,227,0.0,2.0,88,0.00,,---,0.00,VWS V14.01,2013-06-30 13:28:00,
2013-06-30 09:29:00,77.8,74.0,29.82,South,184,1.0,1.0,88,0.00,,---,0.00,VWS V14.01,2013-06-30 13:29:00,
2013-06-30 09:30:00,77.9,74.1,29.82,South,184,2.0,2.0,88,0.00,,---,0.00,VWS V14.01,2013-06-30 13:30:00,
2013-06-30 09:31:00,77.9,74.1,29.82,WSW,254,1.0,2.0,88,0.00,,---,0.00,VWS V14.01,2013-06-30 13:31:00,
2013-06-30 09:32:00,78.0,74.2,29.82,SSW,206,2.0,2.0,88,0.00,,---,0.00,VWS V14.01,2013-06-30 13:32:00,
2013-06-30 09:33:00,78.0,74.2,29.82,WSW,238,1.0,2.0,88,0.00,,---,0.00,VWS V14.01,2013-06-30 13:33:00,
2013-06-30 09:34:00,78.0,73.8,29.82,South,186,2.0,3.0,87,0.00,,---,0.00,VWS V14.01,2013-06-30 13:34:00,
2013-06-30 09:35:00,78.1,73.9,29.82,SE,143,1.0,2.0,87,0.00,,---,0.00,VWS V14.01,2013-06-30 13:35:00,
2013-06-30 09:36:00,78.1,73.9,29.82,SE,133,3.0,3.0,87,0.00,,---,0.00,VWS V14.01,2013-06-30 13:36:00,
2013-06-30 09:37:00,78.2,74.0,29.82,South,176,2.0,3.0,87,0.00,,---,0.00,VWS V14.01,2013-06-30 13:37:00,
2013-06-30 09:38:00,78.3,74.1,29.82,South,176,3.0,4.0,87,0.00,,---,0.00,VWS V14.01,2013-06-30 13:38:00,
2013-06-30 09:39:00,78.3,74.1,29.82,South,187,2.0,3.0,87,0.00,,---,0.00,VWS V14.01,2013-06-30 13:39:00,
2013-06-30 09:40:00,78.4,74.2,29.82,South,184,5.0,5.0,87,0.00,,---,0.00,VWS V14.01,2013-06-30 13:40:00,
2013-06-30 09:41:00,78.5,74.3,29.82,SW,218,1.0,5.0,87,0.00,,---,0.00,VWS V14.01,2013-06-30 13:41:00,
2013-06-30 09:42:00,78.6,74.4,29.82,WSW,241,3.0,4.0,87,0.00,,---,0.00,VWS V14.01,2013-06-30 13:42:00,
2013-06-30 09:43:00,78.7,74.5,29.82,WSW,245,1.0,3.0,87,0.00,,---,0.00,VWS V14.01,2013-06-30 13:43:00,
2013-06-30 09:44:00,78.9,74.7,29.82,SSE,164,2.0,3.0,87,0.00,,---,0.00,VWS V14.01,2013-06-30 13:44:00,
2013-06-30 09:45:00,79.0,74.5,29.82,WSW,242,3.0,4.0,86,0.00,,---,0.00,VWS V14.01,2013-06-30 13:45:00,
2013-06-30 09:46:00,79.0,74.5,29.82,West,263,1.0,5.0,86,0.00,,---,0.00,VWS V14.01,2013-06-30 13:46:00,
2013-06-30 09:47:00,79.0,74.5,29.82,West,267,1.0,3.0,86,0.00,,---,0.00,VWS V14.01,2013-06-30 13:47:00,
2013-06-30 09:48:00,79.0,74.5,29.82,SW,227,2.0,4.0,86,0.00,,---,0.00,VWS V14.01,2013-06-30 13:48:00,
2013-06-30 09:49:00,78.9,74.4,29.82,SSE,147,1.0,3.0,86,0.00,,---,0.00,VWS V14.01,2013-06-30 13:49:00,
2013-06-30 09:50:00,78.8,74.3,29.82,SSW,206,2.0,4.0,86,0.00,,---,0.00,VWS V14.01,2013-06-30 13:50:00,
2013-06-30 09:51:00,78.8,74.3,29.82,SSW,203,0.0,3.0,86,0.00,,---,0.00,VWS V14.01,2013-06-30 13:51:00,
2013-06-30 09:52:00,78.8,74.3,29.82,WSW,246,1.0,2.0,86,0.00,,---,0.00,VWS V14.01,2013-06-30 13:52:00,
2013-06-30 09:53:00,78.8,74.3,29.82,SSW,208,2.0,5.0,86,0.00,,---,0.00,VWS V14.01,2013-06-30 13:53:00,
2013-06-30 09:54:00,78.8,74.3,29.82,South,169,4.0,6.0,86,0.00,,---,0.00,VWS V14.01,2013-06-30 13:54:00,
2013-06-30 09:55:00,78.7,74.2,29.82,SE,135,3.0,4.0,86,0.00,,---,0.00,VWS V14.01,2013-06-30 13:55:00,
2013-06-30 09:56:00,78.7,74.2,29.82,WSW,244,3.0,4.0,86,0.00,,---,0.00,VWS V14.01,2013-06-30 13:56:00,
2013-06-30 09:57:00,78.7,74.2,29.82,WSW,237,1.0,3.0,86,0.00,,---,0.00,VWS V14.01,2013-06-30 13:57:00,
2013-06-30 09:58:00,78.7,74.2,29.82,SW,232,2.0,4.0,86,0.00,,---,0.00,VWS V14.01,2013-06-30 13:58:00,
2013-06-30 09:59:00,78.7,74.2,29.82,West,260,0.0,2.0,86,0.00,,---,0.00,VWS V14.01,2013-06-30 13:59:00,
2013-06-30 10:00:00,78.7,74.2,29.82,West,262,1.0,2.0,86,0.00,,---,0.00,VWS V14.01,2013-06-30 14:00:00,
2013-06-30 10:01:00,78.8,74.3,29.82,SSE,151,2.0,4.0,86,0.00,,---,0.00,VWS V14.01,2013-06-30 14:01:00,
2013-06-30 10:02:00,78.8,74.3,29.82,West,260,2.0,7.0,86,0.00,,---,0.00,VWS V14.01,2013-06-30 14:02:00,
2013-06-30 10:03:00,78.8,74.3,29.82,SE,146,1.0,2.0,86,0.00,,---,0.00,VWS V14.01,2013-06-30 14:03:00,
2013-06-30 10:04:00,78.9,74.4,29.82,South,188,3.0,7.0,86,0.00,,---,0.00,VWS V14.01,2013-06-30 14:04:00,
2013-06-30 10:05:00,79.0,74.5,29.82,SSW,197,3.0,5.0,86,0.00,,---,0.00,VWS V14.01,2013-06-30 14:05:00,
2013-06-30 10:06:00,79.0,74.1,29.82,SSW,209,3.0,4.0,85,0.00,,---,0.00,VWS V14.01,2013-06-30 14:06:00,
2013-06-30 10:07:00,79.1,74.2,29.82,South,175,3.0,4.0,85,0.00,,---,0.00,VWS V14.01,2013-06-30 14:07:00,
2013-06-30 10:08:00,79.2,74.3,29.82,WSW,257,2.0,3.0,85,0.00,,---,0.00,VWS V14.01,2013-06-30 14:08:00,
2013-06-30 10:09:00,79.3,74.4,29.82,WNW,299,3.0,5.0,85,0.00,,---,0.00,VWS V14.01,2013-06-30 14:09:00,
2013-06-30 10:10:00,79.3,74.1,29.81,SW,232,6.0,6.0,84,0.00,,---,0.00,VWS V14.01,2013-06-30 14:10:00,
2013-06-30 10:11:00,79.3,74.1,29.81,WNW,287,1.0,4.0,84,0.00,,---,0.00,VWS V14.01,2013-06-30 14:11:00,
2013-06-30 10:12:00,79.3,74.4,29.82,WSW,245,1.0,4.0,85,0.00,,---,0.00,VWS V14.01,2013-06-30 14:12:00,
2013-06-30 10:13:00,79.3,74.4,29.82,West,272,1.0,3.0,85,0.00,,---,0.00,VWS V14.01,2013-06-30 14:13:00,
2013-06-30 10:14:00,79.5,74.6,29.81,SW,223,0.0,0.0,85,0.00,,---,0.00,VWS V14.01,2013-06-30 14:14:00,
2013-06-30 10:15:00,79.5,74.6,29.81,SW,223,0.0,0.0,85,0.00,,---,0.00,VWS V14.01,2013-06-30 14:15:00,
2013-06-30 10:16:00,79.7,74.8,29.81,ESE,112,3.0,3.0,85,0.00,,---,0.00,VWS V14.01,2013-06-30 14:16:00,
2013-06-30 10:17:00,79.9,75.0,29.81,WSW,252,5.0,5.0,85,0.00,,---,0.00,VWS V14.01,2013-06-30 14:17:00,
2013-06-30 10:18:00,80.0,74.7,29.81,SSW,207,2.0,5.0,84,0.00,,---,0.00,VWS V14.01,2013-06-30 14:18:00,
2013-06-30 10:19:00,80.1,74.5,29.82,SSE,167,1.0,3.0,83,0.00,,---,0.00,VWS V14.01,2013-06-30 14:19:00,
2013-06-30 10:20:00,80.1,74.5,29.82,SE,136,2.0,3.0,83,0.00,,---,0.00,VWS V14.01,2013-06-30 14:20:00,
2013-06-30 10:21:00,80.2,74.6,29.82,SSW,210,2.0,2.0,83,0.00,,---,0.00,VWS V14.01,2013-06-30 14:21:00,
2013-06-30 10:22:00,80.3,74.7,29.82,SSE,155,1.0,2.0,83,0.00,,---,0.00,VWS V14.01,2013-06-30 14:22:00,
2013-06-30 10:23:00,80.4,74.8,29.82,SW,224,3.0,3.0,83,0.00,,---,0.00,VWS V14.01,2013-06-30 14:23:00,
2013-06-30 10:24:00,80.4,74.8,29.81,SE,145,3.0,3.0,83,0.00,,---,0.00,VWS V14.01,2013-06-30 14:24:00,
2013-06-30 10:25:00,80.4,74.8,29.81,SSW,211,3.0,3.0,83,0.00,,---,0.00,VWS V14.01,2013-06-30 14:25:00,
2013-06-30 10:26:00,80.5,74.9,29.82,ESE,102,2.0,5.0,83,0.00,,---,0.00,VWS V14.01,2013-06-30 14:26:00,
2013-06-30 10:27:00,80.5,74.9,29.82,SE,138,3.0,4.0,83,0.00,,---,0.00,VWS V14.01,2013-06-30 14:27:00,
2013-06-30 10:28:00,80.4,74.8,29.82,SSE,157,3.0,3.0,83,0.00,,---,0.00,VWS V14.01,2013-06-30 14:28:00,
2013-06-30 10:29:00,80.4,74.8,29.82,SSE,165,2.0,2.0,83,0.00,,---,0.00,VWS V14.01,2013-06-30 14:29:00,
2013-06-30 10:30:00,80.4,74.8,29.82,South,184,2.0,2.0,83,0.00,,---,0.00,VWS V14.01,2013-06-30 14:30:00,
2013-06-30 10:31:00,80.4,74.8,29.82,South,174,0.0,3.0,83,0.00,,---,0.00,VWS V14.01,2013-06-30 14:31:00,
2013-06-30 10:32:00,80.4,74.8,29.82,West,277,1.0,1.0,83,0.00,,---,0.00,VWS V14.01,2013-06-30 14:32:00,
2013-06-30 10:33:00,80.5,74.9,29.82,WSW,248,3.0,3.0,83,0.00,,---,0.00,VWS V14.01,2013-06-30 14:33:00,
2013-06-30 10:34:00,80.4,74.8,29.82,West,269,2.0,6.0,83,0.00,,---,0.00,VWS V14.01,2013-06-30 14:34:00,
2013-06-30 10:35:00,80.3,74.3,29.82,SW,219,4.0,6.0,82,0.00,,---,0.00,VWS V14.01,2013-06-30 14:35:00,
2013-06-30 10:36:00,80.3,74.3,29.82,WSW,244,2.0,4.0,82,0.00,,---,0.00,VWS V14.01,2013-06-30 14:36:00,
2013-06-30 10:37:00,80.2,74.6,29.82,West,276,0.0,2.0,83,0.00,,---,0.00,VWS V14.01,2013-06-30 14:37:00,
2013-06-30 10:38:00,80.2,74.6,29.82,West,263,1.0,1.0,83,0.00,,---,0.00,VWS V14.01,2013-06-30 14:38:00,
2013-06-30 10:39:00,80.2,74.6,29.82,North,11,0.0,1.0,83,0.00,,---,0.00,VWS V14.01,2013-06-30 14:39:00,
2013-06-30 10:40:00,80.2,74.6,29.82,WSW,252,1.0,1.0,83,0.00,,---,0.00,VWS V14.01,2013-06-30 14:40:00,
2013-06-30 10:41:00,80.3,75.0,29.82,WSW,252,0.0,1.0,84,0.00,,---,0.00,VWS V14.01,2013-06-30 14:41:00,
2013-06-30 10:42:00,80.4,74.8,29.82,South,190,1.0,2.0,83,0.00,,---,0.00,VWS V14.01,2013-06-30 14:42:00,
2013-06-30 10:43:00,80.5,74.9,29.82,West,263,1.0,4.0,83,0.00,,---,0.00,VWS V14.01,2013-06-30 14:43:00,
2013-06-30 10:44:00,80.5,74.9,29.82,WNW,291,1.0,2.0,83,0.00,,---,0.00,VWS V14.01,2013-06-30 14:44:00,
2013-06-30 10:45:00,80.5,74.9,29.82,South,179,4.0,4.0,83,0.00,,---,0.00,VWS V14.01,2013-06-30 14:45:00,
2013-06-30 10:46:00,80.6,75.0,29.82,SE,144,3.0,4.0,83,0.00,,---,0.00,VWS V14.01,2013-06-30 14:46:00,
2013-06-30 10:47:00,80.6,74.6,29.82,SSE,153,1.0,3.0,82,0.00,,---,0.00,VWS V14.01,2013-06-30 14:47:00,
2013-06-30 10:48:00,80.7,74.7,29.82,WSW,254,0.0,2.0,82,0.00,,---,0.00,VWS V14.01,2013-06-30 14:48:00,
2013-06-30 10:49:00,80.7,74.7,29.82,SSE,163,2.0,2.0,82,0.00,,---,0.00,VWS V14.01,2013-06-30 14:49:00,
2013-06-30 10:50:00,80.7,74.7,29.82,SSE,159,0.0,2.0,82,0.00,,---,0.00,VWS V14.01,2013-06-30 14:50:00,
2013-06-30 10:51:00,80.8,74.8,29.82,SSW,205,4.0,4.0,82,0.00,,---,0.00,VWS V14.01,2013-06-30 14:51:00,
2013-06-30 10:52:00,80.8,74.8,29.82,WSW,253,0.0,4.0,82,0.00,,---,0.00,VWS V14.01,2013-06-30 14:52:00,
2013-06-30 10:53:00,80.8,74.8,29.82,SW,217,2.0,2.0,82,0.00,,---,0.00,VWS V14.01,2013-06-30 14:53:00,
2013-06-30 10:54:00,80.7,74.7,29.82,SW,226,4.0,4.0,82,0.00,,---,0.00,VWS V14.01,2013-06-30 14:54:00,
2013-06-30 10:55:00,80.7,74.7,29.82,SE,136,2.0,4.0,82,0.00,,---,0.00,VWS V14.01,2013-06-30 14:55:00,
2013-06-30 10:56:00,80.6,74.6,29.82,WSW,237,1.0,4.0,82,0.00,,---,0.00,VWS V14.01,2013-06-30 14:56:00,
2013-06-30 10:57:00,80.5,74.5,29.82,West,266,0.0,2.0,82,0.00,,---,0.00,VWS V14.01,2013-06-30 14:57:00,
2013-06-30 10:58:00,80.5,74.5,29.82,SSW,213,2.0,2.0,82,0.00,,---,0.00,VWS V14.01,2013-06-30 14:58:00,
2013-06-30 10:59:00,80.5,74.5,29.82,ESE,108,0.0,3.0,82,0.00,,---,0.00,VWS V14.01,2013-06-30 14:59:00,
2013-06-30 11:00:00,80.6,74.6,29.82,East,90,0.0,3.0,82,0.00,,---,0.00,VWS V14.01,2013-06-30 15:00:00,
2013-06-30 11:01:00,80.6,74.6,29.82,SSW,198,3.0,3.0,82,0.00,,---,0.00,VWS V14.01,2013-06-30 15:01:00,
2013-06-30 11:02:00,80.6,74.2,29.82,SSW,196,3.0,4.0,81,0.00,,---,0.00,VWS V14.01,2013-06-30 15:02:00,
2013-06-30 11:03:00,80.6,74.2,29.82,WSW,248,1.0,3.0,81,0.00,,---,0.00,VWS V14.01,2013-06-30 15:03:00,
2013-06-30 11:04:00,80.6,74.6,29.82,West,276,2.0,2.0,82,0.00,,---,0.00,VWS V14.01,2013-06-30 15:04:00,
2013-06-30 11:05:00,80.7,74.7,29.82,West,261,4.0,4.0,82,0.00,,---,0.00,VWS V14.01,2013-06-30 15:05:00,
2013-06-30 11:06:00,80.7,74.7,29.82,SSW,196,3.0,4.0,82,0.00,,---,0.00,VWS V14.01,2013-06-30 15:06:00,
2013-06-30 11:07:00,80.7,74.7,29.82,SSE,148,0.0,3.0,82,0.00,,---,0.00,VWS V14.01,2013-06-30 15:07:00,
2013-06-30 11:08:00,80.7,74.7,29.82,East,90,1.0,1.0,82,0.00,,---,0.00,VWS V14.01,2013-06-30 15:08:00,
2013-06-30 11:09:00,80.8,74.4,29.82,SE,128,2.0,5.0,81,0.00,,---,0.00,VWS V14.01,2013-06-30 15:09:00,
2013-06-30 11:10:00,80.8,74.4,29.82,ESE,105,3.0,5.0,81,0.00,,---,0.00,VWS V14.01,2013-06-30 15:10:00,
2013-06-30 11:11:00,80.9,74.5,29.82,SSW,207,4.0,4.0,81,0.00,,---,0.00,VWS V14.01,2013-06-30 15:11:00,
2013-06-30 11:12:00,81.0,74.6,29.82,WSW,239,0.0,4.0,81,0.00,,---,0.00,VWS V14.01,2013-06-30 15:12:00,
2013-06-30 11:13:00,81.0,74.6,29.82,SSE,155,2.0,4.0,81,0.00,,---,0.00,VWS V14.01,2013-06-30 15:13:00,
2013-06-30 11:14:00,81.2,74.8,29.82,West,279,4.0,4.0,81,0.00,,---,0.00,VWS V14.01,2013-06-30 15:14:00,
2013-06-30 11:15:00,81.3,74.9,29.82,SSW,209,2.0,4.0,81,0.00,,---,0.00,VWS V14.01,2013-06-30 15:15:00,
2013-06-30 11:16:00,81.3,74.2,29.82,WSW,250,2.0,3.0,79,0.00,,---,0.00,VWS V14.01,2013-06-30 15:16:00,
2013-06-30 11:17:00,81.3,74.2,29.82,West,272,2.0,3.0,79,0.00,,---,0.00,VWS V14.01,2013-06-30 15:17:00,
2013-06-30 11:18:00,81.2,74.4,29.82,WSW,256,3.0,4.0,80,0.00,,---,0.00,VWS V14.01,2013-06-30 15:18:00,
2013-06-30 11:19:00,81.1,74.7,29.82,SW,236,0.0,0.0,81,0.00,,---,0.00,VWS V14.01,2013-06-30 15:19:00,
2013-06-30 11:20:00,81.1,74.7,29.82,SW,236,0.0,0.0,81,0.00,,---,0.00,VWS V14.01,2013-06-30 15:20:00,
2013-06-30 11:21:00,81.1,74.7,29.82,SSE,162,2.0,2.0,81,0.00,,---,0.00,VWS V14.01,2013-06-30 15:21:00,
2013-06-30 11:22:00,81.2,74.8,29.82,West,279,1.0,2.0,81,0.00,,---,0.00,VWS V14.01,2013-06-30 15:22:00,
2013-06-30 11:23:00,81.3,74.9,29.82,SSE,156,3.0,3.0,81,0.00,,---,0.00,VWS V14.01,2013-06-30 15:23:00,
2013-06-30 11:24:00,81.5,74.7,29.82,SSW,200,2.0,3.0,80,0.00,,---,0.00,VWS V14.01,2013-06-30 15:24:00,
2013-06-30 11:25:00,81.5,74.7,29.82,South,173,2.0,3.0,80,0.00,,---,0.00,VWS V14.01,2013-06-30 15:25:00,
2013-06-30 11:26:00,81.5,74.4,29.82,WSW,244,7.0,7.0,79,0.00,,---,0.00,VWS V14.01,2013-06-30 15:26:00,
2013-06-30 11:27:00,81.4,74.3,29.82,SE,140,0.0,7.0,79,0.00,,---,0.00,VWS V14.01,2013-06-30 15:27:00,
2013-06-30 11:28:00,81.4,74.3,29.82,SE,128,2.0,3.0,79,0.00,,---,0.00,VWS V14.01,2013-06-30 15:28:00,
2013-06-30 11:29:00,81.4,74.6,29.83,SSW,192,0.0,1.0,80,0.00,,---,0.00,VWS V14.01,2013-06-30 15:29:00,
2013-06-30 11:30:00,81.4,74.6,29.83,South,187,0.0,1.0,80,0.00,,---,0.00,VWS V14.01,2013-06-30 15:30:00,
2013-06-30 11:31:00,81.5,74.7,29.82,SSE,163,2.0,3.0,80,0.00,,---,0.00,VWS V14.01,2013-06-30 15:31:00,
2013-06-30 11:32:00,81.6,74.8,29.83,SSW,206,0.0,4.0,80,0.00,,---,0.00,VWS V14.01,2013-06-30 15:32:00,
2013-06-30 11:33:00,81.6,74.8,29.83,WSW,257,0.0,1.0,80,0.00,,---,0.00,VWS V14.01,2013-06-30 15:33:00,
2013-06-30 11:34:00,81.8,74.7,29.83,SSW,196,2.0,5.0,79,0.00,,---,0.00,VWS V14.01,2013-06-30 15:34:00,
2013-06-30 11:35:00,81.8,74.7,29.83,SW,224,3.0,5.0,79,0.00,,---,0.00,VWS V14.01,2013-06-30 15:35:00,
2013-06-30 11:36:00,81.8,75.0,29.83,WSW,244,0.0,3.0,80,0.00,,---,0.00,VWS V14.01,2013-06-30 15:36:00,
2013-06-30 11:37:00,81.8,74.7,29.83,SSW,210,4.0,5.0,79,0.00,,---,0.00,VWS V14.01,2013-06-30 15:37:00,
2013-06-30 11:38:00,81.8,74.7,29.83,WSW,258,2.0,4.0,79,0.00,,---,0.00,VWS V14.01,2013-06-30 15:38:00,
2013-06-30 11:39:00,81.7,74.6,29.83,WSW,252,0.0,1.0,79,0.00,,---,0.00,VWS V14.01,2013-06-30 15:39:00,
2013-06-30 11:40:00,81.7,74.6,29.83,WSW,244,0.0,1.0,79,0.00,,---,0.00,VWS V14.01,2013-06-30 15:40:00,
2013-06-30 11:41:00,81.8,74.7,29.83,SE,138,1.0,3.0,79,0.00,,---,0.00,VWS V14.01,2013-06-30 15:41:00,
2013-06-30 11:42:00,81.8,74.7,29.83,West,261,2.0,5.0,79,0.00,,---,0.00,VWS V14.01,2013-06-30 15:42:00,
2013-06-30 11:43:00,81.8,74.3,29.83,SSE,153,2.0,5.0,78,0.00,,---,0.00,VWS V14.01,2013-06-30 15:43:00,
2013-06-30 11:44:00,81.9,74.8,29.83,SSW,210,1.0,1.0,79,0.00,,---,0.00,VWS V14.01,2013-06-30 15:44:00,
2013-06-30 11:45:00,81.9,74.8,29.83,SE,146,3.0,3.0,79,0.00,,---,0.00,VWS V14.01,2013-06-30 15:45:00,
2013-06-30 11:46:00,82.0,74.8,29.83,South,172,2.0,3.0,79,0.00,,---,0.00,VWS V14.01,2013-06-30 15:46:00,
2013-06-30 11:47:00,82.1,74.9,29.83,WNW,299,1.0,2.0,79,0.00,,---,0.00,VWS V14.01,2013-06-30 15:47:00,
2013-06-30 11:48:00,82.2,75.0,29.83,SSW,213,3.0,5.0,79,0.00,,---,0.00,VWS V14.01,2013-06-30 15:48:00,
2013-06-30 11:49:00,82.2,74.7,29.83,SW,215,6.0,6.0,78,0.00,,---,0.00,VWS V14.01,2013-06-30 15:49:00,
2013-06-30 11:50:00,82.2,74.7,29.83,SSE,148,3.0,6.0,78,0.00,,---,0.00,VWS V14.01,2013-06-30 15:50:00,
2013-06-30 11:51:00,82.2,75.0,29.82,East,101,3.0,3.0,79,0.00,,---,0.00,VWS V14.01,2013-06-30 15:51:00,
2013-06-30 11:52:00,82.3,75.1,29.83,South,188,2.0,3.0,79,0.00,,---,0.00,VWS V14.01,2013-06-30 15:52:00,
2013-06-30 11:53:00,82.5,75.3,29.83,WSW,250,3.0,5.0,79,0.00,,---,0.00,VWS V14.01,2013-06-30 15:53:00,
2013-06-30 11:54:00,82.6,74.7,29.83,East,90,1.0,4.0,77,0.00,,---,0.00,VWS V14.01,2013-06-30 15:54:00,
2013-06-30 11:55:00,82.6,74.7,29.83,East,91,0.0,4.0,77,0.00,,---,0.00,VWS V14.01,2013-06-30 15:55:00,
2013-06-30 11:56:00,82.7,75.2,29.83,South,186,2.0,3.0,78,0.00,,---,0.00,VWS V14.01,2013-06-30 15:56:00,
2013-06-30 11:57:00,82.7,74.8,29.83,SW,223,3.0,4.0,77,0.00,,---,0.00,VWS V14.01,2013-06-30 15:57:00,
2013-06-30 11:58:00,82.7,74.8,29.83,South,178,2.0,3.0,77,0.00,,---,0.00,VWS V14.01,2013-06-30 15:58:00,
2013-06-30 11:59:00,82.6,74.7,29.82,ESE,122,1.0,2.0,77,0.00,,---,0.00,VWS V14.01,2013-06-30 15:59:00,
2013-06-30 12:00:00,82.6,74.7,29.82,South,178,2.0,2.0,77,0.00,,---,0.00,VWS V14.01,2013-06-30 16:00:00,
2013-06-30 12:01:00,82.6,74.7,29.82,SE,145,1.0,2.0,77,0.00,,---,0.00,VWS V14.01,2013-06-30 16:01:00,
2013-06-30 12:02:00,82.7,74.8,29.82,South,171,3.0,5.0,77,0.00,,---,0.00,VWS V14.01,2013-06-30 16:02:00,
2013-06-30 12:03:00,82.6,74.3,29.82,West,279,3.0,7.0,76,0.00,,---,0.00,VWS V14.01,2013-06-30 16:03:00,
2013-06-30 12:04:00,82.5,74.6,29.82,South,184,2.0,4.0,77,0.00,,---,0.00,VWS V14.01,2013-06-30 16:04:00,
2013-06-30 12:05:00,82.5,74.6,29.82,SSE,152,3.0,4.0,77,0.00,,---,0.00,VWS V14.01,2013-06-30 16:05:00,
2013-06-30 12:06:00,82.5,74.6,29.82,East,100,2.0,4.0,77,0.00,,---,0.00,VWS V14.01,2013-06-30 16:06:00,
2013-06-30 12:07:00,82.7,75.2,29.82,South,181,4.0,4.0,78,0.00,,---,0.00,VWS V14.01,2013-06-30 16:07:00,
2013-06-30 12:08:00,82.8,74.9,29.82,SSW,200,3.0,5.0,77,0.00,,---,0.00,VWS V14.01,2013-06-30 16:08:00,
2013-06-30 12:09:00,82.9,74.6,29.82,East,95,3.0,3.0,76,0.00,,---,0.00,VWS V14.01,2013-06-30 16:09:00,
2013-06-30 12:10:00,82.9,74.9,29.82,East,91,5.0,5.0,77,0.00,,---,0.00,VWS V14.01,2013-06-30 16:10:00,
2013-06-30 12:11:00,83.0,74.3,29.82,SW,217,2.0,6.0,75,0.00,,---,0.00,VWS V14.01,2013-06-30 16:11:00,
2013-06-30 12:12:00,83.0,74.3,29.82,ENE,60,4.0,5.0,75,0.00,,---,0.00,VWS V14.01,2013-06-30 16:12:00,
2013-06-30 12:13:00,83.0,74.3,29.82,ENE,75,1.0,5.0,75,0.00,,---,0.00,VWS V14.01,2013-06-30 16:13:00,
2013-06-30 12:14:00,83.0,74.7,29.82,SSE,162,4.0,4.0,76,0.00,,---,0.00,VWS V14.01,2013-06-30 16:14:00,
2013-06-30 12:15:00,83.0,74.7,29.82,SSE,162,2.0,4.0,76,0.00,,---,0.00,VWS V14.01,2013-06-30 16:15:00,
2013-06-30 12:16:00,83.1,74.8,29.82,East,101,7.0,7.0,76,0.00,,---,0.00,VWS V14.01,2013-06-30 16:16:00,
2013-06-30 12:17:00,83.1,74.4,29.82,East,85,6.0,9.0,75,0.00,,---,0.00,VWS V14.01,2013-06-30 16:17:00,
2013-06-30 12:18:00,83.0,74.3,29.82,SW,234,1.0,6.0,75,0.00,,---,0.00,VWS V14.01,2013-06-30 16:18:00,
2013-06-30 12:19:00,83.1,75.2,29.82,ESE,115,2.0,2.0,77,0.00,,---,0.00,VWS V14.01,2013-06-30 16:19:00,
2013-06-30 12:20:00,83.1,75.2,29.82,East,88,2.0,2.0,77,0.00,,---,0.00,VWS V14.01,2013-06-30 16:20:00,
2013-06-30 12:21:00,83.4,75.4,29.82,ENE,70,1.0,2.0,77,0.00,,---,0.00,VWS V14.01,2013-06-30 16:21:00,
2013-06-30 12:22:00,83.7,75.7,29.82,WNW,288,1.0,2.0,77,0.00,,---,0.00,VWS V14.01,2013-06-30 16:22:00,
2013-06-30 12:23:00,84.0,75.6,29.82,ESE,105,3.0,3.0,76,0.00,,---,0.00,VWS V14.01,2013-06-30 16:23:00,
2013-06-30 12:24:00,84.1,75.3,29.82,East,98,3.0,5.0,75,0.00,,---,0.00,VWS V14.01,2013-06-30 16:24:00,
2013-06-30 12:25:00,84.1,75.3,29.82,East,89,5.0,5.0,75,0.00,,---,0.00,VWS V14.01,2013-06-30 16:25:00,
2013-06-30 12:26:00,84.0,75.2,29.82,ESE,113,2.0,5.0,75,0.00,,---,0.00,VWS V14.01,2013-06-30 16:26:00,
2013-06-30 12:27:00,83.8,75.4,29.82,South,187,1.0,4.0,76,0.00,,---,0.00,VWS V14.01,2013-06-30 16:27:00,
2013-06-30 12:28:00,83.7,75.3,29.82,SE,137,1.0,3.0,76,0.00,,---,0.00,VWS V14.01,2013-06-30 16:28:00,
2013-06-30 12:29:00,83.8,75.0,29.82,SW,233,2.0,4.0,75,0.00,,---,0.00,VWS V14.01,2013-06-30 16:29:00,
2013-06-30 12:30:00,83.8,75.0,29.82,SE,140,1.0,4.0,75,0.00,,---,0.00,VWS V14.01,2013-06-30 16:30:00,
2013-06-30 12:31:00,83.9,75.1,29.82,WNW,295,2.0,2.0,75,0.00,,---,0.00,VWS V14.01,2013-06-30 16:31:00,
2013-06-30 12:32:00,84.0,75.2,29.82,West,271,3.0,3.0,75,0.00,,---,0.00,VWS V14.01,2013-06-30 16:32:00,
2013-06-30 12:33:00,84.0,74.8,29.82,NE,36,0.0,3.0,74,0.00,,---,0.00,VWS V14.01,2013-06-30 16:33:00,
2013-06-30 12:34:00,84.0,74.4,29.82,SSE,159,5.0,5.0,73,0.00,,---,0.00,VWS V14.01,2013-06-30 16:34:00,
2013-06-30 12:35:00,83.9,74.3,29.82,SSE,157,3.0,5.0,73,0.00,,---,0.00,VWS V14.01,2013-06-30 16:35:00,
2013-06-30 12:36:00,83.9,74.3,29.82,ESE,102,2.0,4.0,73,0.00,,---,0.00,VWS V14.01,2013-06-30 16:36:00,
2013-06-30 12:37:00,83.8,74.6,29.82,ESE,116,2.0,3.0,74,0.00,,---,0.00,VWS V14.01,2013-06-30 16:37:00,
2013-06-30 12:38:00,83.8,75.0,29.82,ESE,107,1.0,2.0,75,0.00,,---,0.00,VWS V14.01,2013-06-30 16:38:00,
2013-06-30 12:39:00,83.6,74.8,29.82,SE,132,5.0,7.0,75,0.00,,---,0.00,VWS V14.01,2013-06-30 16:39:00,
2013-06-30 12:40:00,83.6,74.4,29.82,ENE,77,5.0,7.0,74,0.00,,---,0.00,VWS V14.01,2013-06-30 16:40:00,
2013-06-30 12:41:00,83.4,74.2,29.82,ESE,113,4.0,6.0,74,0.00,,---,0.00,VWS V14.01,2013-06-30 16:41:00,
2013-06-30 12:42:00,83.1,74.0,29.82,East,90,2.0,7.0,74,0.00,,---,0.00,VWS V14.01,2013-06-30 16:42:00,
2013-06-30 12:43:00,82.9,74.2,29.82,East,100,3.0,6.0,75,0.00,,---,0.00,VWS V14.01,2013-06-30 16:43:00,
2013-06-30 12:44:00,82.7,74.4,29.81,East,92,2.0,2.0,76,0.00,,---,0.00,VWS V14.01,2013-06-30 16:44:00,
2013-06-30 12:45:00,82.7,74.8,29.81,ENE,77,4.0,5.0,77,0.00,,---,0.00,VWS V14.01,2013-06-30 16:45:00,
2013-06-30 12:46:00,82.7,74.4,29.81,East,94,3.0,6.0,76,0.00,,---,0.00,VWS V14.01,2013-06-30 16:46:00,
2013-06-30 12:47:00,82.7,74.4,29.82,East,82,5.0,7.0,76,0.00,,---,0.00,VWS V14.01,2013-06-30 16:47:00,
2013-06-30 12:48:00,82.6,74.3,29.81,ENE,76,3.0,7.0,76,0.00,,---,0.00,VWS V14.01,2013-06-30 16:48:00,
2013-06-30 12:49:00,82.4,74.1,29.81,East,85,7.0,7.0,76,0.00,,---,0.00,VWS V14.01,2013-06-30 16:49:00,
2013-06-30 12:50:00,82.3,74.4,29.81,East,84,5.0,8.0,77,0.00,,---,0.00,VWS V14.01,2013-06-30 16:50:00,
2013-06-30 12:51:00,82.3,74.4,29.81,East,101,6.0,7.0,77,0.00,,---,0.00,VWS V14.01,2013-06-30 16:51:00,
2013-06-30 12:52:00,82.2,74.3,29.81,East,92,2.0,6.0,77,0.00,,---,0.00,VWS V14.01,2013-06-30 16:52:00,
2013-06-30 12:53:00,82.3,74.8,29.81,East,97,3.0,3.0,78,0.00,,---,0.00,VWS V14.01,2013-06-30 16:53:00,
2013-06-30 12:54:00,82.4,74.9,29.81,ENE,58,8.0,8.0,78,0.00,,---,0.00,VWS V14.01,2013-06-30 16:54:00,
2013-06-30 12:55:00,82.4,74.9,29.81,ESE,106,4.0,8.0,78,0.00,,---,0.00,VWS V14.01,2013-06-30 16:55:00,
2013-06-30 12:56:00,82.4,74.5,29.81,East,90,2.0,4.0,77,0.00,,---,0.00,VWS V14.01,2013-06-30 16:56:00,
2013-06-30 12:57:00,82.5,74.6,29.81,SE,131,4.0,4.0,77,0.00,,---,0.00,VWS V14.01,2013-06-30 16:57:00,
2013-06-30 12:58:00,82.6,73.9,29.81,SSE,159,5.0,6.0,75,0.00,,---,0.00,VWS V14.01,2013-06-30 16:58:00,
2013-06-30 12:59:00,82.7,74.0,29.81,SSW,200,1.0,1.0,75,0.00,,---,0.00,VWS V14.01,2013-06-30 16:59:00,
2013-06-30 13:00:00,82.8,74.1,29.81,SSW,203,1.0,1.0,75,0.00,,---,0.00,VWS V14.01,2013-06-30 17:00:00,
2013-06-30 13:01:00,83.1,74.8,29.81,East,81,1.0,1.0,76,0.00,,---,0.00,VWS V14.01,2013-06-30 17:01:00,
2013-06-30 13:02:00,83.3,74.9,29.81,ENE,76,3.0,3.0,76,0.00,,---,0.00,VWS V14.01,2013-06-30 17:02:00,
2013-06-30 13:03:00,83.6,74.8,29.81,ESE,109,3.0,3.0,75,0.00,,---,0.00,VWS V14.01,2013-06-30 17:03:00,
2013-06-30 13:04:00,83.6,74.4,29.81,ESE,114,5.0,7.0,74,0.00,,---,0.00,VWS V14.01,2013-06-30 17:04:00,
2013-06-30 13:05:00,83.5,74.3,29.81,East,98,6.0,7.0,74,0.00,,---,0.00,VWS V14.01,2013-06-30 17:05:00,
2013-06-30 13:06:00,83.3,74.6,29.81,SSE,149,4.0,8.0,75,0.00,,---,0.00,VWS V14.01,2013-06-30 17:06:00,
2013-06-30 13:07:00,83.2,74.5,29.81,ESE,102,4.0,5.0,75,0.00,,---,0.00,VWS V14.01,2013-06-30 17:07:00,
2013-06-30 13:08:00,83.0,74.7,29.81,West,281,1.0,7.0,76,0.00,,---,0.00,VWS V14.01,2013-06-30 17:08:00,
2013-06-30 13:09:00,82.9,74.9,29.81,East,80,1.0,3.0,77,0.00,,---,0.00,VWS V14.01,2013-06-30 17:09:00,
2013-06-30 13:10:00,82.9,74.9,29.81,South,186,6.0,6.0,77,0.00,,---,0.00,VWS V14.01,2013-06-30 17:10:00,
2013-06-30 13:11:00,82.8,74.9,29.81,SE,134,3.0,6.0,77,0.00,,---,0.00,VWS V14.01,2013-06-30 17:11:00,
2013-06-30 13:12:00,82.8,75.2,29.81,East,98,2.0,5.0,78,0.00,,---,0.00,VWS V14.01,2013-06-30 17:12:00,
2013-06-30 13:13:00,82.7,74.8,29.81,ESE,105,3.0,7.0,77,0.00,,---,0.00,VWS V14.01,2013-06-30 17:13:00,
2013-06-30 13:14:00,82.7,74.8,29.81,East,100,2.0,2.0,77,0.00,,---,0.00,VWS V14.01,2013-06-30 17:14:00,
2013-06-30 13:15:00,82.7,75.2,29.81,East,88,3.0,3.0,78,0.00,,---,0.00,VWS V14.01,2013-06-30 17:15:00,
2013-06-30 13:16:00,82.7,74.8,29.81,ENE,74,2.0,3.0,77,0.00,,---,0.00,VWS V14.01,2013-06-30 17:16:00,
2013-06-30 13:17:00,82.7,74.8,29.81,SSE,147,3.0,7.0,77,0.00,,---,0.00,VWS V14.01,2013-06-30 17:17:00,
2013-06-30 13:18:00,82.7,74.4,29.81,East,93,1.0,3.0,76,0.00,,---,0.00,VWS V14.01,2013-06-30 17:18:00,
2013-06-30 13:19:00,82.7,74.4,29.80,SW,233,3.0,4.0,76,0.00,,---,0.00,VWS V14.01,2013-06-30 17:19:00,
2013-06-30 13:20:00,82.7,74.4,29.80,WNW,286,2.0,4.0,76,0.00,,---,0.00,VWS V14.01,2013-06-30 17:20:00,
2013-06-30 13:21:00,82.8,74.5,29.80,East,80,3.0,4.0,76,0.00,,---,0.00,VWS V14.01,2013-06-30 17:21:00,
2013-06-30 13:22:00,82.9,74.6,29.80,ESE,105,7.0,7.0,76,0.00,,---,0.00,VWS V14.01,2013-06-30 17:22:00,
2013-06-30 13:23:00,83.0,74.7,29.80,ESE,107,2.0,7.0,76,0.00,,---,0.00,VWS V14.01,2013-06-30 17:23:00,
2013-06-30 13:24:00,83.2,74.8,29.80,ESE,121,5.0,5.0,76,0.00,,---,0.00,VWS V14.01,2013-06-30 17:24:00,
2013-06-30 13:25:00,83.3,74.9,29.80,SSW,192,6.0,6.0,76,0.00,,---,0.00,VWS V14.01,2013-06-30 17:25:00,
2013-06-30 13:26:00,83.4,74.2,29.80,SSE,157,3.0,8.0,74,0.00,,---,0.00,VWS V14.01,2013-06-30 17:26:00,
2013-06-30 13:27:00,83.6,74.8,29.80,ESE,119,3.0,4.0,75,0.00,,---,0.00,VWS V14.01,2013-06-30 17:27:00,
2013-06-30 13:28:00,83.8,75.4,29.80,East,101,5.0,5.0,76,0.00,,---,0.00,VWS V14.01,2013-06-30 17:28:00,
2013-06-30 13:29:00,84.0,74.8,29.80,SSW,194,4.0,6.0,74,0.00,,---,0.00,VWS V14.01,2013-06-30 17:29:00,
2013-06-30 13:30:00,84.1,74.9,29.80,ESE,105,3.0,14.0,74,0.00,,---,0.00,VWS V14.01,2013-06-30 17:30:00,
2013-06-30 13:31:00,84.2,74.6,29.80,West,265,3.0,9.0,73,0.00,,---,0.00,VWS V14.01,2013-06-30 17:31:00,
2013-06-30 13:32:00,84.3,74.7,29.80,South,191,3.0,8.0,73,0.00,,---,0.00,VWS V14.01,2013-06-30 17:32:00,
2013-06-30 13:33:00,84.3,74.7,29.80,SE,136,4.0,9.0,73,0.00,,---,0.00,VWS V14.01,2013-06-30 17:33:00,
2013-06-30 13:34:00,84.3,74.3,29.80,SE,142,6.0,6.0,72,0.00,,---,0.00,VWS V14.01,2013-06-30 17:34:00,
2013-06-30 13:35:00,84.3,74.3,29.80,South,181,3.0,6.0,72,0.00,,---,0.00,VWS V14.01,2013-06-30 17:35:00,
2013-06-30 13:36:00,84.3,74.7,29.80,East,96,3.0,7.0,73,0.00,,---,0.00,VWS V14.01,2013-06-30 17:36:00,
2013-06-30 13:37:00,84.5,75.3,29.80,SW,226,3.0,3.0,74,0.00,,---,0.00,VWS V14.01,2013-06-30 17:37:00,
2013-06-30 13:38:00,84.7,75.1,29.80,SSW,205,3.0,3.0,73,0.00,,---,0.00,VWS V14.01,2013-06-30 17:38:00,
2013-06-30 13:39:00,84.9,74.9,29.80,SE,125,3.0,4.0,72,0.00,,---,0.00,VWS V14.01,2013-06-30 17:39:00,
2013-06-30 13:40:00,85.0,75.0,29.80,East,88,6.0,6.0,72,0.00,,---,0.00,VWS V14.01,2013-06-30 17:40:00,
2013-06-30 13:41:00,85.1,74.6,29.80,SE,140,6.0,11.0,71,0.00,,---,0.00,VWS V14.01,2013-06-30 17:41:00,
2013-06-30 13:42:00,85.1,75.1,29.80,ESE,106,3.0,7.0,72,0.00,,---,0.00,VWS V14.01,2013-06-30 17:42:00,
2013-06-30 13:43:00,85.2,74.7,29.80,SE,132,5.0,8.0,71,0.00,,---,0.00,VWS V14.01,2013-06-30 17:43:00,
2013-06-30 13:44:00,85.2,74.7,29.80,ESE,115,7.0,7.0,71,0.00,,---,0.00,VWS V14.01,2013-06-30 17:44:00,
2013-06-30 13:45:00,85.2,74.3,29.80,SE,130,4.0,7.0,70,0.00,,---,0.00,VWS V14.01,2013-06-30 17:45:00,
2013-06-30 13:46:00,85.2,73.9,29.80,SSE,162,7.0,7.0,69,0.00,,---,0.00,VWS V14.01,2013-06-30 17:46:00,
2013-06-30 13:47:00,85.2,73.9,29.81,East,96,8.0,8.0,69,0.00,,---,0.00,VWS V14.01,2013-06-30 17:47:00,
2013-06-30 13:48:00,85.1,73.8,29.81,SSE,162,5.0,8.0,69,0.00,,---,0.00,VWS V14.01,2013-06-30 17:48:00,
2013-06-30 13:49:00,85.1,74.2,29.80,ENE,76,5.0,6.0,70,0.00,,---,0.00,VWS V14.01,2013-06-30 17:49:00,
2013-06-30 13:50:00,85.2,74.3,29.80,SSE,168,4.0,6.0,70,0.00,,---,0.00,VWS V14.01,2013-06-30 17:50:00,
2013-06-30 13:51:00,85.2,74.7,29.81,ESE,121,3.0,4.0,71,0.00,,---,0.00,VWS V14.01,2013-06-30 17:51:00,
2013-06-30 13:52:00,85.2,74.7,29.81,ESE,119,2.0,4.0,71,0.00,,---,0.00,VWS V14.01,2013-06-30 17:52:00,
2013-06-30 13:53:00,85.2,74.7,29.81,SE,132,3.0,6.0,71,0.00,,---,0.00,VWS V14.01,2013-06-30 17:53:00,
2013-06-30 13:54:00,85.2,74.7,29.81,ESE,111,3.0,3.0,71,0.00,,---,0.00,VWS V14.01,2013-06-30 17:54:00,
2013-06-30 13:55:00,85.2,74.3,29.81,South,183,1.0,3.0,70,0.00,,---,0.00,VWS V14.01,2013-06-30 17:55:00,
2013-06-30 13:56:00,85.2,74.3,29.81,SSE,159,1.0,1.0,70,0.00,,---,0.00,VWS V14.01,2013-06-30 17:56:00,
2013-06-30 13:57:00,85.3,74.4,29.81,SE,128,2.0,3.0,70,0.00,,---,0.00,VWS V14.01,2013-06-30 17:57:00,
2013-06-30 13:58:00,85.3,74.4,29.81,SSE,163,6.0,7.0,70,0.00,,---,0.00,VWS V14.01,2013-06-30 17:58:00,
2013-06-30 13:59:00,85.2,73.9,29.81,SE,145,4.0,8.0,69,0.00,,---,0.00,VWS V14.01,2013-06-30 17:59:00,
2013-06-30 14:00:00,85.2,73.9,29.81,ESE,106,3.0,8.0,69,0.00,,---,0.00,VWS V14.01,2013-06-30 18:00:00,
2013-06-30 14:01:00,85.1,73.8,29.81,East,86,2.0,4.0,69,0.00,,---,0.00,VWS V14.01,2013-06-30 18:01:00,
2013-06-30 14:02:00,85.1,73.8,29.81,East,86,3.0,7.0,69,0.00,,---,0.00,VWS V14.01,2013-06-30 18:02:00,
2013-06-30 14:03:00,85.0,74.1,29.81,South,190,2.0,4.0,70,0.00,,---,0.00,VWS V14.01,2013-06-30 18:03:00,
2013-06-30 14:04:00,84.8,74.4,29.81,ENE,65,3.0,5.0,71,0.00,,---,0.00,VWS V14.01,2013-06-30 18:04:00,
2013-06-30 14:05:00,84.8,74.4,29.81,East,101,6.0,6.0,71,0.00,,---,0.00,VWS V14.01,2013-06-30 18:05:00,
2013-06-30 14:06:00,84.7,74.7,29.81,NNE,20,4.0,6.0,72,0.00,,---,0.00,VWS V14.01,2013-06-30 18:06:00,
2013-06-30 14:07:00,84.6,73.7,29.81,East,101,3.0,7.0,70,0.00,,---,0.00,VWS V14.01,2013-06-30 18:07:00,
2013-06-30 14:08:00,84.5,74.1,29.81,SE,145,3.0,3.0,71,0.00,,---,0.00,VWS V14.01,2013-06-30 18:08:00,
2013-06-30 14:09:00,84.5,74.1,29.80,East,94,5.0,7.0,71,0.00,,---,0.00,VWS V14.01,2013-06-30 18:09:00,
2013-06-30 14:10:00,84.4,73.6,29.80,ENE,73,4.0,7.0,70,0.00,,---,0.00,VWS V14.01,2013-06-30 18:10:00,
2013-06-30 14:11:00,84.4,73.6,29.80,SE,131,2.0,5.0,70,0.00,,---,0.00,VWS V14.01,2013-06-30 18:11:00,
2013-06-30 14:12:00,84.4,74.0,29.80,ESE,103,3.0,5.0,71,0.00,,---,0.00,VWS V14.01,2013-06-30 18:12:00,
2013-06-30 14:13:00,84.4,74.0,29.80,ESE,119,7.0,9.0,71,0.00,,---,0.00,VWS V14.01,2013-06-30 18:13:00,
2013-06-30 14:14:00,84.5,74.1,29.80,ESE,119,5.0,6.0,71,0.00,,---,0.00,VWS V14.01,2013-06-30 18:14:00,
2013-06-30 14:15:00,84.6,74.2,29.80,East,98,5.0,10.0,71,0.00,,---,0.00,VWS V14.01,2013-06-30 18:15:00,
2013-06-30 14:16:00,84.6,74.2,29.80,SSE,155,6.0,9.0,71,0.00,,---,0.00,VWS V14.01,2013-06-30 18:16:00,
2013-06-30 14:17:00,84.7,73.4,29.80,South,187,4.0,8.0,69,0.00,,---,0.00,VWS V14.01,2013-06-30 18:17:00,
2013-06-30 14:18:00,84.7,73.0,29.80,SSE,159,6.0,11.0,68,0.00,,---,0.00,VWS V14.01,2013-06-30 18:18:00,
2013-06-30 14:19:00,84.8,73.1,29.80,SSE,164,4.0,5.0,68,0.00,,---,0.00,VWS V14.01,2013-06-30 18:19:00,
2013-06-30 14:20:00,84.9,73.6,29.80,SE,134,3.0,6.0,69,0.00,,---,0.00,VWS V14.01,2013-06-30 18:20:00,
2013-06-30 14:21:00,85.0,73.7,29.79,South,170,6.0,7.0,69,0.00,,---,0.00,VWS V14.01,2013-06-30 18:21:00,
2013-06-30 14:22:00,85.0,73.3,29.79,SSW,206,5.0,9.0,68,0.00,,---,0.00,VWS V14.01,2013-06-30 18:22:00,
2013-06-30 14:23:00,85.0,73.7,29.79,SSE,167,4.0,6.0,69,0.00,,---,0.00,VWS V14.01,2013-06-30 18:23:00,
2013-06-30 14:24:00,85.1,73.8,29.79,South,180,3.0,8.0,69,0.00,,---,0.00,VWS V14.01,2013-06-30 18:24:00,
2013-06-30 14:25:00,85.1,73.8,29.79,South,179,4.0,8.0,69,0.00,,---,0.00,VWS V14.01,2013-06-30 18:25:00,
2013-06-30 14:26:00,85.2,73.9,29.79,South,188,4.0,4.0,69,0.00,,---,0.00,VWS V14.01,2013-06-30 18:26:00,
2013-06-30 14:27:00,85.3,74.0,29.79,SE,144,4.0,11.0,69,0.00,,---,0.00,VWS V14.01,2013-06-30 18:27:00,
2013-06-30 14:28:00,85.4,74.5,29.79,SSW,206,2.0,7.0,70,0.00,,---,0.00,VWS V14.01,2013-06-30 18:28:00,
2013-06-30 14:29:00,85.6,74.7,29.79,ESE,121,8.0,8.0,70,0.00,,---,0.00,VWS V14.01,2013-06-30 18:29:00,
2013-06-30 14:30:00,85.6,74.7,29.79,SE,141,3.0,8.0,70,0.00,,---,0.00,VWS V14.01,2013-06-30 18:30:00,
2013-06-30 14:31:00,85.7,75.2,29.79,SSE,164,6.0,6.0,71,0.00,,---,0.00,VWS V14.01,2013-06-30 18:31:00,
2013-06-30 14:32:00,85.9,75.4,29.79,East,91,11.0,11.0,71,0.00,,---,0.00,VWS V14.01,2013-06-30 18:32:00,
2013-06-30 14:33:00,85.8,75.3,29.79,SE,136,5.0,11.0,71,0.00,,---,0.00,VWS V14.01,2013-06-30 18:33:00,
2013-06-30 14:34:00,85.7,74.8,29.79,East,80,6.0,7.0,70,0.00,,---,0.00,VWS V14.01,2013-06-30 18:34:00,
2013-06-30 14:35:00,85.6,74.7,29.79,East,83,9.0,9.0,70,0.00,,---,0.00,VWS V14.01,2013-06-30 18:35:00,
2013-06-30 14:36:00,85.5,75.0,29.79,ENE,76,8.0,13.0,71,0.00,,---,0.00,VWS V14.01,2013-06-30 18:36:00,
2013-06-30 14:37:00,85.4,74.9,29.79,East,82,6.0,8.0,71,0.00,,---,0.00,VWS V14.01,2013-06-30 18:37:00,
2013-06-30 14:38:00,85.3,75.2,29.79,ESE,111,10.0,10.0,72,0.00,,---,0.00,VWS V14.01,2013-06-30 18:38:00,
2013-06-30 14:39:00,85.1,74.6,29.79,East,80,7.0,12.0,71,0.00,,---,0.00,VWS V14.01,2013-06-30 18:39:00,
2013-06-30 14:40:00,84.9,74.4,29.79,East,90,10.0,13.0,71,0.00,,---,0.00,VWS V14.01,2013-06-30 18:40:00,
2013-06-30 14:41:00,84.7,74.3,29.79,ESE,105,4.0,15.0,71,0.00,,---,0.00,VWS V14.01,2013-06-30 18:41:00,
2013-06-30 14:42:00,84.6,74.6,29.79,ESE,115,13.0,14.0,72,0.00,,---,0.00,VWS V14.01,2013-06-30 18:42:00,
2013-06-30 14:43:00,84.4,74.4,29.79,South,176,5.0,13.0,72,0.00,,---,0.00,VWS V14.01,2013-06-30 18:43:00,
2013-06-30 14:44:00,84.1,73.7,29.79,East,93,5.0,5.0,71,0.00,,---,0.00,VWS V14.01,2013-06-30 18:44:00,
2013-06-30 14:45:00,84.0,74.0,29.79,East,84,9.0,13.0,72,0.00,,---,0.00,VWS V14.01,2013-06-30 18:45:00,
2013-06-30 14:46:00,83.9,73.9,29.79,SE,136,4.0,9.0,72,0.00,,---,0.00,VWS V14.01,2013-06-30 18:46:00,
2013-06-30 14:47:00,83.8,74.2,29.79,SE,143,1.0,5.0,73,0.00,,---,0.00,VWS V14.01,2013-06-30 18:47:00,
2013-06-30 14:48:00,83.8,74.2,29.79,ESE,102,3.0,5.0,73,0.00,,---,0.00,VWS V14.01,2013-06-30 18:48:00,
2013-06-30 14:49:00,83.9,74.7,29.79,South,190,4.0,4.0,74,0.00,,---,0.00,VWS V14.01,2013-06-30 18:49:00,
2013-06-30 14:50:00,83.9,74.3,29.79,SSE,164,5.0,7.0,73,0.00,,---,0.00,VWS V14.01,2013-06-30 18:50:00,
2013-06-30 14:51:00,83.9,74.3,29.79,ESE,123,3.0,8.0,73,0.00,,---,0.00,VWS V14.01,2013-06-30 18:51:00,
2013-06-30 14:52:00,84.0,74.4,29.79,ESE,122,10.0,10.0,73,0.00,,---,0.00,VWS V14.01,2013-06-30 18:52:00,
2013-06-30 14:53:00,84.0,74.4,29.79,SSE,162,10.0,10.0,73,0.00,,---,0.00,VWS V14.01,2013-06-30 18:53:00,
2013-06-30 14:54:00,84.0,74.4,29.79,SE,130,3.0,3.0,73,0.00,,---,0.00,VWS V14.01,2013-06-30 18:54:00,
2013-06-30 14:55:00,84.0,74.4,29.79,ESE,117,2.0,4.0,73,0.00,,---,0.00,VWS V14.01,2013-06-30 18:55:00,
2013-06-30 14:56:00,84.0,74.4,29.79,East,92,2.0,4.0,73,0.00,,---,0.00,VWS V14.01,2013-06-30 18:56:00,
2013-06-30 14:57:00,84.1,74.5,29.80,SSE,153,3.0,6.0,73,0.00,,---,0.00,VWS V14.01,2013-06-30 18:57:00,
2013-06-30 14:58:00,84.2,74.6,29.80,ESE,116,5.0,9.0,73,0.00,,---,0.00,VWS V14.01,2013-06-30 18:58:00,
2013-06-30 14:59:00,84.3,74.7,29.80,West,267,4.0,11.0,73,0.00,,---,0.00,VWS V14.01,2013-06-30 18:59:00,
2013-06-30 15:00:00,84.3,74.3,29.80,South,184,4.0,14.0,72,0.00,,---,0.00,VWS V14.01,2013-06-30 19:00:00,
2013-06-30 15:01:00,84.4,74.0,29.80,South,187,2.0,7.0,71,0.00,,---,0.00,VWS V14.01,2013-06-30 19:01:00,
2013-06-30 15:02:00,84.4,74.4,29.80,ESE,114,4.0,5.0,72,0.00,,---,0.00,VWS V14.01,2013-06-30 19:02:00,
2013-06-30 15:03:00,84.5,74.5,29.80,SSE,159,10.0,10.0,72,0.00,,---,0.00,VWS V14.01,2013-06-30 19:03:00,
2013-06-30 15:04:00,84.6,74.2,29.80,SSE,157,4.0,9.0,71,0.00,,---,0.00,VWS V14.01,2013-06-30 19:04:00,
2013-06-30 15:05:00,84.6,74.2,29.80,WSW,244,3.0,9.0,71,0.00,,---,0.00,VWS V14.01,2013-06-30 19:05:00,
2013-06-30 15:06:00,84.5,74.1,29.80,SSE,159,8.0,10.0,71,0.00,,---,0.00,VWS V14.01,2013-06-30 19:06:00,
2013-06-30 15:07:00,84.5,74.5,29.80,SSW,194,1.0,8.0,72,0.00,,---,0.00,VWS V14.01,2013-06-30 19:07:00,
2013-06-30 15:08:00,84.5,74.5,29.80,SW,223,6.0,9.0,72,0.00,,---,0.00,VWS V14.01,2013-06-30 19:08:00,
2013-06-30 15:09:00,84.4,74.0,29.80,SSE,161,5.0,10.0,71,0.00,,---,0.00,VWS V14.01,2013-06-30 19:09:00,
2013-06-30 15:10:00,84.3,74.3,29.80,ENE,65,3.0,10.0,72,0.00,,---,0.00,VWS V14.01,2013-06-30 19:10:00,
2013-06-30 15:11:00,84.3,74.3,29.80,SSE,150,7.0,7.0,72,0.00,,---,0.00,VWS V14.01,2013-06-30 19:11:00,
2013-06-30 15:12:00,84.2,73.8,29.80,SE,129,5.0,11.0,71,0.00,,---,0.00,VWS V14.01,2013-06-30 19:12:00,
2013-06-30 15:13:00,84.1,73.7,29.80,ENE,57,2.0,7.0,71,0.00,,---,0.00,VWS V14.01,2013-06-30 19:13:00,
2013-06-30 15:14:00,84.0,74.0,29.80,ENE,61,5.0,5.0,72,0.00,,---,0.00,VWS V14.01,2013-06-30 19:14:00,
2013-06-30 15:15:00,84.0,74.0,29.80,NW,306,2.0,11.0,72,0.00,,---,0.00,VWS V14.01,2013-06-30 19:15:00,
2013-06-30 15:16:00,84.0,74.0,29.80,East,90,3.0,7.0,72,0.00,,---,0.00,VWS V14.01,2013-06-30 19:16:00,
2013-06-30 15:17:00,84.1,74.9,29.80,South,188,3.0,3.0,74,0.00,,---,0.00,VWS V14.01,2013-06-30 19:17:00,
2013-06-30 15:18:00,84.2,74.6,29.80,SSE,152,2.0,4.0,73,0.00,,---,0.00,VWS V14.01,2013-06-30 19:18:00,
2013-06-30 15:19:00,84.4,74.8,29.80,SW,232,2.0,3.0,73,0.00,,---,0.00,VWS V14.01,2013-06-30 19:19:00,
2013-06-30 15:20:00,84.6,75.0,29.80,West,259,3.0,7.0,73,0.00,,---,0.00,VWS V14.01,2013-06-30 19:20:00,
2013-06-30 15:21:00,84.8,74.8,29.80,SSW,202,5.0,7.0,72,0.00,,---,0.00,VWS V14.01,2013-06-30 19:21:00,
2013-06-30 15:22:00,84.9,74.9,29.80,ENE,74,3.0,6.0,72,0.00,,---,0.00,VWS V14.01,2013-06-30 19:22:00,
2013-06-30 15:23:00,85.1,74.6,29.80,SE,126,4.0,5.0,71,0.00,,---,0.00,VWS V14.01,2013-06-30 19:23:00,
2013-06-30 15:24:00,85.3,74.8,29.80,SW,215,5.0,5.0,71,0.00,,---,0.00,VWS V14.01,2013-06-30 19:24:00,
2013-06-30 15:25:00,85.4,74.9,29.80,East,101,3.0,5.0,71,0.00,,---,0.00,VWS V14.01,2013-06-30 19:25:00,
2013-06-30 15:26:00,85.4,74.9,29.80,East,85,8.0,13.0,71,0.00,,---,0.00,VWS V14.01,2013-06-30 19:26:00,
2013-06-30 15:27:00,85.3,74.8,29.80,SSE,166,2.0,8.0,71,0.00,,---,0.00,VWS V14.01,2013-06-30 19:27:00,
2013-06-30 15:28:00,85.2,74.7,29.80,East,94,3.0,10.0,71,0.00,,---,0.00,VWS V14.01,2013-06-30 19:28:00,
2013-06-30 15:29:00,85.0,75.0,29.80,SSE,162,3.0,7.0,72,0.00,,---,0.00,VWS V14.01,2013-06-30 19:29:00,
2013-06-30 15:30:00,84.9,74.9,29.80,WSW,257,7.0,7.0,72,0.00,,---,0.00,VWS V14.01,2013-06-30 19:30:00,
2013-06-30 15:31:00,84.8,74.8,29.80,West,259,4.0,7.0,72,0.00,,---,0.00,VWS V14.01,2013-06-30 19:31:00,
2013-06-30 15:32:00,84.7,74.7,29.80,SSE,160,3.0,7.0,72,0.00,,---,0.00,VWS V14.01,2013-06-30 19:32:00,
2013-06-30 15:33:00,84.5,74.5,29.80,SSW,198,5.0,9.0,72,0.00,,---,0.00,VWS V14.01,2013-06-30 19:33:00,
2013-06-30 15:34:00,84.4,74.8,29.80,ESE,105,1.0,2.0,73,0.00,,---,0.00,VWS V14.01,2013-06-30 19:34:00,
2013-06-30 15:35:00,84.4,74.8,29.80,ENE,72,4.0,4.0,73,0.00,,---,0.00,VWS V14.01,2013-06-30 19:35:00,
2013-06-30 15:36:00,84.3,74.7,29.80,ENE,76,5.0,8.0,73,0.00,,---,0.00,VWS V14.01,2013-06-30 19:36:00,
2013-06-30 15:37:00,84.2,74.2,29.80,SSE,157,6.0,9.0,72,0.00,,---,0.00,VWS V14.01,2013-06-30 19:37:00,
2013-06-30 15:38:00,84.1,74.1,29.80,SSW,207,3.0,11.0,72,0.00,,---,0.00,VWS V14.01,2013-06-30 19:38:00,
2013-06-30 15:39:00,83.9,73.9,29.80,SW,233,5.0,9.0,72,0.00,,---,0.00,VWS V14.01,2013-06-30 19:39:00,
2013-06-30 15:40:00,83.8,74.2,29.80,SSE,155,6.0,11.0,73,0.00,,---,0.00,VWS V14.01,2013-06-30 19:40:00,
2013-06-30 15:41:00,83.6,73.6,29.80,SE,141,5.0,13.0,72,0.00,,---,0.00,VWS V14.01,2013-06-30 19:41:00,
2013-06-30 15:42:00,83.5,73.9,29.80,South,184,10.0,10.0,73,0.00,,---,0.00,VWS V14.01,2013-06-30 19:42:00,
2013-06-30 15:43:00,83.3,73.8,29.80,SE,141,3.0,11.0,73,0.00,,---,0.00,VWS V14.01,2013-06-30 19:43:00,
2013-06-30 15:44:00,83.2,74.1,29.80,SSE,161,4.0,5.0,74,0.00,,---,0.00,VWS V14.01,2013-06-30 19:44:00,
2013-06-30 15:45:00,83.2,74.5,29.80,South,190,2.0,5.0,75,0.00,,---,0.00,VWS V14.01,2013-06-30 19:45:00,
2013-06-30 15:46:00,83.2,74.5,29.81,SSW,205,3.0,4.0,75,0.00,,---,0.00,VWS V14.01,2013-06-30 19:46:00,
2013-06-30 15:47:00,83.2,74.5,29.81,WSW,241,0.0,5.0,75,0.00,,---,0.00,VWS V14.01,2013-06-30 19:47:00,
2013-06-30 15:48:00,83.3,74.6,29.80,SSE,149,3.0,3.0,75,0.00,,---,0.00,VWS V14.01,2013-06-30 19:48:00,
2013-06-30 15:49:00,83.3,74.6,29.81,SSW,203,3.0,3.0,75,0.00,,---,0.00,VWS V14.01,2013-06-30 19:49:00,
2013-06-30 15:50:00,83.4,75.1,29.81,WSW,249,2.0,5.0,76,0.00,,---,0.00,VWS V14.01,2013-06-30 19:50:00,
2013-06-30 15:51:00,83.5,74.8,29.81,SE,136,12.0,12.0,75,0.00,,---,0.00,VWS V14.01,2013-06-30 19:51:00,
2013-06-30 15:52:00,83.6,74.8,29.81,South,172,9.0,12.0,75,0.00,,---,0.00,VWS V14.01,2013-06-30 19:52:00,
2013-06-30 15:53:00,83.5,74.8,29.81,East,94,8.0,9.0,75,0.00,,---,0.00,VWS V14.01,2013-06-30 19:53:00,
2013-06-30 15:54:00,83.4,74.2,29.81,ESE,113,7.0,7.0,74,0.00,,---,0.00,VWS V14.01,2013-06-30 19:54:00,
2013-06-30 15:55:00,83.3,74.2,29.81,East,86,2.0,7.0,74,0.00,,---,0.00,VWS V14.01,2013-06-30 19:55:00,
2013-06-30 15:56:00,83.1,74.4,29.81,ESE,115,4.0,12.0,75,0.00,,---,0.00,VWS V14.01,2013-06-30 19:56:00,
2013-06-30 15:57:00,83.0,74.3,29.81,East,97,5.0,7.0,75,0.00,,---,0.00,VWS V14.01,2013-06-30 19:57:00,
2013-06-30 15:58:00,82.8,74.1,29.81,SE,145,5.0,11.0,75,0.00,,---,0.00,VWS V14.01,2013-06-30 19:58:00,
2013-06-30 15:59:00,82.6,73.9,29.81,East,85,7.0,9.0,75,0.00,,---,0.00,VWS V14.01,2013-06-30 19:59:00,
2013-06-30 16:00:00,82.5,73.8,29.81,SSE,165,2.0,9.0,75,0.00,,---,0.00,VWS V14.01,2013-06-30 20:00:00,
2013-06-30 16:01:00,82.4,73.7,29.81,East,90,2.0,3.0,75,0.00,,---,0.00,VWS V14.01,2013-06-30 20:01:00,
2013-06-30 16:02:00,82.4,74.1,29.81,SW,218,2.0,3.0,76,0.00,,---,0.00,VWS V14.01,2013-06-30 20:02:00,
2013-06-30 16:03:00,82.4,74.1,29.81,East,86,1.0,2.0,76,0.00,,---,0.00,VWS V14.01,2013-06-30 20:03:00,
2013-06-30 16:04:00,82.4,74.1,29.81,South,190,4.0,4.0,76,0.00,,---,0.00,VWS V14.01,2013-06-30 20:04:00,
2013-06-30 16:05:00,82.4,74.1,29.81,East,96,3.0,5.0,76,0.00,,---,0.00,VWS V14.01,2013-06-30 20:05:00,
2013-06-30 16:06:00,82.5,74.2,29.81,North,349,2.0,5.0,76,0.00,,---,0.00,VWS V14.01,2013-06-30 20:06:00,
2013-06-30 16:07:00,82.4,74.1,29.81,SE,127,2.0,5.0,76,0.00,,---,0.00,VWS V14.01,2013-06-30 20:07:00,
2013-06-30 16:08:00,82.4,74.1,29.81,SSE,159,4.0,7.0,76,0.00,,---,0.00,VWS V14.01,2013-06-30 20:08:00,
2013-06-30 16:09:00,82.4,74.1,29.81,SSE,162,3.0,3.0,76,0.00,,---,0.00,VWS V14.01,2013-06-30 20:09:00,
2013-06-30 16:10:00,82.5,74.2,29.81,SSW,205,7.0,7.0,76,0.00,,---,0.00,VWS V14.01,2013-06-30 20:10:00,
2013-06-30 16:11:00,82.5,74.2,29.81,SSE,166,4.0,7.0,76,0.00,,---,0.00,VWS V14.01,2013-06-30 20:11:00,
2013-06-30 16:12:00,82.5,74.2,29.81,ESE,119,3.0,4.0,76,0.00,,---,0.00,VWS V14.01,2013-06-30 20:12:00,
2013-06-30 16:13:00,82.5,74.2,29.81,West,260,2.0,5.0,76,0.00,,---,0.00,VWS V14.01,2013-06-30 20:13:00,
2013-06-30 16:14:00,82.6,74.3,29.81,ESE,119,1.0,1.0,76,0.00,,---,0.00,VWS V14.01,2013-06-30 20:14:00,
2013-06-30 16:15:00,82.6,74.3,29.81,SE,128,4.0,5.0,76,0.00,,---,0.00,VWS V14.01,2013-06-30 20:15:00,
2013-06-30 16:16:00,82.6,74.7,29.81,SW,236,6.0,6.0,77,0.00,,---,0.00,VWS V14.01,2013-06-30 20:16:00,
2013-06-30 16:17:00,82.6,74.3,29.81,SW,234,3.0,7.0,76,0.00,,---,0.00,VWS V14.01,2013-06-30 20:17:00,
2013-06-30 16:18:00,82.6,74.3,29.81,SW,229,1.0,3.0,76,0.00,,---,0.00,VWS V14.01,2013-06-30 20:18:00,
2013-06-30 16:19:00,82.6,74.3,29.82,ESE,105,1.0,1.0,76,0.00,,---,0.00,VWS V14.01,2013-06-30 20:19:00,
2013-06-30 16:20:00,82.7,74.4,29.82,WSW,248,2.0,4.0,76,0.00,,---,0.00,VWS V14.01,2013-06-30 20:20:00,
2013-06-30 16:21:00,82.7,74.4,29.82,ESE,123,2.0,4.0,76,0.00,,---,0.00,VWS V14.01,2013-06-30 20:21:00,
2013-06-30 16:22:00,82.7,74.4,29.82,SSE,161,5.0,5.0,76,0.00,,---,0.00,VWS V14.01,2013-06-30 20:22:00,
2013-06-30 16:23:00,82.7,74.4,29.82,SSE,149,2.0,5.0,76,0.00,,---,0.00,VWS V14.01,2013-06-30 20:23:00,
2013-06-30 16:24:00,82.8,74.5,29.82,ESE,123,4.0,4.0,76,0.00,,---,0.00,VWS V14.01,2013-06-30 20:24:00,
2013-06-30 16:25:00,82.9,74.6,29.82,SSW,196,1.0,4.0,76,0.00,,---,0.00,VWS V14.01,2013-06-30 20:25:00,
2013-06-30 16:26:00,83.0,74.7,29.82,East,99,2.0,2.0,76,0.00,,---,0.00,VWS V14.01,2013-06-30 20:26:00,
2013-06-30 16:27:00,83.2,74.5,29.82,West,269,3.0,4.0,75,0.00,,---,0.00,VWS V14.01,2013-06-30 20:27:00,
2013-06-30 16:28:00,83.2,74.1,29.82,SE,126,2.0,4.0,74,0.00,,---,0.00,VWS V14.01,2013-06-30 20:28:00,
2013-06-30 16:29:00,83.2,74.1,29.82,SE,128,2.0,3.0,74,0.00,,---,0.00,VWS V14.01,2013-06-30 20:29:00,
2013-06-30 16:30:00,83.2,73.7,29.82,South,185,1.0,4.0,73,0.00,,---,0.00,VWS V14.01,2013-06-30 20:30:00,
2013-06-30 16:31:00,83.2,73.7,29.82,South,176,6.0,6.0,73,0.00,,---,0.00,VWS V14.01,2013-06-30 20:31:00,
2013-06-30 16:32:00,83.2,73.2,29.82,SSE,166,7.0,7.0,72,0.00,,---,0.00,VWS V14.01,2013-06-30 20:32:00,
2013-06-30 16:33:00,83.1,73.1,29.82,South,178,4.0,7.0,72,0.00,,---,0.00,VWS V14.01,2013-06-30 20:33:00,
2013-06-30 16:34:00,83.2,73.7,29.82,East,85,2.0,2.0,73,0.00,,---,0.00,VWS V14.01,2013-06-30 20:34:00,
2013-06-30 16:35:00,83.2,73.7,29.82,South,175,4.0,4.0,73,0.00,,---,0.00,VWS V14.01,2013-06-30 20:35:00,
2013-06-30 16:36:00,83.4,73.8,29.82,ENE,63,2.0,4.0,73,0.00,,---,0.00,VWS V14.01,2013-06-30 20:36:00,
2013-06-30 16:37:00,83.5,73.9,29.82,SSW,202,4.0,4.0,73,0.00,,---,0.00,VWS V14.01,2013-06-30 20:37:00,
2013-06-30 16:38:00,83.6,74.0,29.83,West,261,3.0,5.0,73,0.00,,---,0.00,VWS V14.01,2013-06-30 20:38:00,
2013-06-30 16:39:00,83.6,73.6,29.83,SSE,155,2.0,2.0,72,0.00,,---,0.00,VWS V14.01,2013-06-30 20:39:00,
2013-06-30 16:40:00,83.6,73.6,29.83,South,188,2.0,2.0,72,0.00,,---,0.00,VWS V14.01,2013-06-30 20:40:00,
2013-06-30 16:41:00,83.5,73.9,29.83,West,269,4.0,4.0,73,0.00,,---,0.00,VWS V14.01,2013-06-30 20:41:00,
2013-06-30 16:42:00,83.3,73.3,29.83,WSW,254,2.0,4.0,72,0.00,,---,0.00,VWS V14.01,2013-06-30 20:42:00,
2013-06-30 16:43:00,83.2,73.7,29.83,West,275,3.0,3.0,73,0.00,,---,0.00,VWS V14.01,2013-06-30 20:43:00,
2013-06-30 16:44:00,83.0,73.5,29.83,West,263,1.0,1.0,73,0.00,,---,0.00,VWS V14.01,2013-06-30 20:44:00,
2013-06-30 16:45:00,82.9,73.8,29.83,West,260,0.0,3.0,74,0.00,,---,0.00,VWS V14.01,2013-06-30 20:45:00,
2013-06-30 16:46:00,82.8,73.7,29.83,NNW,330,1.0,2.0,74,0.00,,---,0.00,VWS V14.01,2013-06-30 20:46:00,
2013-06-30 16:47:00,82.8,73.7,29.83,WNW,288,1.0,1.0,74,0.00,,---,0.00,VWS V14.01,2013-06-30 20:47:00,
2013-06-30 16:48:00,82.7,73.6,29.83,WNW,292,1.0,3.0,74,0.00,,---,0.00,VWS V14.01,2013-06-30 20:48:00,
2013-06-30 16:49:00,82.6,73.9,29.83,ENE,61,3.0,3.0,75,0.00,,---,0.00,VWS V14.01,2013-06-30 20:49:00,
2013-06-30 16:50:00,82.4,73.3,29.84,ENE,59,8.0,11.0,74,0.00,,---,0.00,VWS V14.01,2013-06-30 20:50:00,
2013-06-30 16:51:00,82.1,72.6,29.84,NNE,17,4.0,8.0,73,0.00,,---,0.00,VWS V14.01,2013-06-30 20:51:00,
2013-06-30 16:52:00,81.5,71.6,29.84,NE,38,4.0,5.0,72,0.00,,---,0.00,VWS V14.01,2013-06-30 20:52:00,
2013-06-30 16:53:00,80.8,70.5,29.84,NE,46,3.0,11.0,71,0.00,,---,0.00,VWS V14.01,2013-06-30 20:53:00,
2013-06-30 16:54:00,80.0,70.2,29.84,NW,325,3.0,5.0,72,0.00,,---,0.00,VWS V14.01,2013-06-30 20:54:00,
2013-06-30 16:55:00,79.5,70.5,29.84,ENE,61,4.0,5.0,74,0.00,,---,0.00,VWS V14.01,2013-06-30 20:55:00,
2013-06-30 16:56:00,78.9,70.3,29.84,NNW,346,4.0,5.0,75,0.00,,---,0.00,VWS V14.01,2013-06-30 20:56:00,
2013-06-30 16:57:00,78.3,70.1,29.84,NNE,29,2.0,4.0,76,0.00,,---,0.00,VWS V14.01,2013-06-30 20:57:00,
2013-06-30 16:58:00,77.9,70.1,29.84,NNE,26,4.0,8.0,77,0.00,,---,0.00,VWS V14.01,2013-06-30 20:58:00,
2013-06-30 16:59:00,77.4,69.6,29.84,NE,34,6.0,6.0,77,0.00,,---,0.00,VWS V14.01,2013-06-30 20:59:00,
2013-06-30 17:00:00,77.0,69.6,29.84,NNE,27,3.0,7.0,78,0.00,,---,0.00,VWS V14.01,2013-06-30 21:00:00,
2013-06-30 17:01:00,76.7,69.7,29.84,NE,39,0.0,3.0,79,0.00,,---,0.00,VWS V14.01,2013-06-30 21:01:00,
2013-06-30 17:02:00,76.5,69.5,29.84,NNE,32,1.0,2.0,79,0.00,,---,0.00,VWS V14.01,2013-06-30 21:02:00,
2013-06-30 17:03:00,76.3,69.7,29.84,NE,40,1.0,3.0,80,0.00,,---,0.00,VWS V14.01,2013-06-30 21:03:00,
2013-06-30 17:04:00,76.1,69.5,29.84,SW,236,3.0,3.0,80,0.00,,---,0.00,VWS V14.01,2013-06-30 21:04:00,
2013-06-30 17:05:00,75.9,69.7,29.84,NNW,334,1.0,5.0,81,0.00,,---,0.00,VWS V14.01,2013-06-30 21:05:00,
2013-06-30 17:06:00,75.8,69.6,29.84,NNE,19,2.0,2.0,81,0.00,,---,0.00,VWS V14.01,2013-06-30 21:06:00,
2013-06-30 17:07:00,75.7,69.5,29.84,NNW,329,0.0,3.0,81,0.00,,---,0.00,VWS V14.01,2013-06-30 21:07:00,
2013-06-30 17:08:00,75.6,69.4,29.84,NW,322,1.0,1.0,81,0.00,,---,0.00,VWS V14.01,2013-06-30 21:08:00,
2013-06-30 17:09:00,75.5,69.6,29.84,NW,322,0.0,1.0,82,0.00,,---,0.00,VWS V14.01,2013-06-30 21:09:00,
2013-06-30 17:10:00,75.5,69.6,29.84,NNE,17,0.0,2.0,82,0.00,,---,0.00,VWS V14.01,2013-06-30 21:10:00,
2013-06-30 17:11:00,75.4,69.5,29.84,NNE,17,0.0,4.0,82,0.00,,---,0.00,VWS V14.01,2013-06-30 21:11:00,
2013-06-30 17:12:00,75.4,69.5,29.84,NNW,331,0.0,1.0,82,0.00,,---,0.00,VWS V14.01,2013-06-30 21:12:00,
2013-06-30 17:13:00,75.3,69.4,29.84,NNW,331,0.0,1.0,82,0.00,,---,0.00,VWS V14.01,2013-06-30 21:13:00,
2013-06-30 17:14:00,75.3,69.8,29.84,WNW,298,0.0,0.0,83,0.00,,---,0.00,VWS V14.01,2013-06-30 21:14:00,
2013-06-30 17:15:00,75.3,69.8,29.84,NW,307,3.0,6.0,83,0.00,,---,0.00,VWS V14.01,2013-06-30 21:15:00,
2013-06-30 17:16:00,75.3,69.8,29.84,WSW,252,5.0,5.0,83,0.00,,---,0.00,VWS V14.01,2013-06-30 21:16:00,
2013-06-30 17:17:00,75.2,69.7,29.84,WSW,249,9.0,9.0,83,0.00,,---,0.00,VWS V14.01,2013-06-30 21:17:00,
2013-06-30 17:18:00,75.1,69.6,29.84,WNW,286,7.0,12.0,83,0.00,,---,0.00,VWS V14.01,2013-06-30 21:18:00,
2013-06-30 17:19:00,75.0,69.5,29.84,North,11,3.0,7.0,83,0.00,,---,0.00,VWS V14.01,2013-06-30 21:19:00,
2013-06-30 17:20:00,74.9,69.4,29.84,ENE,70,2.0,3.0,83,0.00,,---,0.00,VWS V14.01,2013-06-30 21:20:00,
2013-06-30 17:21:00,74.9,69.4,29.84,NW,313,1.0,3.0,83,0.00,,---,0.00,VWS V14.01,2013-06-30 21:21:00,
2013-06-30 17:22:00,74.9,69.7,29.84,North,11,2.0,4.0,84,0.00,,---,0.00,VWS V14.01,2013-06-30 21:22:00,
2013-06-30 17:23:00,74.9,69.7,29.84,NNW,342,0.0,2.0,84,0.00,,---,0.00,VWS V14.01,2013-06-30 21:23:00,
2013-06-30 17:24:00,74.9,69.7,29.84,West,259,0.0,1.0,84,0.00,,---,0.00,VWS V14.01,2013-06-30 21:24:00,
2013-06-30 17:25:00,74.9,69.7,29.84,West,261,0.0,0.0,84,0.00,,---,0.00,VWS V14.01,2013-06-30 21:25:00,
2013-06-30 17:26:00,75.0,70.2,29.84,West,264,0.0,1.0,85,0.00,,---,0.00,VWS V14.01,2013-06-30 21:26:00,
2013-06-30 17:27:00,75.1,69.9,29.84,North,355,0.0,2.0,84,0.00,,---,0.00,VWS V14.01,2013-06-30 21:27:00,
2013-06-30 17:28:00,75.1,69.9,29.84,NE,39,3.0,3.0,84,0.00,,---,0.00,VWS V14.01,2013-06-30 21:28:00,
2013-06-30 17:29:00,75.2,70.0,29.84,NNE,32,2.0,3.0,84,0.00,,---,0.00,VWS V14.01,2013-06-30 21:29:00,
2013-06-30 17:30:00,75.2,70.0,29.84,NNE,30,1.0,5.0,84,0.00,,---,0.00,VWS V14.01,2013-06-30 21:30:00,
2013-06-30 17:31:00,75.2,70.0,29.83,NNE,28,2.0,5.0,84,0.00,,---,0.00,VWS V14.01,2013-06-30 21:31:00,
2013-06-30 17:32:00,75.1,69.9,29.83,NNE,28,0.0,2.0,84,0.00,,---,0.00,VWS V14.01,2013-06-30 21:32:00,
2013-06-30 17:33:00,75.2,70.4,29.83,NNE,14,1.0,1.0,85,0.00,,---,0.00,VWS V14.01,2013-06-30 21:33:00,
2013-06-30 17:34:00,75.2,70.0,29.84,North,355,2.0,4.0,84,0.00,,---,0.00,VWS V14.01,2013-06-30 21:34:00,
2013-06-30 17:35:00,75.2,70.0,29.84,NNW,342,1.0,4.0,84,0.00,,---,0.00,VWS V14.01,2013-06-30 21:35:00,
2013-06-30 17:36:00,75.1,69.9,29.83,WNW,292,2.0,4.0,84,0.00,,---,0.00,VWS V14.01,2013-06-30 21:36:00,
2013-06-30 17:37:00,75.1,69.9,29.83,NW,308,0.0,4.0,84,0.00,,---,0.00,VWS V14.01,2013-06-30 21:37:00,
2013-06-30 17:38:00,75.1,69.9,29.84,East,88,1.0,1.0,84,0.00,,---,0.00,VWS V14.01,2013-06-30 21:38:00,
2013-06-30 17:39:00,75.1,69.9,29.83,East,89,0.0,1.0,84,0.00,,---,0.00,VWS V14.01,2013-06-30 21:39:00,
2013-06-30 17:40:00,75.1,69.9,29.83,West,269,4.0,4.0,84,0.00,,---,0.00,VWS V14.01,2013-06-30 21:40:00,
2013-06-30 17:41:00,75.1,69.9,29.83,South,179,0.0,5.0,84,0.00,,---,0.00,VWS V14.01,2013-06-30 21:41:00,
2013-06-30 17:42:00,75.1,69.9,29.83,North,11,1.0,2.0,84,0.00,,---,0.00,VWS V14.01,2013-06-30 21:42:00,
2013-06-30 17:43:00,75.1,69.9,29.83,NNW,338,0.0,2.0,84,0.00,,---,0.00,VWS V14.01,2013-06-30 21:43:00,
2013-06-30 17:44:00,75.2,70.0,29.84,NNW,338,0.0,1.0,84,0.00,,---,0.00,VWS V14.01,2013-06-30 21:44:00,
2013-06-30 17:45:00,75.2,70.0,29.84,WNW,292,3.0,4.0,84,0.00,,---,0.00,VWS V14.01,2013-06-30 21:45:00,
2013-06-30 17:46:00,75.1,69.6,29.84,West,277,0.0,3.0,83,0.00,,---,0.00,VWS V14.01,2013-06-30 21:46:00,
2013-06-30 17:47:00,75.2,69.7,29.84,West,277,0.0,1.0,83,0.00,,---,0.00,VWS V14.01,2013-06-30 21:47:00,
2013-06-30 17:48:00,75.3,70.1,29.84,West,276,0.0,0.0,84,0.00,,---,0.00,VWS V14.01,2013-06-30 21:48:00,
2013-06-30 17:49:00,75.3,70.1,29.84,West,281,1.0,1.0,84,0.00,,---,0.00,VWS V14.01,2013-06-30 21:49:00,
2013-06-30 17:50:00,75.4,70.2,29.84,WSW,256,3.0,3.0,84,0.00,,---,0.00,VWS V14.01,2013-06-30 21:50:00,
2013-06-30 17:51:00,75.4,70.2,29.84,NNW,332,2.0,3.0,84,0.00,,---,0.00,VWS V14.01,2013-06-30 21:51:00,
2013-06-30 17:52:00,75.4,69.9,29.84,WNW,295,0.0,2.0,83,0.00,,---,0.00,VWS V14.01,2013-06-30 21:52:00,
2013-06-30 17:53:00,75.4,69.5,29.84,NW,314,2.0,2.0,82,0.00,,---,0.00,VWS V14.01,2013-06-30 21:53:00,
2013-06-30 17:54:00,75.3,69.4,29.84,NW,321,1.0,2.0,82,0.00,,---,0.00,VWS V14.01,2013-06-30 21:54:00,
2013-06-30 17:55:00,75.3,69.4,29.84,West,263,3.0,3.0,82,0.00,,---,0.00,VWS V14.01,2013-06-30 21:55:00,
2013-06-30 17:56:00,75.4,69.5,29.84,West,263,0.0,3.0,82,0.00,,---,0.00,VWS V14.01,2013-06-30 21:56:00,
2013-06-30 17:57:00,75.3,69.8,29.84,West,269,0.0,1.0,83,0.00,,---,0.00,VWS V14.01,2013-06-30 21:57:00,
2013-06-30 17:58:00,75.4,69.9,29.84,WNW,286,1.0,1.0,83,0.00,,---,0.00,VWS V14.01,2013-06-30 21:58:00,
2013-06-30 17:59:00,75.3,69.4,29.84,WNW,286,2.0,2.0,82,0.00,,---,0.00,VWS V14.01,2013-06-30 21:59:00,
2013-06-30 18:00:00,75.3,69.1,29.84,WSW,250,1.0,3.0,81,0.00,,---,0.00,VWS V14.01,2013-06-30 22:00:00,
2013-06-30 18:01:00,75.3,69.1,29.84,WSW,250,0.0,1.0,81,0.00,,---,0.00,VWS V14.01,2013-06-30 22:01:00,
2013-06-30 18:02:00,75.3,69.1,29.84,WSW,250,0.0,1.0,81,0.00,,---,0.00,VWS V14.01,2013-06-30 22:02:00,
2013-06-30 18:03:00,75.3,69.1,29.84,WSW,246,0.0,0.0,81,0.00,,---,0.00,VWS V14.01,2013-06-30 22:03:00,
2013-06-30 18:04:00,75.3,69.1,29.85,WSW,254,2.0,3.0,81,0.00,,---,0.00,VWS V14.01,2013-06-30 22:04:00,
2013-06-30 18:05:00,75.3,68.7,29.85,WSW,241,1.0,2.0,80,0.00,,---,0.00,VWS V14.01,2013-06-30 22:05:00,
2013-06-30 18:06:00,75.3,69.1,29.85,West,269,1.0,2.0,81,0.00,,---,0.00,VWS V14.01,2013-06-30 22:06:00,
2013-06-30 18:07:00,75.2,69.0,29.85,West,276,0.0,1.0,81,0.00,,---,0.00,VWS V14.01,2013-06-30 22:07:00,
2013-06-30 18:08:00,75.2,69.0,29.85,WNW,283,1.0,1.0,81,0.00,,---,0.00,VWS V14.01,2013-06-30 22:08:00,
2013-06-30 18:09:00,75.1,68.9,29.85,WNW,293,1.0,3.0,81,0.00,,---,0.00,VWS V14.01,2013-06-30 22:09:00,
2013-06-30 18:10:00,75.1,68.9,29.85,WSW,252,3.0,3.0,81,0.00,,---,0.00,VWS V14.01,2013-06-30 22:10:00,
2013-06-30 18:11:00,75.1,68.9,29.85,West,265,2.0,3.0,81,0.00,,---,0.00,VWS V14.01,2013-06-30 22:11:00,
2013-06-30 18:12:00,75.0,68.8,29.85,WSW,254,2.0,3.0,81,0.00,,---,0.00,VWS V14.01,2013-06-30 22:12:00,
2013-06-30 18:13:00,75.0,68.8,29.85,West,273,3.0,3.0,81,0.00,,---,0.00,VWS V14.01,2013-06-30 22:13:00,
2013-06-30 18:14:00,74.9,68.7,29.85,West,272,2.0,4.0,81,0.00,,---,0.00,VWS V14.01,2013-06-30 22:14:00,
2013-06-30 18:15:00,74.9,68.7,29.85,West,267,3.0,4.0,81,0.00,,---,0.00,VWS V14.01,2013-06-30 22:15:00,
2013-06-30 18:16:00,74.8,68.6,29.85,WSW,245,1.0,3.0,81,0.00,,---,0.00,VWS V14.01,2013-06-30 22:16:00,
2013-06-30 18:17:00,74.7,68.5,29.85,West,269,1.0,2.0,81,0.00,,---,0.00,VWS V14.01,2013-06-30 22:17:00,
2013-06-30 18:18:00,74.7,68.8,29.85,WSW,248,0.0,1.0,82,0.00,,---,0.00,VWS V14.01,2013-06-30 22:18:00,
2013-06-30 18:19:00,74.7,69.2,29.85,SW,230,0.0,1.0,83,0.00,,---,0.00,VWS V14.01,2013-06-30 22:19:00,
2013-06-30 18:20:00,74.7,69.2,29.85,WSW,242,0.0,0.0,83,0.00,,---,0.00,VWS V14.01,2013-06-30 22:20:00,
2013-06-30 18:21:00,74.7,69.2,29.85,WSW,242,0.0,0.0,83,0.00,,---,0.00,VWS V14.01,2013-06-30 22:21:00,
2013-06-30 18:22:00,74.7,69.2,29.85,WSW,242,0.0,1.0,83,0.00,,---,0.00,VWS V14.01,2013-06-30 22:22:00,
2013-06-30 18:23:00,74.6,69.1,29.85,West,271,2.0,3.0,83,0.00,,---,0.00,VWS V14.01,2013-06-30 22:23:00,
2013-06-30 18:24:00,74.6,69.1,29.85,West,260,2.0,4.0,83,0.00,,---,0.00,VWS V14.01,2013-06-30 22:24:00,
2013-06-30 18:25:00,74.5,69.0,29.85,West,279,1.0,3.0,83,0.00,,---,0.00,VWS V14.01,2013-06-30 22:25:00,
2013-06-30 18:26:00,74.5,69.0,29.85,WNW,282,1.0,3.0,83,0.00,,---,0.00,VWS V14.01,2013-06-30 22:26:00,
2013-06-30 18:27:00,74.4,69.3,29.85,West,276,2.0,3.0,84,0.00,,---,0.00,VWS V14.01,2013-06-30 22:27:00,
2013-06-30 18:28:00,74.3,69.2,29.85,West,271,3.0,5.0,84,0.00,,---,0.00,VWS V14.01,2013-06-30 22:28:00,
2013-06-30 18:29:00,74.2,69.1,29.85,West,276,2.0,4.0,84,0.00,,---,0.00,VWS V14.01,2013-06-30 22:29:00,
2013-06-30 18:30:00,74.1,69.0,29.85,WNW,284,3.0,7.0,84,0.00,,---,0.00,VWS V14.01,2013-06-30 22:30:00,
2013-06-30 18:31:00,74.0,69.2,29.85,SW,229,2.0,3.0,85,0.00,,---,0.00,VWS V14.01,2013-06-30 22:31:00,
2013-06-30 18:32:00,74.0,69.2,29.85,West,265,3.0,4.0,85,0.00,,---,0.00,VWS V14.01,2013-06-30 22:32:00,
2013-06-30 18:33:00,73.8,68.7,29.85,WSW,241,3.0,4.0,84,0.00,,---,0.00,VWS V14.01,2013-06-30 22:33:00,
2013-06-30 18:34:00,73.8,68.7,29.85,WSW,242,2.0,4.0,84,0.00,,---,0.00,VWS V14.01,2013-06-30 22:34:00,
2013-06-30 18:35:00,73.7,68.9,29.85,WSW,248,3.0,3.0,85,0.00,,---,0.00,VWS V14.01,2013-06-30 22:35:00,
2013-06-30 18:36:00,73.6,68.5,29.85,West,261,5.0,5.0,84,0.00,,---,0.00,VWS V14.01,2013-06-30 22:36:00,
2013-06-30 18:37:00,73.6,68.5,29.85,West,280,2.0,5.0,84,0.00,,---,0.00,VWS V14.01,2013-06-30 22:37:00,
2013-06-30 18:38:00,73.4,68.3,29.85,West,259,4.0,4.0,84,0.00,,---,0.00,VWS V14.01,2013-06-30 22:38:00,
2013-06-30 18:39:00,73.5,68.4,29.85,West,277,3.0,4.0,84,0.00,,---,0.00,VWS V14.01,2013-06-30 22:39:00,
2013-06-30 18:40:00,73.4,68.3,29.85,WNW,286,2.0,3.0,84,0.00,,---,0.00,VWS V14.01,2013-06-30 22:40:00,
2013-06-30 18:41:00,73.4,68.6,29.85,WSW,249,2.0,2.0,85,0.00,,---,0.00,VWS V14.01,2013-06-30 22:41:00,
2013-06-30 18:42:00,73.3,68.5,29.85,WNW,284,1.0,2.0,85,0.00,,---,0.00,VWS V14.01,2013-06-30 22:42:00,
2013-06-30 18:43:00,73.3,68.5,29.85,WNW,282,2.0,3.0,85,0.00,,---,0.00,VWS V14.01,2013-06-30 22:43:00,
2013-06-30 18:44:00,73.3,68.5,29.85,WNW,282,1.0,3.0,85,0.00,,---,0.00,VWS V14.01,2013-06-30 22:44:00,
2013-06-30 18:45:00,73.3,68.5,29.85,WNW,282,0.0,1.0,85,0.00,,---,0.00,VWS V14.01,2013-06-30 22:45:00,
2013-06-30 18:46:00,73.3,68.5,29.85,WNW,283,0.0,0.0,85,0.00,,---,0.00,VWS V14.01,2013-06-30 22:46:00,
2013-06-30 18:47:00,73.2,68.4,29.85,West,281,1.0,1.0,85,0.00,,---,0.00,VWS V14.01,2013-06-30 22:47:00,
2013-06-30 18:48:00,73.2,68.4,29.85,West,281,0.0,0.0,85,0.00,,---,0.00,VWS V14.01,2013-06-30 22:48:00,
2013-06-30 18:49:00,73.2,68.4,29.85,West,281,1.0,1.0,85,0.00,,---,0.00,VWS V14.01,2013-06-30 22:49:00,
2013-06-30 18:50:00,73.2,68.4,29.86,West,281,0.0,1.0,85,0.00,,---,0.00,VWS V14.01,2013-06-30 22:50:00,
2013-06-30 18:51:00,73.2,68.4,29.86,WSW,244,1.0,1.0,85,0.00,,---,0.00,VWS V14.01,2013-06-30 22:51:00,
2013-06-30 18:52:00,73.2,68.4,29.86,WSW,244,0.0,1.0,85,0.00,,---,0.00,VWS V14.01,2013-06-30 22:52:00,
2013-06-30 18:53:00,73.2,68.8,29.85,WSW,239,0.0,0.0,86,0.00,,---,0.00,VWS V14.01,2013-06-30 22:53:00,
2013-06-30 18:54:00,73.2,68.8,29.85,WSW,240,0.0,0.0,86,0.00,,---,0.00,VWS V14.01,2013-06-30 22:54:00,
2013-06-30 18:55:00,73.3,68.9,29.86,SSW,213,0.0,0.0,86,0.00,,---,0.00,VWS V14.01,2013-06-30 22:55:00,
2013-06-30 18:56:00,73.3,68.9,29.85,SSW,195,0.0,0.0,86,0.00,,---,0.00,VWS V14.01,2013-06-30 22:56:00,
2013-06-30 18:57:00,73.3,68.9,29.85,WSW,237,2.0,2.0,86,0.00,,---,0.00,VWS V14.01,2013-06-30 22:57:00,
2013-06-30 18:58:00,73.3,68.9,29.85,WSW,238,1.0,1.0,86,0.00,,---,0.00,VWS V14.01,2013-06-30 22:58:00,
2013-06-30 18:59:00,73.4,69.0,29.85,WSW,240,1.0,1.0,86,0.00,,---,0.00,VWS V14.01,2013-06-30 22:59:00,
2013-06-30 19:00:00,73.4,69.0,29.85,West,265,1.0,2.0,86,0.00,,---,0.00,VWS V14.01,2013-06-30 23:00:00,
2013-06-30 19:01:00,73.4,69.0,29.85,West,272,1.0,1.0,86,0.00,,---,0.00,VWS V14.01,2013-06-30 23:01:00,
2013-06-30 19:02:00,73.4,69.0,29.85,West,273,1.0,2.0,86,0.00,,---,0.00,VWS V14.01,2013-06-30 23:02:00,
2013-06-30 19:03:00,73.4,69.0,29.85,West,269,0.0,1.0,86,0.00,,---,0.00,VWS V14.01,2013-06-30 23:03:00,
2013-06-30 19:04:00,73.4,69.0,29.85,West,269,0.0,1.0,86,0.00,,---,0.00,VWS V14.01,2013-06-30 23:04:00,
2013-06-30 19:05:00,73.4,69.3,29.86,West,267,1.0,1.0,87,0.00,,---,0.00,VWS V14.01,2013-06-30 23:05:00,
2013-06-30 19:06:00,73.4,69.3,29.86,West,267,0.0,1.0,87,0.00,,---,0.00,VWS V14.01,2013-06-30 23:06:00,
2013-06-30 19:07:00,73.4,69.3,29.86,West,268,0.0,0.0,87,0.00,,---,0.00,VWS V14.01,2013-06-30 23:07:00,
2013-06-30 19:08:00,73.5,69.4,29.85,West,268,0.0,0.0,87,0.00,,---,0.00,VWS V14.01,2013-06-30 23:08:00,
2013-06-30 19:09:00,73.5,69.4,29.85,West,268,0.0,0.0,87,0.00,,---,0.00,VWS V14.01,2013-06-30 23:09:00,
2013-06-30 19:10:00,73.5,69.4,29.85,SW,218,1.0,1.0,87,0.00,,---,0.00,VWS V14.01,2013-06-30 23:10:00,
2013-06-30 19:11:00,73.5,69.4,29.85,SE,143,1.0,1.0,87,0.00,,---,0.00,VWS V14.01,2013-06-30 23:11:00,
2013-06-30 19:12:00,73.4,69.3,29.85,SSE,165,1.0,1.0,87,0.00,,---,0.00,VWS V14.01,2013-06-30 23:12:00,
2013-06-30 19:13:00,73.4,69.3,29.85,South,171,0.0,0.0,87,0.00,,---,0.00,VWS V14.01,2013-06-30 23:13:00,
2013-06-30 19:14:00,73.3,69.2,29.85,South,171,0.0,0.0,87,0.00,,---,0.00,VWS V14.01,2013-06-30 23:14:00,
2013-06-30 19:15:00,73.3,69.2,29.85,South,171,0.0,0.0,87,0.01,,---,0.01,VWS V14.01,2013-06-30 23:15:00,
2013-06-30 19:16:00,73.3,69.5,29.85,WSW,248,0.0,0.0,88,0.01,,---,0.01,VWS V14.01,2013-06-30 23:16:00,
2013-06-30 19:17:00,73.3,69.5,29.85,SSW,213,0.0,0.0,88,0.01,,---,0.01,VWS V14.01,2013-06-30 23:17:00,
2013-06-30 19:18:00,73.1,69.3,29.86,SW,236,0.0,1.0,88,0.02,,---,0.02,VWS V14.01,2013-06-30 23:18:00,
2013-06-30 19:19:00,73.1,69.3,29.86,SW,236,0.0,1.0,88,0.02,,---,0.02,VWS V14.01,2013-06-30 23:19:00,
2013-06-30 19:20:00,73.1,69.3,29.86,SW,236,0.0,0.0,88,0.02,,---,0.02,VWS V14.01,2013-06-30 23:20:00,
2013-06-30 19:21:00,73.1,69.7,29.86,SW,236,0.0,0.0,89,0.02,,---,0.02,VWS V14.01,2013-06-30 23:21:00,
2013-06-30 19:22:00,73.0,69.6,29.86,SW,223,1.0,2.0,89,0.02,,---,0.02,VWS V14.01,2013-06-30 23:22:00,
2013-06-30 19:23:00,73.0,69.6,29.86,WSW,240,0.0,0.0,89,0.02,,---,0.02,VWS V14.01,2013-06-30 23:23:00,
2013-06-30 19:24:00,73.0,69.6,29.86,WSW,240,0.0,0.0,89,0.02,,---,0.02,VWS V14.01,2013-06-30 23:24:00,
2013-06-30 19:25:00,72.9,69.5,29.86,WSW,242,2.0,2.0,89,0.02,,---,0.02,VWS V14.01,2013-06-30 23:25:00,
2013-06-30 19:26:00,72.8,69.4,29.86,SW,233,2.0,2.0,89,0.02,,---,0.02,VWS V14.01,2013-06-30 23:26:00,
2013-06-30 19:27:00,72.7,69.3,29.86,SW,230,2.0,2.0,89,0.02,,---,0.02,VWS V14.01,2013-06-30 23:27:00,
2013-06-30 19:28:00,72.6,69.2,29.86,SW,233,1.0,3.0,89,0.02,,---,0.02,VWS V14.01,2013-06-30 23:28:00,
2013-06-30 19:29:00,72.6,69.2,29.86,SW,236,1.0,3.0,89,0.03,,---,0.03,VWS V14.01,2013-06-30 23:29:00,
2013-06-30 19:30:00,72.6,69.5,29.86,WSW,242,2.0,2.0,90,0.03,,---,0.03,VWS V14.01,2013-06-30 23:30:00,
2013-06-30 19:31:00,72.5,69.4,29.86,SW,224,2.0,3.0,90,0.03,,---,0.03,VWS V14.01,2013-06-30 23:31:00,
2013-06-30 19:32:00,72.5,69.4,29.85,WSW,238,2.0,2.0,90,0.03,,---,0.03,VWS V14.01,2013-06-30 23:32:00,
2013-06-30 19:33:00,72.5,69.7,29.85,South,191,0.0,1.0,91,0.03,,---,0.03,VWS V14.01,2013-06-30 23:33:00,
2013-06-30 19:34:00,72.5,69.7,29.85,South,191,0.0,1.0,91,0.03,,---,0.03,VWS V14.01,2013-06-30 23:34:00,
2013-06-30 19:35:00,72.5,69.7,29.85,WSW,242,1.0,2.0,91,0.03,,---,0.03,VWS V14.01,2013-06-30 23:35:00,
2013-06-30 19:36:00,72.5,69.7,29.85,West,261,0.0,2.0,91,0.03,,---,0.03,VWS V14.01,2013-06-30 23:36:00,
2013-06-30 19:37:00,72.5,69.7,29.85,SW,236,1.0,1.0,91,0.03,,---,0.03,VWS V14.01,2013-06-30 23:37:00,
2013-06-30 19:38:00,72.5,70.1,29.86,WSW,237,0.0,0.0,92,0.03,,---,0.03,VWS V14.01,2013-06-30 23:38:00,
2013-06-30 19:39:00,72.5,70.1,29.86,South,173,1.0,1.0,92,0.03,,---,0.03,VWS V14.01,2013-06-30 23:39:00,
2013-06-30 19:40:00,72.5,70.1,29.86,South,182,0.0,1.0,92,0.03,,---,0.03,VWS V14.01,2013-06-30 23:40:00,
2013-06-30 19:41:00,72.5,70.1,29.86,SSE,167,1.0,2.0,92,0.03,,---,0.03,VWS V14.01,2013-06-30 23:41:00,
2013-06-30 19:42:00,72.4,69.9,29.86,South,182,1.0,2.0,92,0.03,,---,0.03,VWS V14.01,2013-06-30 23:42:00,
2013-06-30 19:43:00,72.5,70.1,29.86,South,184,0.0,1.0,92,0.03,,---,0.03,VWS V14.01,2013-06-30 23:43:00,
2013-06-30 19:44:00,72.5,70.1,29.86,South,178,0.0,1.0,92,0.03,,---,0.03,VWS V14.01,2013-06-30 23:44:00,
2013-06-30 19:45:00,72.4,69.9,29.86,South,178,0.0,0.0,92,0.03,,---,0.03,VWS V14.01,2013-06-30 23:45:00,
2013-06-30 19:46:00,72.4,69.9,29.86,South,178,0.0,0.0,92,0.03,,---,0.03,VWS V14.01,2013-06-30 23:46:00,
2013-06-30 19:47:00,72.5,70.1,29.86,SE,129,1.0,1.0,92,0.03,,---,0.03,VWS V14.01,2013-06-30 23:47:00,
2013-06-30 19:48:00,72.5,70.1,29.86,ESE,107,1.0,3.0,92,0.03,,---,0.03,VWS V14.01,2013-06-30 23:48:00,
2013-06-30 19:49:00,72.5,70.1,29.86,ESE,107,2.0,3.0,92,0.03,,---,0.03,VWS V14.01,2013-06-30 23:49:00,
2013-06-30 19:50:00,72.4,69.9,29.86,ESE,109,1.0,2.0,92,0.03,,---,0.03,VWS V14.01,2013-06-30 23:50:00,
2013-06-30 19:51:00,72.5,70.1,29.86,ESE,105,1.0,1.0,92,0.03,,---,0.03,VWS V14.01,2013-06-30 23:51:00,
2013-06-30 19:52:00,72.4,70.3,29.86,SSE,152,2.0,2.0,93,0.03,,---,0.03,VWS V14.01,2013-06-30 23:52:00,
2013-06-30 19:53:00,72.4,69.9,29.86,SE,138,1.0,2.0,92,0.03,,---,0.03,VWS V14.01,2013-06-30 23:53:00,
2013-06-30 19:54:00,72.4,69.9,29.86,SE,137,1.0,2.0,92,0.03,,---,0.03,VWS V14.01,2013-06-30 23:54:00,
2013-06-30 19:55:00,72.3,69.8,29.86,SE,138,0.0,1.0,92,0.03,,---,0.03,VWS V14.01,2013-06-30 23:55:00,
2013-06-30 19:56:00,72.3,70.2,29.86,SSE,159,2.0,2.0,93,0.03,,---,0.03,VWS V14.01,2013-06-30 23:56:00,
2013-06-30 19:57:00,72.3,70.2,29.86,ESE,117,0.0,2.0,93,0.03,,---,0.03,VWS V14.01,2013-06-30 23:57:00,
2013-06-30 19:58:00,72.3,70.2,29.86,WSW,241,1.0,1.0,93,0.03,,---,0.03,VWS V14.01,2013-06-30 23:58:00,
2013-06-30 19:59:00,72.3,70.2,29.86,WSW,241,1.0,1.0,93,0.03,,---,0.03,VWS V14.01,2013-06-30 23:59:00,
2013-06-30 20:00:00,72.3,70.2,29.86,WSW,241,1.0,1.0,93,0.03,,---,0.03,VWS V14.01,2013-07-01 00:00:00,
2013-06-30 20:01:00,72.4,70.3,29.86,WSW,241,0.0,1.0,93,0.03,,---,0.03,VWS V14.01,2013-07-01 00:01:00,
2013-06-30 20:02:00,72.4,70.3,29.86,South,184,1.0,1.0,93,0.03,,---,0.03,VWS V14.01,2013-07-01 00:02:00,
2013-06-30 20:03:00,72.4,70.3,29.87,ESE,121,0.0,2.0,93,0.03,,---,0.03,VWS V14.01,2013-07-01 00:03:00,
2013-06-30 20:04:00,72.4,70.3,29.87,SE,132,1.0,2.0,93,0.03,,---,0.03,VWS V14.01,2013-07-01 00:04:00,
2013-06-30 20:05:00,72.4,70.3,29.86,SSE,162,3.0,3.0,93,0.03,,---,0.03,VWS V14.01,2013-07-01 00:05:00,
2013-06-30 20:06:00,72.4,70.3,29.87,SE,141,2.0,4.0,93,0.04,,---,0.04,VWS V14.01,2013-07-01 00:06:00,
2013-06-30 20:07:00,72.4,70.3,29.87,South,173,2.0,4.0,93,0.04,,---,0.04,VWS V14.01,2013-07-01 00:07:00,
2013-06-30 20:08:00,72.3,70.2,29.87,ESE,107,2.0,3.0,93,0.04,,---,0.04,VWS V14.01,2013-07-01 00:08:00,
2013-06-30 20:09:00,72.3,70.2,29.87,SSE,157,1.0,3.0,93,0.04,,---,0.04,VWS V14.01,2013-07-01 00:09:00,
2013-06-30 20:10:00,72.3,70.2,29.87,SE,140,1.0,3.0,93,0.05,,---,0.05,VWS V14.01,2013-07-01 00:10:00,
2013-06-30 20:11:00,72.2,70.1,29.87,SW,225,3.0,4.0,93,0.05,,---,0.05,VWS V14.01,2013-07-01 00:11:00,
2013-06-30 20:12:00,72.2,70.1,29.87,South,180,3.0,3.0,93,0.05,,---,0.05,VWS V14.01,2013-07-01 00:12:00,
2013-06-30 20:13:00,72.2,70.1,29.86,West,277,0.0,0.0,93,0.06,,---,0.06,VWS V14.01,2013-07-01 00:13:00,
2013-06-30 20:14:00,72.2,70.1,29.86,West,277,0.0,0.0,93,0.06,,---,0.06,VWS V14.01,2013-07-01 00:14:00,
2013-06-30 20:15:00,72.2,70.1,29.86,West,279,0.0,0.0,93,0.06,,---,0.06,VWS V14.01,2013-07-01 00:15:00,
2013-06-30 20:16:00,72.2,70.1,29.86,SE,128,0.0,0.0,93,0.05,,---,0.06,VWS V14.01,2013-07-01 00:16:00,
2013-06-30 20:17:00,72.2,70.1,29.86,SE,138,0.0,1.0,93,0.05,,---,0.06,VWS V14.01,2013-07-01 00:17:00,
2013-06-30 20:18:00,72.1,70.0,29.86,SSE,159,4.0,4.0,93,0.06,,---,0.07,VWS V14.01,2013-07-01 00:18:00,
2013-06-30 20:19:00,72.1,70.0,29.86,SSW,213,1.0,4.0,93,0.06,,---,0.07,VWS V14.01,2013-07-01 00:19:00,
2013-06-30 20:20:00,72.1,70.0,29.86,SSE,157,2.0,3.0,93,0.05,,---,0.07,VWS V14.01,2013-07-01 00:20:00,
2013-06-30 20:21:00,72.1,70.3,29.86,South,179,1.0,2.0,94,0.05,,---,0.07,VWS V14.01,2013-07-01 00:21:00,
2013-06-30 20:22:00,72.1,70.3,29.86,West,261,0.0,1.0,94,0.05,,---,0.07,VWS V14.01,2013-07-01 00:22:00,
2013-06-30 20:23:00,72.1,70.3,29.86,SW,217,0.0,0.0,94,0.05,,---,0.07,VWS V14.01,2013-07-01 00:23:00,
2013-06-30 20:24:00,72.1,70.3,29.86,SW,217,0.0,0.0,94,0.05,,---,0.07,VWS V14.01,2013-07-01 00:24:00,
2013-06-30 20:25:00,72.1,70.3,29.86,SSE,159,1.0,1.0,94,0.05,,---,0.07,VWS V14.01,2013-07-01 00:25:00,
2013-06-30 20:26:00,72.1,70.3,29.86,SE,124,1.0,1.0,94,0.06,,---,0.08,VWS V14.01,2013-07-01 00:26:00,
2013-06-30 20:27:00,72.1,70.3,29.86,SE,138,1.0,2.0,94,0.06,,---,0.08,VWS V14.01,2013-07-01 00:27:00,
2013-06-30 20:28:00,72.1,70.3,29.86,SSE,156,1.0,1.0,94,0.06,,---,0.08,VWS V14.01,2013-07-01 00:28:00,
2013-06-30 20:29:00,72.0,70.2,29.86,SSE,156,0.0,1.0,94,0.06,,---,0.08,VWS V14.01,2013-07-01 00:29:00,
2013-06-30 20:30:00,72.1,70.3,29.87,SSE,156,1.0,2.0,94,0.06,,---,0.09,VWS V14.01,2013-07-01 00:30:00,
2013-06-30 20:31:00,72.1,70.3,29.87,South,175,1.0,1.0,94,0.06,,---,0.09,VWS V14.01,2013-07-01 00:31:00,
2013-06-30 20:32:00,72.1,70.3,29.87,South,169,1.0,1.0,94,0.06,,---,0.09,VWS V14.01,2013-07-01 00:32:00,
2013-06-30 20:33:00,72.1,70.3,29.87,SSE,152,3.0,3.0,94,0.06,,---,0.09,VWS V14.01,2013-07-01 00:33:00,
2013-06-30 20:34:00,72.1,70.3,29.87,SE,140,1.0,3.0,94,0.06,,---,0.09,VWS V14.01,2013-07-01 00:34:00,
2013-06-30 20:35:00,72.1,70.3,29.87,SSE,153,1.0,1.0,94,0.07,,---,0.10,VWS V14.01,2013-07-01 00:35:00,
2013-06-30 20:36:00,72.1,70.3,29.87,South,169,2.0,2.0,94,0.07,,---,0.10,VWS V14.01,2013-07-01 00:36:00,
2013-06-30 20:37:00,72.1,70.3,29.87,South,180,6.0,6.0,94,0.07,,---,0.10,VWS V14.01,2013-07-01 00:37:00,
2013-06-30 20:38:00,72.1,70.3,29.87,West,277,1.0,2.0,94,0.07,,---,0.10,VWS V14.01,2013-07-01 00:38:00,
2013-06-30 20:39:00,72.1,70.3,29.87,SE,144,2.0,4.0,94,0.07,,---,0.10,VWS V14.01,2013-07-01 00:39:00,
2013-06-30 20:40:00,72.1,70.3,29.87,East,84,1.0,2.0,94,0.07,,---,0.10,VWS V14.01,2013-07-01 00:40:00,
2013-06-30 20:41:00,72.1,70.3,29.86,SSE,150,1.0,2.0,94,0.07,,---,0.10,VWS V14.01,2013-07-01 00:41:00,
2013-06-30 20:42:00,72.1,70.3,29.86,NE,38,0.0,2.0,94,0.08,,---,0.11,VWS V14.01,2013-07-01 00:42:00,
2013-06-30 20:43:00,72.1,70.3,29.86,NE,39,1.0,1.0,94,0.08,,---,0.11,VWS V14.01,2013-07-01 00:43:00,
2013-06-30 20:44:00,72.1,70.3,29.86,NE,39,1.0,1.0,94,0.08,,---,0.11,VWS V14.01,2013-07-01 00:44:00,
2013-06-30 20:45:00,72.1,70.3,29.86,NE,38,0.0,1.0,94,0.08,,---,0.11,VWS V14.01,2013-07-01 00:45:00,
2013-06-30 20:46:00,72.1,70.3,29.86,NE,40,0.0,1.0,94,0.08,,---,0.11,VWS V14.01,2013-07-01 00:46:00,
2013-06-30 20:47:00,72.2,70.4,29.86,ENE,65,0.0,1.0,94,0.08,,---,0.11,VWS V14.01,2013-07-01 00:47:00,
2013-06-30 20:48:00,72.2,70.4,29.85,SW,219,0.0,0.0,94,0.08,,---,0.11,VWS V14.01,2013-07-01 00:48:00,
2013-06-30 20:49:00,72.2,70.4,29.85,West,260,1.0,1.0,94,0.08,,---,0.11,VWS V14.01,2013-07-01 00:49:00,
2013-06-30 20:50:00,72.2,70.4,29.85,West,261,0.0,1.0,94,0.08,,---,0.11,VWS V14.01,2013-07-01 00:50:00,
2013-06-30 20:51:00,72.2,70.4,29.86,West,261,0.0,1.0,94,0.08,,---,0.11,VWS V14.01,2013-07-01 00:51:00,
2013-06-30 20:52:00,72.2,70.4,29.86,West,261,0.0,0.0,94,0.08,,---,0.11,VWS V14.01,2013-07-01 00:52:00,
2013-06-30 20:53:00,72.2,70.7,29.86,WSW,247,0.0,0.0,95,0.08,,---,0.11,VWS V14.01,2013-07-01 00:53:00,
2013-06-30 20:54:00,72.2,70.7,29.86,ESE,123,1.0,1.0,95,0.08,,---,0.11,VWS V14.01,2013-07-01 00:54:00,
2013-06-30 20:55:00,72.3,70.5,29.86,ESE,115,2.0,3.0,94,0.08,,---,0.11,VWS V14.01,2013-07-01 00:55:00,
2013-06-30 20:56:00,72.2,70.4,29.86,ESE,105,2.0,2.0,94,0.08,,---,0.11,VWS V14.01,2013-07-01 00:56:00,
2013-06-30 20:57:00,72.2,70.4,29.86,ESE,105,2.0,2.0,94,0.08,,---,0.11,VWS V14.01,2013-07-01 00:57:00,
2013-06-30 20:58:00,72.1,70.3,29.86,SE,135,1.0,2.0,94,0.08,,---,0.11,VWS V14.01,2013-07-01 00:58:00,
2013-06-30 20:59:00,72.2,70.4,29.86,ESE,115,2.0,2.0,94,0.08,,---,0.11,VWS V14.01,2013-07-01 00:59:00,
2013-06-30 21:00:00,72.1,70.3,29.86,ESE,102,1.0,2.0,94,0.08,,---,0.11,VWS V14.01,2013-07-01 01:00:00,
2013-06-30 21:01:00,72.1,70.3,29.86,SSE,168,3.0,3.0,94,0.08,,---,0.11,VWS V14.01,2013-07-01 01:01:00,
2013-06-30 21:02:00,72.1,70.3,29.86,East,91,2.0,3.0,94,0.08,,---,0.11,VWS V14.01,2013-07-01 01:02:00,
2013-06-30 21:03:00,72.1,70.3,29.86,East,98,2.0,2.0,94,0.08,,---,0.11,VWS V14.01,2013-07-01 01:03:00,
2013-06-30 21:04:00,72.0,70.2,29.86,SE,133,2.0,2.0,94,0.08,,---,0.11,VWS V14.01,2013-07-01 01:04:00,
2013-06-30 21:05:00,72.0,70.2,29.86,East,90,2.0,3.0,94,0.08,,---,0.11,VWS V14.01,2013-07-01 01:05:00,
2013-06-30 21:06:00,72.0,70.2,29.86,East,96,1.0,2.0,94,0.08,,---,0.11,VWS V14.01,2013-07-01 01:06:00,
2013-06-30 21:07:00,72.0,70.2,29.87,SSW,202,3.0,4.0,94,0.07,,---,0.11,VWS V14.01,2013-07-01 01:07:00,
2013-06-30 21:08:00,72.0,70.2,29.87,SSE,159,3.0,3.0,94,0.07,,---,0.11,VWS V14.01,2013-07-01 01:08:00,
2013-06-30 21:09:00,72.0,70.2,29.87,SE,128,1.0,3.0,94,0.07,,---,0.11,VWS V14.01,2013-07-01 01:09:00,
2013-06-30 21:10:00,72.0,70.5,29.87,East,98,2.0,3.0,95,0.07,,---,0.11,VWS V14.01,2013-07-01 01:10:00,
2013-06-30 21:11:00,72.0,70.2,29.86,East,98,1.0,2.0,94,0.06,,---,0.11,VWS V14.01,2013-07-01 01:11:00,
2013-06-30 21:12:00,72.0,70.2,29.87,SE,146,1.0,1.0,94,0.06,,---,0.11,VWS V14.01,2013-07-01 01:12:00,
2013-06-30 21:13:00,72.0,70.5,29.87,South,172,1.0,1.0,95,0.06,,---,0.11,VWS V14.01,2013-07-01 01:13:00,
2013-06-30 21:14:00,72.0,70.5,29.87,South,169,1.0,1.0,95,0.06,,---,0.11,VWS V14.01,2013-07-01 01:14:00,
2013-06-30 21:15:00,72.0,70.5,29.87,SE,145,0.0,2.0,95,0.05,,---,0.11,VWS V14.01,2013-07-01 01:15:00,
2013-06-30 21:16:00,72.0,70.5,29.87,SE,141,1.0,1.0,95,0.05,,---,0.11,VWS V14.01,2013-07-01 01:16:00,
2013-06-30 21:17:00,72.0,70.5,29.87,SE,141,0.0,1.0,95,0.05,,---,0.11,VWS V14.01,2013-07-01 01:17:00,
2013-06-30 21:18:00,72.0,70.5,29.87,South,172,1.0,1.0,95,0.04,,---,0.11,VWS V14.01,2013-07-01 01:18:00,
2013-06-30 21:19:00,72.0,70.5,29.87,South,172,0.0,1.0,95,0.04,,---,0.11,VWS V14.01,2013-07-01 01:19:00,
2013-06-30 21:20:00,72.0,70.5,29.87,SSE,168,1.0,1.0,95,0.04,,---,0.11,VWS V14.01,2013-07-01 01:20:00,
2013-06-30 21:21:00,72.0,70.5,29.87,SW,225,1.0,2.0,95,0.04,,---,0.11,VWS V14.01,2013-07-01 01:21:00,
2013-06-30 21:22:00,72.0,70.5,29.87,ESE,120,0.0,2.0,95,0.04,,---,0.11,VWS V14.01,2013-07-01 01:22:00,
2013-06-30 21:23:00,72.0,70.5,29.87,SSE,165,2.0,3.0,95,0.04,,---,0.11,VWS V14.01,2013-07-01 01:23:00,
2013-06-30 21:24:00,72.0,70.5,29.87,SE,136,2.0,3.0,95,0.04,,---,0.11,VWS V14.01,2013-07-01 01:24:00,
2013-06-30 21:25:00,72.0,70.5,29.87,SE,145,2.0,2.0,95,0.04,,---,0.11,VWS V14.01,2013-07-01 01:25:00,
2013-06-30 21:26:00,72.0,70.5,29.88,SE,142,2.0,3.0,95,0.04,,---,0.11,VWS V14.01,2013-07-01 01:26:00,
2013-06-30 21:27:00,72.0,70.5,29.88,South,175,2.0,3.0,95,0.03,,---,0.11,VWS V14.01,2013-07-01 01:27:00,
2013-06-30 21:28:00,72.0,70.5,29.88,SSE,147,2.0,3.0,95,0.03,,---,0.11,VWS V14.01,2013-07-01 01:28:00,
2013-06-30 21:29:00,72.0,70.5,29.88,SSE,155,1.0,3.0,95,0.03,,---,0.11,VWS V14.01,2013-07-01 01:29:00,
2013-06-30 21:30:00,72.0,70.5,29.88,SE,146,1.0,1.0,95,0.03,,---,0.11,VWS V14.01,2013-07-01 01:30:00,
2013-06-30 21:31:00,72.0,70.5,29.88,SE,125,1.0,4.0,95,0.02,,---,0.11,VWS V14.01,2013-07-01 01:31:00,
2013-06-30 21:32:00,72.0,70.5,29.88,South,178,0.0,1.0,95,0.02,,---,0.11,VWS V14.01,2013-07-01 01:32:00,
2013-06-30 21:33:00,72.0,70.5,29.88,South,169,2.0,3.0,95,0.02,,---,0.11,VWS V14.01,2013-07-01 01:33:00,
2013-06-30 21:34:00,72.1,70.6,29.88,SE,128,1.0,3.0,95,0.02,,---,0.11,VWS V14.01,2013-07-01 01:34:00,
2013-06-30 21:35:00,72.1,70.6,29.88,SE,140,0.0,2.0,95,0.02,,---,0.11,VWS V14.01,2013-07-01 01:35:00,
2013-06-30 21:36:00,72.1,70.6,29.88,SSW,192,1.0,1.0,95,0.01,,---,0.11,VWS V14.01,2013-07-01 01:36:00,
2013-06-30 21:37:00,72.1,70.6,29.88,WSW,246,0.0,2.0,95,0.01,,---,0.11,VWS V14.01,2013-07-01 01:37:00,
2013-06-30 21:38:00,72.1,70.6,29.88,ESE,107,2.0,2.0,95,0.01,,---,0.11,VWS V14.01,2013-07-01 01:38:00,
2013-06-30 21:39:00,72.1,70.6,29.88,SE,136,4.0,4.0,95,0.01,,---,0.11,VWS V14.01,2013-07-01 01:39:00,
2013-06-30 21:40:00,72.1,70.6,29.88,WSW,248,2.0,4.0,95,0.01,,---,0.11,VWS V14.01,2013-07-01 01:40:00,
2013-06-30 21:41:00,72.1,70.6,29.88,SE,145,1.0,2.0,95,0.01,,---,0.11,VWS V14.01,2013-07-01 01:41:00,
2013-06-30 21:42:00,72.0,70.5,29.88,SSE,159,1.0,4.0,95,0.01,,---,0.11,VWS V14.01,2013-07-01 01:42:00,
2013-06-30 21:43:00,72.1,70.6,29.88,SE,146,3.0,4.0,95,0.00,,---,0.11,VWS V14.01,2013-07-01 01:43:00,
2013-06-30 21:44:00,72.1,70.6,29.88,ESE,119,1.0,4.0,95,0.00,,---,0.11,VWS V14.01,2013-07-01 01:44:00,
2013-06-30 21:45:00,72.0,70.5,29.88,SE,128,1.0,5.0,95,0.00,,---,0.11,VWS V14.01,2013-07-01 01:45:00,
2013-06-30 21:46:00,72.0,70.5,29.88,SW,214,1.0,5.0,95,0.00,,---,0.11,VWS V14.01,2013-07-01 01:46:00,
2013-06-30 21:47:00,72.0,70.5,29.88,SW,225,3.0,3.0,95,0.00,,---,0.11,VWS V14.01,2013-07-01 01:47:00,
2013-06-30 21:48:00,72.0,70.5,29.88,South,179,2.0,3.0,95,0.00,,---,0.11,VWS V14.01,2013-07-01 01:48:00,
2013-06-30 21:49:00,72.0,70.5,29.88,South,184,2.0,3.0,95,0.00,,---,0.11,VWS V14.01,2013-07-01 01:49:00,
2013-06-30 21:50:00,72.0,70.5,29.88,SSE,161,0.0,2.0,95,0.00,,---,0.11,VWS V14.01,2013-07-01 01:50:00,
2013-06-30 21:51:00,72.0,70.5,29.89,South,178,1.0,3.0,95,0.00,,---,0.11,VWS V14.01,2013-07-01 01:51:00,
2013-06-30 21:52:00,72.0,70.5,29.89,South,175,3.0,3.0,95,0.00,,---,0.11,VWS V14.01,2013-07-01 01:52:00,
2013-06-30 21:53:00,72.0,70.5,29.89,SSE,168,2.0,2.0,95,0.00,,---,0.11,VWS V14.01,2013-07-01 01:53:00,
2013-06-30 21:54:00,72.0,70.5,29.89,SSE,148,2.0,3.0,95,0.00,,---,0.11,VWS V14.01,2013-07-01 01:54:00,
2013-06-30 21:55:00,72.0,70.5,29.89,SSW,196,1.0,2.0,95,0.00,,---,0.11,VWS V14.01,2013-07-01 01:55:00,
2013-06-30 21:56:00,72.1,70.6,29.89,South,186,1.0,1.0,95,0.00,,---,0.11,VWS V14.01,2013-07-01 01:56:00,
2013-06-30 21:57:00,72.0,70.5,29.89,SE,146,2.0,4.0,95,0.01,,---,0.12,VWS V14.01,2013-07-01 01:57:00,
2013-06-30 21:58:00,72.0,70.5,29.89,SE,136,1.0,3.0,95,0.01,,---,0.12,VWS V14.01,2013-07-01 01:58:00,
2013-06-30 21:59:00,72.0,70.5,29.89,South,171,2.0,3.0,95,0.01,,---,0.12,VWS V14.01,2013-07-01 01:59:00,
2013-06-30 22:00:00,72.0,70.5,29.89,SE,141,0.0,5.0,95,0.01,,---,0.12,VWS V14.01,2013-07-01 02:00:00,
2013-06-30 22:01:00,72.0,70.5,29.89,WSW,242,1.0,3.0,95,0.02,,---,0.13,VWS V14.01,2013-07-01 02:01:00,
2013-06-30 22:02:00,72.0,70.5,29.90,SW,215,1.0,2.0,95,0.02,,---,0.13,VWS V14.01,2013-07-01 02:02:00,
2013-06-30 22:03:00,72.1,70.6,29.89,West,279,0.0,1.0,95,0.02,,---,0.13,VWS V14.01,2013-07-01 02:03:00,
2013-06-30 22:04:00,72.0,70.5,29.89,South,182,1.0,2.0,95,0.02,,---,0.13,VWS V14.01,2013-07-01 02:04:00,
2013-06-30 22:05:00,72.0,70.5,29.89,NE,36,1.0,2.0,95,0.03,,---,0.14,VWS V14.01,2013-07-01 02:05:00,
2013-06-30 22:06:00,72.0,70.5,29.89,SSE,164,0.0,1.0,95,0.03,,---,0.14,VWS V14.01,2013-07-01 02:06:00,
2013-06-30 22:07:00,72.0,70.5,29.89,South,190,1.0,1.0,95,0.03,,---,0.14,VWS V14.01,2013-07-01 02:07:00,
2013-06-30 22:08:00,72.0,70.5,29.89,SW,232,0.0,0.0,95,0.05,,---,0.16,VWS V14.01,2013-07-01 02:08:00,
2013-06-30 22:09:00,72.0,70.5,29.89,West,259,1.0,1.0,95,0.05,,---,0.16,VWS V14.01,2013-07-01 02:09:00,
2013-06-30 22:10:00,72.0,70.5,29.90,SSW,203,2.0,2.0,95,0.05,,---,0.16,VWS V14.01,2013-07-01 02:10:00,
2013-06-30 22:11:00,72.0,70.5,29.89,SE,136,1.0,2.0,95,0.05,,---,0.16,VWS V14.01,2013-07-01 02:11:00,
2013-06-30 22:12:00,72.0,70.5,29.89,West,272,2.0,3.0,95,0.06,,---,0.17,VWS V14.01,2013-07-01 02:12:00,
2013-06-30 22:13:00,72.0,70.5,29.90,SW,217,4.0,4.0,95,0.06,,---,0.17,VWS V14.01,2013-07-01 02:13:00,
2013-06-30 22:14:00,71.9,70.4,29.90,SW,234,1.0,5.0,95,0.06,,---,0.17,VWS V14.01,2013-07-01 02:14:00,
2013-06-30 22:15:00,71.9,70.4,29.90,SW,236,1.0,1.0,95,0.06,,---,0.17,VWS V14.01,2013-07-01 02:15:00,
2013-06-30 22:16:00,71.9,70.4,29.90,South,190,4.0,4.0,95,0.06,,---,0.17,VWS V14.01,2013-07-01 02:16:00,
2013-06-30 22:17:00,71.9,70.4,29.90,West,280,1.0,6.0,95,0.06,,---,0.17,VWS V14.01,2013-07-01 02:17:00,
2013-06-30 22:18:00,71.9,70.4,29.90,WSW,242,0.0,0.0,95,0.07,,---,0.18,VWS V14.01,2013-07-01 02:18:00,
2013-06-30 22:19:00,71.9,70.4,29.90,West,275,4.0,5.0,95,0.07,,---,0.18,VWS V14.01,2013-07-01 02:19:00,
2013-06-30 22:20:00,71.8,70.3,29.90,South,184,3.0,4.0,95,0.07,,---,0.18,VWS V14.01,2013-07-01 02:20:00,
2013-06-30 22:21:00,71.8,70.3,29.90,SW,225,5.0,5.0,95,0.07,,---,0.18,VWS V14.01,2013-07-01 02:21:00,
2013-06-30 22:22:00,71.8,70.3,29.89,WSW,240,2.0,5.0,95,0.07,,---,0.18,VWS V14.01,2013-07-01 02:22:00,
2013-06-30 22:23:00,71.7,70.2,29.89,West,272,2.0,3.0,95,0.07,,---,0.18,VWS V14.01,2013-07-01 02:23:00,
2013-06-30 22:24:00,71.7,70.2,29.89,SW,233,5.0,5.0,95,0.07,,---,0.18,VWS V14.01,2013-07-01 02:24:00,
2013-06-30 22:25:00,71.7,70.2,29.89,WSW,257,3.0,5.0,95,0.07,,---,0.18,VWS V14.01,2013-07-01 02:25:00,
2013-06-30 22:26:00,71.6,70.1,29.89,SW,226,2.0,3.0,95,0.07,,---,0.18,VWS V14.01,2013-07-01 02:26:00,
2013-06-30 22:27:00,71.6,70.1,29.89,West,279,1.0,2.0,95,0.07,,---,0.18,VWS V14.01,2013-07-01 02:27:00,
2013-06-30 22:28:00,71.6,70.1,29.89,West,269,3.0,3.0,95,0.07,,---,0.18,VWS V14.01,2013-07-01 02:28:00,
2013-06-30 22:29:00,71.6,70.1,29.89,SSW,210,3.0,6.0,95,0.07,,---,0.18,VWS V14.01,2013-07-01 02:29:00,
2013-06-30 22:30:00,71.5,70.0,29.89,SW,226,0.0,3.0,95,0.07,,---,0.18,VWS V14.01,2013-07-01 02:30:00,
2013-06-30 22:31:00,71.5,70.0,29.89,WSW,242,2.0,6.0,95,0.07,,---,0.18,VWS V14.01,2013-07-01 02:31:00,
2013-06-30 22:32:00,71.5,70.0,29.89,SW,227,2.0,3.0,95,0.07,,---,0.18,VWS V14.01,2013-07-01 02:32:00,
2013-06-30 22:33:00,71.5,70.0,29.89,SW,215,2.0,2.0,95,0.08,,---,0.19,VWS V14.01,2013-07-01 02:33:00,
2013-06-30 22:34:00,71.5,70.0,29.89,SSE,148,2.0,2.0,95,0.08,,---,0.19,VWS V14.01,2013-07-01 02:34:00,
2013-06-30 22:35:00,71.5,70.0,29.89,South,171,1.0,3.0,95,0.08,,---,0.19,VWS V14.01,2013-07-01 02:35:00,
2013-06-30 22:36:00,71.5,70.0,29.89,WSW,245,2.0,3.0,95,0.08,,---,0.19,VWS V14.01,2013-07-01 02:36:00,
2013-06-30 22:37:00,71.4,69.9,29.89,SSW,208,2.0,3.0,95,0.08,,---,0.19,VWS V14.01,2013-07-01 02:37:00,
2013-06-30 22:38:00,71.4,69.9,29.89,SW,226,4.0,4.0,95,0.08,,---,0.19,VWS V14.01,2013-07-01 02:38:00,
2013-06-30 22:39:00,71.5,70.0,29.89,South,190,1.0,4.0,95,0.08,,---,0.19,VWS V14.01,2013-07-01 02:39:00,
2013-06-30 22:40:00,71.5,70.0,29.89,SW,234,1.0,3.0,95,0.09,,---,0.20,VWS V14.01,2013-07-01 02:40:00,
2013-06-30 22:41:00,71.5,70.0,29.89,SW,233,1.0,1.0,95,0.09,,---,0.20,VWS V14.01,2013-07-01 02:41:00,
2013-06-30 22:42:00,71.5,70.0,29.89,SW,234,0.0,1.0,95,0.09,,---,0.20,VWS V14.01,2013-07-01 02:42:00,
2013-06-30 22:43:00,71.5,70.0,29.89,West,271,2.0,2.0,95,0.09,,---,0.20,VWS V14.01,2013-07-01 02:43:00,
2013-06-30 22:44:00,71.5,70.0,29.89,SW,234,3.0,3.0,95,0.09,,---,0.20,VWS V14.01,2013-07-01 02:44:00,
2013-06-30 22:45:00,71.5,70.0,29.89,SW,215,2.0,3.0,95,0.09,,---,0.20,VWS V14.01,2013-07-01 02:45:00,
2013-06-30 22:46:00,71.5,70.0,29.89,SW,217,0.0,2.0,95,0.10,,---,0.21,VWS V14.01,2013-07-01 02:46:00,
2013-06-30 22:47:00,71.5,70.0,29.89,SSW,207,4.0,4.0,95,0.10,,---,0.21,VWS V14.01,2013-07-01 02:47:00,
2013-06-30 22:48:00,71.5,70.0,29.89,SSW,199,1.0,1.0,95,0.10,,---,0.21,VWS V14.01,2013-07-01 02:48:00,
2013-06-30 22:49:00,71.5,70.0,29.89,SSW,199,0.0,1.0,95,0.10,,---,0.21,VWS V14.01,2013-07-01 02:49:00,
2013-06-30 22:50:00,71.6,70.1,29.89,SSW,198,0.0,0.0,95,0.10,,---,0.21,VWS V14.01,2013-07-01 02:50:00,
2013-06-30 22:51:00,71.6,70.1,29.89,SW,215,1.0,1.0,95,0.10,,---,0.21,VWS V14.01,2013-07-01 02:51:00,
2013-06-30 22:52:00,71.6,70.1,29.89,SW,215,0.0,1.0,95,0.11,,---,0.22,VWS V14.01,2013-07-01 02:52:00,
2013-06-30 22:53:00,71.6,70.1,29.89,ENE,62,1.0,1.0,95,0.11,,---,0.22,VWS V14.01,2013-07-01 02:53:00,
2013-06-30 22:54:00,71.6,70.1,29.89,South,178,3.0,3.0,95,0.11,,---,0.22,VWS V14.01,2013-07-01 02:54:00,
2013-06-30 22:55:00,71.6,70.1,29.89,SW,227,1.0,3.0,95,0.11,,---,0.22,VWS V14.01,2013-07-01 02:55:00,
2013-06-30 22:56:00,71.7,70.2,29.89,SW,236,1.0,3.0,95,0.11,,---,0.22,VWS V14.01,2013-07-01 02:56:00,
2013-06-30 22:57:00,71.7,70.2,29.89,South,178,1.0,1.0,95,0.11,,---,0.22,VWS V14.01,2013-07-01 02:57:00,
2013-06-30 22:58:00,71.7,70.2,29.89,SE,134,1.0,1.0,95,0.10,,---,0.22,VWS V14.01,2013-07-01 02:58:00,
2013-06-30 22:59:00,71.7,70.2,29.89,East,92,1.0,1.0,95,0.10,,---,0.22,VWS V14.01,2013-07-01 02:59:00,
2013-06-30 23:00:00,71.7,70.2,29.89,East,80,1.0,2.0,95,0.10,,---,0.22,VWS V14.01,2013-07-01 03:00:00,
2013-06-30 23:01:00,71.7,70.2,29.89,SE,141,2.0,4.0,95,0.10,,---,0.22,VWS V14.01,2013-07-01 03:01:00,
2013-06-30 23:02:00,71.7,70.2,29.89,ESE,113,1.0,2.0,95,0.09,,---,0.22,VWS V14.01,2013-07-01 03:02:00,
2013-06-30 23:03:00,71.7,70.2,29.89,SE,132,4.0,4.0,95,0.09,,---,0.22,VWS V14.01,2013-07-01 03:03:00,
2013-06-30 23:04:00,71.7,70.2,29.89,SE,146,0.0,4.0,95,0.09,,---,0.22,VWS V14.01,2013-07-01 03:04:00,
2013-06-30 23:05:00,71.7,70.2,29.88,South,175,4.0,4.0,95,0.09,,---,0.22,VWS V14.01,2013-07-01 03:05:00,
2013-06-30 23:06:00,71.7,70.2,29.88,East,82,2.0,4.0,95,0.08,,---,0.22,VWS V14.01,2013-07-01 03:06:00,
2013-06-30 23:07:00,71.7,70.2,29.88,ESE,120,2.0,2.0,95,0.08,,---,0.22,VWS V14.01,2013-07-01 03:07:00,
2013-06-30 23:08:00,71.7,70.2,29.88,East,101,3.0,5.0,95,0.07,,---,0.22,VWS V14.01,2013-07-01 03:08:00,
2013-06-30 23:09:00,71.7,70.2,29.88,ESE,111,2.0,5.0,95,0.07,,---,0.22,VWS V14.01,2013-07-01 03:09:00,
2013-06-30 23:10:00,71.7,70.2,29.88,SE,141,2.0,3.0,95,0.06,,---,0.22,VWS V14.01,2013-07-01 03:10:00,
2013-06-30 23:11:00,71.7,70.2,29.88,ENE,78,1.0,3.0,95,0.06,,---,0.22,VWS V14.01,2013-07-01 03:11:00,
2013-06-30 23:12:00,71.7,70.2,29.88,SSE,156,3.0,3.0,95,0.06,,---,0.22,VWS V14.01,2013-07-01 03:12:00,
2013-06-30 23:13:00,71.7,70.2,29.88,ESE,106,3.0,3.0,95,0.05,,---,0.22,VWS V14.01,2013-07-01 03:13:00,
2013-06-30 23:14:00,71.7,70.2,29.88,East,84,2.0,3.0,95,0.05,,---,0.22,VWS V14.01,2013-07-01 03:14:00,
2013-06-30 23:15:00,71.7,70.2,29.88,East,98,2.0,5.0,95,0.05,,---,0.22,VWS V14.01,2013-07-01 03:15:00,
2013-06-30 23:16:00,71.6,70.1,29.88,East,98,1.0,3.0,95,0.05,,---,0.22,VWS V14.01,2013-07-01 03:16:00,
2013-06-30 23:17:00,71.6,70.1,29.88,ESE,111,3.0,3.0,95,0.05,,---,0.22,VWS V14.01,2013-07-01 03:17:00,
2013-06-30 23:18:00,71.6,70.1,29.88,SE,142,2.0,3.0,95,0.04,,---,0.22,VWS V14.01,2013-07-01 03:18:00,
2013-06-30 23:19:00,71.6,70.1,29.88,South,171,2.0,4.0,95,0.04,,---,0.22,VWS V14.01,2013-07-01 03:19:00,
2013-06-30 23:20:00,71.7,70.2,29.88,ESE,103,3.0,3.0,95,0.04,,---,0.22,VWS V14.01,2013-07-01 03:20:00,
2013-06-30 23:21:00,71.6,70.1,29.88,SE,132,2.0,3.0,95,0.04,,---,0.22,VWS V14.01,2013-07-01 03:21:00,
2013-06-30 23:22:00,71.6,70.1,29.88,ESE,109,2.0,2.0,95,0.04,,---,0.22,VWS V14.01,2013-07-01 03:22:00,
2013-06-30 23:23:00,71.6,70.1,29.88,SE,136,3.0,3.0,95,0.04,,---,0.22,VWS V14.01,2013-07-01 03:23:00,
2013-06-30 23:24:00,71.6,70.1,29.88,SSW,211,3.0,4.0,95,0.04,,---,0.22,VWS V14.01,2013-07-01 03:24:00,
2013-06-30 23:25:00,71.6,70.1,29.88,ESE,119,1.0,3.0,95,0.04,,---,0.22,VWS V14.01,2013-07-01 03:25:00,
2013-06-30 23:26:00,71.6,70.1,29.89,SE,126,0.0,2.0,95,0.04,,---,0.22,VWS V14.01,2013-07-01 03:26:00,
2013-06-30 23:27:00,71.6,70.1,29.89,SE,145,1.0,2.0,95,0.04,,---,0.22,VWS V14.01,2013-07-01 03:27:00,
2013-06-30 23:28:00,71.6,70.4,29.89,SE,145,1.0,1.0,96,0.04,,---,0.22,VWS V14.01,2013-07-01 03:28:00,
2013-06-30 23:29:00,71.7,70.5,29.89,SSW,196,2.0,2.0,96,0.04,,---,0.22,VWS V14.01,2013-07-01 03:29:00,
2013-06-30 23:30:00,71.6,70.4,29.89,South,186,1.0,2.0,96,0.04,,---,0.22,VWS V14.01,2013-07-01 03:30:00,
2013-06-30 23:31:00,71.7,70.5,29.89,South,184,0.0,1.0,96,0.04,,---,0.22,VWS V14.01,2013-07-01 03:31:00,
2013-06-30 23:32:00,71.7,70.5,29.89,SSW,203,2.0,2.0,96,0.04,,---,0.22,VWS V14.01,2013-07-01 03:32:00,
2013-06-30 23:33:00,71.7,70.5,29.89,SSE,154,1.0,2.0,96,0.04,,---,0.22,VWS V14.01,2013-07-01 03:33:00,
2013-06-30 23:34:00,71.7,70.5,29.89,SSE,159,4.0,4.0,96,0.04,,---,0.22,VWS V14.01,2013-07-01 03:34:00,
2013-06-30 23:35:00,71.7,70.5,29.89,SSE,154,2.0,5.0,96,0.03,,---,0.22,VWS V14.01,2013-07-01 03:35:00,
2013-06-30 23:36:00,71.7,70.5,29.89,SSE,153,0.0,2.0,96,0.03,,---,0.22,VWS V14.01,2013-07-01 03:36:00,
2013-06-30 23:37:00,71.7,70.5,29.89,SSE,154,0.0,1.0,96,0.03,,---,0.22,VWS V14.01,2013-07-01 03:37:00,
2013-06-30 23:38:00,71.7,70.5,29.89,SSE,152,1.0,1.0,96,0.03,,---,0.22,VWS V14.01,2013-07-01 03:38:00,
2013-06-30 23:39:00,71.7,70.5,29.89,SSE,165,2.0,2.0,96,0.03,,---,0.22,VWS V14.01,2013-07-01 03:39:00,
2013-06-30 23:40:00,71.7,70.5,29.89,SSE,152,1.0,2.0,96,0.03,,---,0.22,VWS V14.01,2013-07-01 03:40:00,
2013-06-30 23:41:00,71.7,70.5,29.89,SSE,152,0.0,1.0,96,0.02,,---,0.22,VWS V14.01,2013-07-01 03:41:00,
2013-06-30 23:42:00,71.8,70.6,29.89,SSE,167,0.0,2.0,96,0.02,,---,0.22,VWS V14.01,2013-07-01 03:42:00,
2013-06-30 23:43:00,71.8,70.6,29.89,SSE,167,0.0,0.0,96,0.02,,---,0.22,VWS V14.01,2013-07-01 03:43:00,
2013-06-30 23:44:00,71.8,70.6,29.89,South,188,1.0,1.0,96,0.02,,---,0.22,VWS V14.01,2013-07-01 03:44:00,
2013-06-30 23:45:00,71.8,70.6,29.90,South,191,0.0,1.0,96,0.02,,---,0.22,VWS V14.01,2013-07-01 03:45:00,
2013-06-30 23:46:00,71.8,70.6,29.90,WSW,240,1.0,2.0,96,0.02,,---,0.22,VWS V14.01,2013-07-01 03:46:00,
2013-06-30 23:47:00,71.8,70.6,29.90,WSW,246,0.0,1.0,96,0.01,,---,0.22,VWS V14.01,2013-07-01 03:47:00,
2013-06-30 23:48:00,71.8,70.6,29.90,ENE,59,1.0,1.0,96,0.01,,---,0.22,VWS V14.01,2013-07-01 03:48:00,
2013-06-30 23:49:00,71.8,70.6,29.90,West,260,2.0,3.0,96,0.01,,---,0.22,VWS V14.01,2013-07-01 03:49:00,
2013-06-30 23:50:00,71.9,70.7,29.90,WSW,253,1.0,2.0,96,0.01,,---,0.22,VWS V14.01,2013-07-01 03:50:00,
2013-06-30 23:51:00,71.9,70.7,29.90,West,281,0.0,1.0,96,0.01,,---,0.22,VWS V14.01,2013-07-01 03:51:00,
2013-06-30 23:52:00,71.9,70.7,29.90,West,273,2.0,2.0,96,0.01,,---,0.22,VWS V14.01,2013-07-01 03:52:00,
2013-06-30 23:53:00,71.9,70.7,29.90,WSW,252,1.0,2.0,96,0.00,,---,0.22,VWS V14.01,2013-07-01 03:53:00,
2013-06-30 23:54:00,71.9,70.7,29.90,SW,215,1.0,2.0,96,0.00,,---,0.22,VWS V14.01,2013-07-01 03:54:00,
2013-06-30 23:55:00,71.9,70.7,29.90,WSW,246,2.0,2.0,96,0.00,,---,0.22,VWS V14.01,2013-07-01 03:55:00,
2013-06-30 23:57:00,71.9,70.7,29.89,SW,225,1.0,2.0,96,0.00,,---,0.22,VWS V14.01,2013-07-01 03:57:00,
2013-06-30 23:58:00,71.9,70.7,29.89,SW,226,3.0,3.0,96,0.00,,---,0.22,VWS V14.01,2013-07-01 03:58:00,
2013-06-30 23:59:00,71.9,70.7,29.89,South,178,2.0,4.0,96,0.00,,---,0.22,VWS V14.01,2013-07-01 03:59:00,